[[{"header":{"parameterUnit":"m.s-1","parameterCategory":1,"la1":31.0,"la2":29.5877,"lo1":-88.7671,"lo2":-86.6584,"dy":0.0162,"dx":0.0185,"nx":115,"ny":88,"refTime":"2023-04-22T00:00:00:Z","depth":0,"parameterNumber":2,"parameterNumberName":"U-component_of_WINDS"},"data":[0.0,0.0,0.0,0.0,0.0,0.0,0.0,0.0,0.0,0.0,0.0,0.0,0.0,0.0,0.0,0.0,0.0,0.0,0.0,0.0,0.0,0.0,0.0,0.0,0.0,0.0,0.0,0.0,0.0,0.0,0.0,0.0,0.0,0.0,0.0,0.0,0.0,0.0,0.0,0.0,0.0,0.0,0.0,0.0,0.0,0.0,0.0,0.0,0.0,0.0,0.0,0.0,0.0,0.0,0.0,0.0,0.0,0.0,0.0,0.0,0.0,0.0,0.0,0.0,0.0,0.0,0.0,0.0,0.0,0.0,0.0,0.0,0.0,0.0,0.0,0.0,0.0,0.0,0.0,0.0,0.0,0.0,0.0,0.0,0.0,0.0,0.0,0.0,0.0,0.0,0.0,0.0,0.0,0.0,0.0,0.0,0.0,0.0,0.0,0.0,0.0,0.0,0.0,0.0,0.0,0.0,0.0,0.0,0.0,0.0,0.0,0.0,0.0,0.0,0.0,0.0,0.0,0.0,0.0,0.0,0.0,0.0,0.0,0.0,0.0,0.0,0.0,0.0,0.0,0.0,0.0,0.0,0.0,0.0,0.0,0.0,0.0,0.0,0.0,0.0,0.0,0.0,0.0,0.0,0.0,0.0,0.0,0.0,0.0,0.0,0.0,0.0,0.0,0.0,0.0,0.0,0.0,0.0,0.0,0.0,0.0,0.0,0.0,0.0,0.0,0.0,0.0,0.0,0.0,0.0,0.0,0.0,0.0,0.0,0.0,0.0,0.0,0.0,0.0,0.0,0.0,0.0,0.0,0.0,0.0,0.0,0.0,0.0,0.0,0.0,0.0,0.0,0.0,0.0,0.0,0.0,0.0,0.0,0.0,0.0,0.0,0.0,0.0,0.0,0.0,0.0,0.0,0.0,0.0,0.0,0.0,0.0,0.0,0.0,0.0,0.0,0.0,0.0,0.0,0.0,0.0,0.0,0.0,0.0,0.0,0.0,0.0,0.0,0.0,0.0,0.0,0.0,0.0,0.0,0.0,0.0,0.0,0.0,0.0,0.0,0.0,0.0,0.0,0.0,0.0,0.0,0.0,0.0,0.0,0.0,0.0,0.0,0.0,0.0,0.0,0.0,0.0,0.0,0.0,0.0,0.0,0.0,0.0,0.0,0.0,0.0,0.0,0.0,0.0,0.0,0.0,0.0,0.0,0.0,0.0,0.0,0.0,0.0,0.0,0.0,0.0,0.0,0.0,0.0,0.0,0.0,0.0,0.0,0.0,0.0,0.0,0.0,0.0,0.0,0.0,0.0,0.0,0.0,0.0,0.0,0.0,0.0,0.0,0.0,0.0,0.0,0.0,0.0,0.0,0.0,0.0,0.0,0.0,0.0,0.0,0.0,0.0,0.0,0.0,0.0,0.0,0.0,0.0,0.0,0.0,0.0,0.0,0.0,0.0,0.0,0.0,0.0,0.0,0.0,0.0,0.0,0.0,0.0,0.0,0.0,0.0,0.0,0.0,0.0,0.0,0.0,0.0,0.0,0.0,0.0,0.0,0.0,0.0,0.0,0.0,0.0,0.0,0.0,0.0,0.0,0.0,0.0,0.0,0.0,0.0,0.0,0.0,0.0,0.0,0.0,0.0,0.0,0.0,0.0,0.0,0.0,0.0,0.0,0.0,0.0,0.0,0.0,0.0,0.0,0.0,0.0,0.0,0.0,0.0,0.0,0.0,0.0,0.0,0.0,0.0,0.0,0.0,0.0,0.0,0.0,0.0,0.0,0.0,0.0,0.0,0.0,0.0,0.0,0.0,0.0,0.0,0.0,0.0,0.0,0.0,0.0,0.0,0.0,0.0,0.0,0.0,0.0,0.0,0.0,0.0,0.0,0.0,0.0,0.0,0.0,0.0,0.0,0.0,0.0,0.0,0.0,0.0,0.0,0.0,0.0,0.0,0.0,0.0,0.0,0.0,0.0,0.0,0.0,0.0,0.0,0.0,0.0,0.0,0.0,0.0,0.0,0.0,0.0,0.0,0.0,0.0,0.0,0.0,0.0,0.0,0.0,0.0,0.0,0.0,0.0,0.0,0.0,0.0,0.0,0.0,0.0,0.0,0.0,0.0,0.0,0.0,0.0,0.0,0.0,0.0,0.0,0.0,0.0,0.0,0.0,0.0,0.0,0.0,0.0,0.0,0.0,0.0,0.0,0.0,0.0,0.0,0.0,0.0,0.0,0.0,0.0,0.0,0.0,0.0,0.0,0.0,0.0,0.0,0.0,0.0,0.0,0.0,0.0,0.0,0.0,0.0,0.0,0.0,0.0,0.0,0.0,0.0,0.0,0.0,0.0,0.0,0.0,0.0,0.0,0.0,0.0,0.0,0.0,0.0,0.0,0.0,0.0,0.0,0.0,0.0,0.0,0.0,0.0,0.0,0.0,0.0,0.0,0.0,0.0,0.0,0.0,0.0,0.0,0.0,0.0,0.0,0.0,0.0,0.0,0.0,0.0,0.0,0.0,0.0,0.0,0.0,0.0,0.0,0.0,0.0,0.0,0.0,0.0,0.0,0.0,0.0,0.0,0.0,0.0,0.0,0.0,0.0,0.0,0.0,0.0,0.0,0.0,0.0,0.0,0.0,0.0,0.0,0.0,0.0,0.0,0.0,0.0,0.0,0.0,0.0,0.0,0.0,0.0,0.0,0.0,0.0,0.0,0.0,0.0,0.0,0.0,0.0,0.0,0.0,0.0,0.0,0.0,0.0,0.0,0.0,0.0,0.0,0.0,0.0,0.0,0.0,0.0,0.0,0.0,0.0,0.0,0.0,0.0,0.0,0.0,0.0,0.0,0.0,0.0,0.0,0.0,0.0,0.0,0.0,0.0,0.0,0.0,0.0,0.0,0.0,0.0,0.0,0.0,0.0,0.0,0.0,0.0,0.0,0.0,0.0,0.0,0.0,0.0,0.0,0.0,0.0,0.0,0.0,0.0,0.0,0.0,0.0,0.0,0.0,0.0,0.0,0.0,0.0,0.0,0.0,0.0,0.0,0.0,0.0,0.0,0.0,0.0,0.0,0.0,0.0,0.0,0.0,0.0,0.0,0.0,0.0,0.0,0.0,0.0,0.0,0.0,0.0,0.0,0.0,0.0,0.0,0.0,0.0,0.0,0.0,0.0,0.0,0.0,0.0,0.0,0.0,0.0,0.0,0.0,0.0,0.0,0.0,0.0,0.0,0.0,0.0,0.0,0.0,0.0,0.0,0.0,0.0,0.0,0.0,0.0,0.0,0.0,0.0,0.0,0.0,0.0,0.0,0.0,0.0,0.0,0.0,0.0,0.0,0.0,0.0,0.0,0.0,0.0,0.0,0.0,0.0,0.0,0.0,0.0,0.0,0.0,0.0,0.0,0.0,0.0,0.0,0.0,0.0,0.0,0.0,0.0,0.0,0.0,0.0,0.0,0.0,0.0,0.0,0.0,0.0,0.0,0.0,0.0,0.0,0.0,0.0,0.0,0.0,0.0,0.0,0.0,0.0,0.0,0.0,0.0,0.0,0.0,0.0,0.0,0.0,0.0,0.0,0.0,0.0,0.0,0.0,0.0,0.0,0.0,0.0,0.0,0.0,0.0,0.0,0.0,0.0,0.0,0.0,0.0,0.0,0.0,0.0,0.0,0.0,0.0,0.0,0.0,0.0,0.0,0.0,0.0,0.0,0.0,0.0,0.0,0.0,0.0,0.0,0.0,0.0,0.0,0.0,0.0,0.0,0.0,0.0,0.0,0.0,0.0,0.0,0.0,0.0,0.0,0.0,0.0,0.0,0.0,0.0,0.0,0.0,0.0,0.0,0.0,0.0,0.0,0.0,0.0,0.0,0.0,0.0,0.0,0.0,0.0,0.0,0.0,0.0,0.0,0.0,0.0,0.0,0.0,0.0,0.0,0.0,0.0,0.0,0.0,0.0,0.0,0.0,0.0,0.0,0.0,0.0,0.0,0.0,0.0,0.0,0.0,0.0,0.0,0.0,0.0,0.0,0.0,0.0,0.0,0.0,0.0,0.0,0.0,0.0,0.0,0.0,0.0,0.0,0.0,0.0,0.0,0.0,0.0,0.0,0.0,0.0,0.0,0.0,0.0,0.0,0.0,0.0,0.0,0.0,0.0,0.0,0.0,0.0,0.0,0.0,0.0,0.0,0.0,0.0,0.0,0.0,0.0,0.0,0.0,0.0,0.0,0.0,0.0,0.0,0.0,0.0,0.0,0.0,0.0,0.0,0.0,0.0,0.0,2.2123,0.0,0.0,0.0,0.0,0.0,0.0,0.0,0.0,0.0,0.0,0.0,0.0,0.0,0.0,0.0,0.0,0.0,0.0,0.0,0.0,0.0,0.0,0.0,0.0,0.0,0.0,0.0,0.0,0.0,0.0,0.0,0.0,0.0,0.0,0.0,0.0,0.0,0.0,0.0,0.0,0.0,0.0,0.0,0.0,0.0,0.0,0.0,0.0,0.0,0.0,0.0,0.0,0.0,0.0,0.0,0.0,0.0,0.0,0.0,0.0,0.0,0.0,0.0,0.0,0.0,0.0,0.0,0.0,0.0,0.0,0.0,0.0,0.0,0.0,0.0,0.0,0.0,0.0,0.0,0.0,0.0,0.0,0.0,0.0,0.0,0.0,0.0,0.0,0.0,0.0,0.0,0.0,0.0,0.0,0.0,0.0,0.0,0.0,0.0,0.0,0.0,0.0,0.0,0.0,0.0,0.0,0.0,0.0,0.0,0.0,2.3232,2.311,2.2334,2.2009,2.2156,0.0,0.0,0.0,0.0,0.0,0.0,0.0,0.0,0.0,0.0,0.0,0.0,0.0,0.0,0.0,0.0,0.0,0.0,0.0,0.0,0.0,0.0,0.0,0.0,0.0,0.0,0.0,0.0,0.0,0.0,0.0,0.0,0.0,0.0,0.0,0.0,0.0,0.0,0.0,0.0,0.0,0.0,0.0,0.0,0.0,0.0,0.0,0.0,0.0,0.0,0.0,0.0,0.0,0.0,0.0,0.0,0.0,0.0,0.0,0.0,0.0,0.0,0.0,0.0,0.0,0.0,0.0,0.0,0.0,0.0,0.0,0.0,0.0,0.0,0.0,0.0,0.0,0.0,0.0,0.0,0.0,0.0,0.0,0.0,0.0,0.0,0.0,0.0,0.0,0.0,0.0,0.0,0.0,0.0,0.0,0.0,0.0,0.0,0.0,0.0,0.0,0.0,0.0,0.0,0.0,0.0,0.0,0.0,0.0,0.0,0.0,0.0,2.2445,2.198,2.2052,0.0,0.0,0.0,0.0,0.0,0.0,0.0,0.0,0.0,0.0,0.0,0.0,0.0,0.0,0.0,0.0,0.0,0.0,0.0,0.0,0.0,0.0,0.0,0.0,0.0,0.0,0.0,0.0,0.0,0.0,0.0,0.0,0.0,0.0,0.0,0.0,0.0,0.0,0.0,0.0,0.0,0.0,0.0,0.0,0.0,0.0,0.0,0.0,0.0,0.0,0.0,0.0,0.0,0.0,0.0,0.0,0.0,0.0,0.0,0.0,0.0,0.0,0.0,0.0,0.0,0.0,0.0,0.0,0.0,0.0,0.0,0.0,0.0,0.0,0.0,0.0,0.0,0.0,0.0,0.0,0.0,0.0,0.0,0.0,0.0,0.0,0.0,0.0,0.0,0.0,0.0,0.0,0.0,0.0,0.0,0.0,0.0,0.0,0.0,0.0,0.0,0.0,0.0,0.0,0.0,0.0,0.0,0.0,0.0,0.0,2.284,2.2883,2.2374,0.0,2.1407,0.0,0.0,0.0,0.0,0.0,0.0,0.0,0.0,0.0,0.0,0.0,0.0,0.0,0.0,0.0,0.0,0.0,0.0,0.0,0.0,0.0,0.0,0.0,0.0,0.0,0.0,0.0,0.0,0.0,0.0,0.0,0.0,0.0,0.0,0.0,0.0,0.0,0.0,0.0,0.0,0.0,0.0,0.0,0.0,0.0,0.0,0.0,0.0,0.0,0.0,0.0,0.0,0.0,0.0,0.0,0.0,0.0,0.0,0.0,0.0,0.0,0.0,0.0,0.0,0.0,0.0,0.0,0.0,0.0,0.0,0.0,0.0,0.0,0.0,0.0,0.0,0.0,0.0,0.0,0.0,0.0,0.0,0.0,0.0,0.0,0.0,0.0,0.0,0.0,0.0,0.0,0.0,0.0,0.0,0.0,0.0,0.0,0.0,0.0,0.0,0.0,0.0,0.0,0.0,0.0,0.0,0.0,0.0,0.0,0.0,2.302,2.3149,2.2731,2.2055,0.0,0.0,0.0,0.0,0.0,0.0,0.0,0.0,0.0,0.0,0.0,0.0,0.0,0.0,0.0,0.0,0.0,0.0,0.0,0.0,0.0,0.0,0.0,0.0,0.0,0.0,0.0,0.0,0.0,0.0,0.0,0.0,0.0,0.0,0.0,0.0,0.0,0.0,0.0,0.0,0.0,0.0,0.0,0.0,0.0,0.0,0.0,0.0,0.0,0.0,0.0,0.0,0.0,0.0,0.0,0.0,0.0,0.0,0.0,0.0,0.0,0.0,0.0,0.0,0.0,0.0,0.0,0.0,0.0,0.0,0.0,0.0,0.0,0.0,0.0,0.0,0.0,0.0,0.0,0.0,0.0,0.0,0.0,0.0,0.0,0.0,0.0,0.0,0.0,0.0,0.0,0.0,0.0,0.0,0.0,0.0,0.0,0.0,0.0,0.0,0.0,0.0,0.0,0.0,0.0,0.0,0.0,0.0,0.0,0.0,2.3095,2.318,2.329,2.2876,2.2153,2.109,0.0,0.0,0.0,0.0,0.0,0.0,0.0,0.0,0.0,0.0,0.0,0.0,0.0,0.0,0.0,0.0,0.0,0.0,0.0,0.0,0.0,0.0,0.0,0.0,0.0,0.0,0.0,0.0,0.0,0.0,0.0,0.0,0.0,0.0,0.0,0.0,0.0,0.0,0.0,0.0,0.0,0.0,0.0,0.0,0.0,0.0,0.0,0.0,0.0,0.0,0.0,0.0,0.0,0.0,0.0,0.0,0.0,0.0,0.0,0.0,0.0,0.0,0.0,0.0,0.0,0.0,0.0,0.0,0.0,0.0,0.0,0.0,0.0,0.0,0.0,0.0,0.0,0.0,0.0,0.0,0.0,0.0,0.0,0.0,0.0,0.0,0.0,0.0,0.0,0.0,0.0,0.0,0.0,0.0,0.0,0.0,0.0,0.0,0.0,0.0,0.0,0.0,0.0,0.0,0.0,0.0,0.0,0.0,2.312,2.3095,2.312,2.3095,2.2598,2.2046,0.0,0.0,0.0,0.0,0.0,0.0,0.0,0.0,0.0,0.0,0.0,0.0,0.0,0.0,0.0,0.0,0.0,0.0,0.0,0.0,0.0,0.0,0.0,0.0,0.0,0.0,0.0,0.0,0.0,0.0,0.0,0.0,0.0,0.0,0.0,0.0,0.0,0.0,0.0,0.0,0.0,0.0,0.0,0.0,0.0,0.0,0.0,0.0,0.0,0.0,0.0,0.0,0.0,0.0,0.0,0.0,0.0,0.0,0.0,0.0,0.0,0.0,0.0,0.0,0.0,0.0,0.0,0.0,0.0,0.0,0.0,0.0,0.0,0.0,0.0,0.0,0.0,0.0,0.0,0.0,0.0,0.0,0.0,0.0,0.0,0.0,0.0,0.0,0.0,0.0,0.0,0.0,0.0,0.0,0.0,0.0,0.0,0.0,0.0,0.0,0.0,0.0,0.0,0.0,0.0,0.0,0.0,0.0,0.0,2.2848,2.2833,2.2833,2.2833,2.2725,2.2261,0.0,0.0,0.0,0.0,0.0,0.0,0.0,0.0,0.0,0.0,0.0,0.0,0.0,0.0,0.0,0.0,0.0,0.0,0.0,0.0,0.0,0.0,0.0,0.0,0.0,0.0,0.0,0.0,0.0,0.0,0.0,0.0,0.0,0.0,0.0,0.0,0.0,0.0,0.0,0.0,0.0,0.0,0.0,0.0,0.0,0.0,0.0,0.0,0.0,0.0,0.0,0.0,0.0,0.0,0.0,0.0,0.0,0.0,0.0,0.0,0.0,0.0,0.0,0.0,0.0,0.0,0.0,0.0,0.0,0.0,0.0,0.0,0.0,0.0,0.0,0.0,0.0,0.0,0.0,0.0,0.0,0.0,0.0,0.0,0.0,0.0,0.0,0.0,0.0,0.0,0.0,0.0,0.0,0.0,0.0,0.0,0.0,0.0,0.0,0.0,0.0,0.0,0.0,0.0,0.0,0.0,0.0,0.0,0.0,2.2436,0.0,2.2451,2.2451,2.2463,2.2036,0.0,0.0,0.0,0.0,0.0,0.0,0.0,0.0,0.0,0.0,0.0,0.0,0.0,0.0,0.0,0.0,0.0,0.0,0.0,0.0,0.0,0.0,0.0,0.0,0.0,0.0,0.0,0.0,0.0,0.0,0.0,0.0,0.0,0.0,0.0,0.0,0.0,0.0,0.0,0.0,0.0,0.0,0.0,0.0,0.0,0.0,0.0,0.0,0.0,0.0,0.0,0.0,0.0,0.0,0.0,0.0,0.0,0.0,0.0,0.0,0.0,0.0,0.0,0.0,0.0,0.0,0.0,0.0,0.0,0.0,0.0,0.0,0.0,0.0,0.0,0.0,0.0,0.0,0.0,0.0,0.0,0.0,0.0,0.0,0.0,0.0,0.0,0.0,0.0,0.0,0.0,0.0,0.0,0.0,0.0,0.0,0.0,0.0,0.0,0.0,0.0,0.0,0.0,0.0,0.0,0.0,0.0,0.0,2.187,2.1901,2.1877,2.1862,2.1893,2.1738,2.1355,0.0,0.0,0.0,0.0,0.0,0.0,0.0,0.0,0.0,0.0,0.0,0.0,0.0,0.0,0.0,0.0,0.0,0.0,0.0,0.0,0.0,0.0,0.0,0.0,0.0,0.0,0.0,0.0,0.0,0.0,0.0,0.0,0.0,0.0,0.0,0.0,0.0,0.0,0.0,0.0,0.0,0.0,0.0,0.0,0.0,0.0,0.0,0.0,0.0,0.0,0.0,0.0,0.0,0.0,0.0,0.0,0.0,0.0,0.0,0.0,0.0,0.0,0.0,0.0,0.0,0.0,0.0,0.0,0.0,0.0,0.0,0.0,0.0,0.0,0.0,0.0,0.0,0.0,0.0,0.0,0.0,0.0,0.0,0.0,0.0,0.0,0.0,0.0,0.0,0.0,0.0,0.0,0.0,0.0,0.0,0.0,0.0,0.0,0.0,0.0,0.0,0.0,0.0,0.0,0.0,0.0,0.0,0.0,0.0,2.0987,2.1003,2.1083,2.121,2.1237,2.0917,0.0,0.0,0.0,0.0,0.0,0.0,0.0,0.0,0.0,0.0,0.0,0.0,0.0,0.0,0.0,0.0,0.0,0.0,0.0,0.0,0.0,0.0,0.0,0.0,0.0,0.0,0.0,0.0,0.0,0.0,0.0,0.0,0.0,0.0,0.0,0.0,0.0,0.0,0.0,0.0,0.0,0.0,0.0,0.0,0.0,0.0,0.0,0.0,0.0,0.0,0.0,0.0,0.0,0.0,0.0,0.0,0.0,0.0,0.0,0.0,0.0,0.0,0.0,0.0,0.0,0.0,0.0,0.0,0.0,0.0,0.0,0.0,0.0,0.0,0.0,0.0,0.0,0.0,0.0,0.0,0.0,0.0,0.0,0.0,0.0,0.0,0.0,0.0,0.0,0.0,0.0,0.0,0.0,0.0,0.0,0.0,0.0,0.0,0.0,0.0,0.0,0.0,0.0,0.0,0.0,0.0,0.0,0.0,0.0,2.0433,2.0566,2.0593,2.0583,2.0644,2.029,1.9463,0.0,0.0,0.0,0.0,0.0,0.0,0.0,0.0,0.0,0.0,0.0,0.0,0.0,0.0,0.0,0.0,0.0,0.0,0.0,0.0,0.0,0.0,0.0,0.0,0.0,0.0,0.0,0.0,0.0,0.0,0.0,0.0,0.0,0.0,0.0,0.0,0.0,0.0,0.0,0.0,0.0,0.0,0.0,0.0,0.0,0.0,0.0,0.0,0.0,0.0,0.0,0.0,0.0,0.0,0.0,0.0,0.0,0.0,0.0,0.0,0.0,0.0,0.0,0.0,0.0,0.0,0.0,0.0,0.0,0.0,0.0,0.0,0.0,0.0,0.0,0.0,0.0,0.0,0.0,0.0,0.0,0.0,0.0,0.0,0.0,0.0,0.0,0.0,0.0,0.0,0.0,0.0,0.0,0.0,0.0,0.0,0.0,0.0,0.0,0.0,0.0,0.0,0.0,0.0,0.0,0.0,0.0,0.0,2.0188,2.0492,2.0472,2.0034,1.9992,1.9527,0.0,0.0,0.0,0.0,0.0,0.0,0.0,0.0,0.0,0.0,0.0,0.0,0.0,0.0,0.0,0.0,0.0,0.0,0.0,0.0,0.0,0.0,0.0,0.0,0.0,0.0,0.0,0.0,0.0,0.0,0.0,0.0,0.0,0.0,0.0,0.0,0.0,0.0,0.0,0.0,0.0,0.0,0.0,0.0,0.0,0.0,0.0,0.0,0.0,0.0,0.0,0.0,0.0,0.0,0.0,0.0,0.0,0.0,0.0,0.0,0.0,0.0,0.0,0.0,0.0,0.0,0.0,0.0,0.0,0.0,0.0,0.0,0.0,0.0,0.0,0.0,0.0,0.0,0.0,0.0,0.0,0.0,0.0,0.0,0.0,0.0,0.0,0.0,0.0,0.0,0.0,0.0,0.0,0.0,0.0,0.0,0.0,0.0,0.0,0.0,0.0,0.0,0.0,0.0,0.0,0.0,0.0,0.0,0.0,1.9985,2.1017,2.1087,2.0114,1.9637,1.903,0.0,0.0,0.0,0.0,0.0,0.0,0.0,0.0,0.0,0.0,0.0,0.0,0.0,0.0,0.0,0.0,0.0,0.0,0.0,0.0,0.0,0.0,0.0,0.0,0.0,0.0,0.0,0.0,0.0,0.0,0.0,0.0,0.0,0.0,0.0,0.0,0.0,0.0,0.0,0.0,0.0,0.0,0.0,0.0,0.0,0.0,0.0,0.0,0.0,0.0,0.0,0.0,0.0,0.0,0.0,0.0,0.0,0.0,0.0,0.0,0.0,0.0,0.0,0.0,0.0,0.0,0.0,0.0,0.0,0.0,0.0,0.0,0.0,0.0,0.0,0.0,0.0,0.0,0.0,0.0,0.0,0.0,0.0,0.0,0.0,0.0,0.0,0.0,0.0,0.0,0.0,0.0,0.0,0.0,0.0,0.0,0.0,0.0,0.0,0.0,0.0,0.0,0.0,0.0,0.0,0.0,0.0,0.0,1.8766,1.924,2.0138,2.0189,1.9325,1.9274,1.8576,0.0,0.0,0.0,0.0,0.0,0.0,0.0,0.0,0.0,0.0,0.0,0.0,0.0,0.0,0.0,0.0,0.0,0.0,0.0,0.0,0.0,0.0,0.0,0.0,0.0,0.0,0.0,0.0,0.0,0.0,0.0,0.0,0.0,0.0,0.0,0.0,0.0,0.0,0.0,0.0,0.0,0.0,0.0,0.0,0.0,0.0,0.0,0.0,0.0,0.0,0.0,0.0,0.0,0.0,0.0,0.0,0.0,0.0,0.0,0.0,0.0,0.0,0.0,0.0,0.0,0.0,0.0,0.0,0.0,0.0,0.0,0.0,0.0,0.0,0.0,0.0,0.0,0.0,0.0,0.0,0.0,0.0,0.0,0.0,0.0,0.0,0.0,0.0,0.0,0.0,0.0,0.0,0.0,0.0,0.0,0.0,0.0,0.0,0.0,0.0,0.0,0.0,0.0,0.0,0.0,0.0,0.0,0.0,1.7606,1.8321,1.8693,1.8589,1.8056,1.8718,1.8046,0.0,0.0,0.0,0.0,0.0,0.0,0.0,0.0,0.0,0.0,0.0,0.0,0.0,0.0,0.0,0.0,0.0,0.0,0.0,0.0,0.0,0.0,0.0,0.0,0.0,0.0,0.0,0.0,0.0,0.0,0.0,0.0,0.0,0.0,0.0,0.0,0.0,0.0,0.0,0.0,0.0,0.0,0.0,0.0,0.0,0.0,0.0,0.0,0.0,0.0,0.0,0.0,0.0,0.0,0.0,0.0,0.0,0.0,0.0,0.0,0.0,0.0,0.0,0.0,0.0,0.0,0.0,0.0,0.0,0.0,0.0,0.0,0.0,0.0,0.0,0.0,0.0,0.0,0.0,0.0,0.0,0.0,0.0,0.0,0.0,0.0,0.0,0.0,0.0,0.0,0.0,0.0,0.0,0.0,0.0,0.0,0.0,0.0,0.0,0.0,0.0,0.0,0.0,0.0,0.0,0.0,0.0,0.0,1.7281,1.7948,1.8872,1.8513,1.6743,1.7077,1.693,0.0,0.0,0.0,0.0,0.0,0.0,0.0,0.0,0.0,0.0,0.0,0.0,0.0,0.0,0.0,0.0,0.0,0.0,0.0,0.0,0.0,0.0,0.0,0.0,0.0,0.0,0.0,0.0,0.0,0.0,0.0,0.0,0.0,0.0,0.0,0.0,0.0,0.0,0.0,0.0,0.0,0.0,0.0,0.0,0.0,0.0,0.0,0.0,1.718,0.0,0.0,0.0,0.0,0.0,0.0,0.0,0.0,0.0,0.0,0.0,0.0,0.0,0.0,0.0,0.0,0.0,0.0,0.0,0.0,0.0,0.0,0.0,0.0,0.0,0.0,0.0,0.0,0.0,0.0,0.0,0.0,0.0,0.0,0.0,0.0,0.0,0.0,0.0,0.0,0.0,0.0,0.0,0.0,0.0,0.0,0.0,0.0,0.0,0.0,0.0,0.0,0.0,0.0,0.0,0.0,0.0,0.0,0.0,1.4949,1.5872,1.6544,1.6243,1.5026,1.5393,1.5417,0.0,0.0,0.0,0.0,0.0,0.0,0.0,0.0,0.0,0.0,0.0,0.0,0.0,0.0,0.0,0.0,0.0,0.0,0.0,0.0,0.0,0.0,0.0,0.0,0.0,0.0,0.0,0.0,0.0,0.0,0.0,0.0,0.0,0.0,0.0,0.0,0.0,0.0,0.0,0.0,0.0,0.0,0.0,0.0,0.0,0.0,0.0,0.0,0.0,0.0,0.0,0.0,0.0,0.0,0.0,0.0,0.0,0.0,0.0,0.0,0.0,0.0,0.0,0.0,0.0,0.0,0.0,0.0,0.0,0.0,0.0,0.0,0.0,0.0,0.0,0.0,0.0,0.0,0.0,0.0,0.0,0.0,0.0,0.0,0.0,0.0,0.0,0.0,0.0,0.0,0.0,0.0,0.0,0.0,0.0,0.0,0.0,0.0,0.0,0.0,0.0,0.0,0.0,0.0,0.0,0.0,0.0,1.2073,1.2248,1.3368,1.3519,1.34,1.31,1.3595,1.3648,1.3185,0.0,0.0,0.0,0.0,0.0,0.0,0.0,0.0,0.0,0.0,0.0,0.0,0.0,0.0,0.0,0.0,0.0,0.0,0.0,0.0,0.0,0.0,0.0,0.0,0.0,0.0,0.0,0.0,0.0,0.0,0.0,0.0,0.0,0.0,0.0,0.0,0.0,0.0,1.6261,1.6097,0.0,0.0,0.0,0.0,0.0,0.0,0.0,0.0,1.465,0.0,0.0,0.0,0.0,0.0,0.0,0.0,0.0,0.0,0.0,0.0,0.0,0.0,0.0,0.0,0.0,0.0,0.0,0.0,0.0,0.0,0.0,0.0,0.0,0.0,0.0,0.0,0.0,0.0,0.0,0.0,0.0,0.0,0.0,0.0,0.0,0.0,0.0,0.0,0.0,0.0,0.0,0.0,0.0,0.0,0.0,0.0,0.0,0.0,0.0,0.0,0.0,0.0,0.0,0.0,0.0,1.0314,1.0852,1.1329,1.1692,1.1945,1.1932,1.1669,1.1575,1.1411,1.1152,0.0,0.0,0.0,0.0,0.0,0.0,0.0,0.0,0.0,0.0,0.0,0.0,0.0,0.0,0.0,0.0,0.0,0.0,0.0,0.0,0.0,0.0,0.0,0.0,0.0,0.0,0.0,0.0,0.0,0.0,0.0,0.0,0.0,0.0,0.0,0.0,0.0,0.0,0.0,1.4551,1.4447,0.0,0.0,0.0,0.0,0.0,0.0,0.0,0.0,1.3342,0.0,0.0,0.0,0.0,0.0,0.0,0.0,0.0,0.0,0.0,0.0,0.0,0.0,0.0,0.0,0.0,0.0,0.0,0.0,0.0,0.0,0.0,0.0,0.0,0.0,0.0,0.0,0.0,0.0,0.0,0.0,0.0,0.0,0.0,0.0,0.0,0.0,0.0,0.0,0.0,0.0,0.0,0.0,0.0,0.0,0.0,0.0,0.0,0.0,0.0,0.0,0.0,0.0,0.0,0.0,0.9252,0.9313,0.9674,1.0343,1.0468,1.0431,1.0172,1.0393,1.0409,0.0,0.0,0.0,0.0,0.0,0.0,0.0,0.0,0.0,0.0,0.0,0.0,0.0,0.0,0.0,0.0,0.0,0.0,0.0,0.0,0.0,0.0,0.0,0.0,0.0,0.0,0.0,0.0,0.0,0.0,0.0,0.0,0.0,0.0,0.0,0.0,0.0,0.0,0.0,0.0,1.3433,1.3097,1.2486,0.0,0.0,0.0,0.0,0.0,0.0,1.1337,1.1397,0.0,0.0,0.0,0.0,0.0,0.0,0.0,0.0,0.0,0.0,0.0,0.0,0.0,0.0,0.0,0.0,0.0,0.0,0.0,0.0,0.0,0.0,0.0,0.0,0.0,0.0,0.0,0.0,0.0,0.0,0.0,0.0,0.0,0.0,0.0,0.0,0.0,0.0,0.0,0.0,0.0,0.0,0.0,0.0,0.0,0.0,0.0,0.0,0.0,0.0,0.0,0.0,0.0,0.0,0.0,0.7858,0.7317,0.7586,0.8683,0.8475,0.8375,0.8426,0.8794,0.892,0.0,0.0,0.0,0.0,0.0,0.0,0.0,0.0,0.0,0.0,0.0,0.0,0.0,0.0,0.0,0.0,0.0,0.0,0.0,0.0,0.0,0.0,0.0,0.0,0.0,0.0,0.0,0.0,0.0,0.0,0.0,0.0,0.0,0.0,0.0,0.0,0.0,0.0,0.0,0.0,0.0,1.1595,1.0807,1.1006,0.0,0.0,0.0,0.0,0.9595,0.9599,0.0,0.0,0.0,0.0,0.0,0.0,0.0,0.0,0.0,0.0,0.0,0.0,0.0,0.0,0.0,0.0,0.0,0.0,0.0,0.0,0.0,0.0,0.0,0.0,0.0,0.0,0.0,0.0,0.0,0.0,0.0,0.0,0.0,0.0,0.0,0.0,0.0,0.0,0.0,0.0,0.0,0.0,0.0,0.0,0.0,0.0,0.0,0.0,0.0,0.0,0.0,0.0,0.0,0.0,0.0,0.0,0.4557,0.442,0.4958,0.6087,0.5074,0.5,0.6128,0.5553,0.5304,0.0,0.0,0.0,0.0,0.0,0.0,0.0,0.0,0.0,0.0,0.0,0.0,0.0,0.0,0.0,0.0,0.0,0.0,0.0,0.0,0.0,0.0,0.0,0.0,0.0,0.0,0.0,0.0,0.0,0.0,0.0,0.0,0.0,0.0,0.0,0.0,0.0,0.0,0.0,0.0,0.0,0.9647,0.9073,0.8784,0.8592,0.0,0.0,0.8248,0.8215,0.8232,0.0,0.0,0.0,0.0,0.0,0.0,0.0,0.0,0.0,0.0,0.0,0.0,0.0,0.0,0.0,0.0,0.0,0.0,0.0,0.0,0.0,0.0,0.0,0.0,0.0,0.0,0.0,0.0,0.0,0.0,0.0,0.0,0.0,0.0,0.0,0.0,0.0,0.0,0.0,0.0,0.0,0.0,0.0,0.0,0.0,0.0,0.0,0.0,0.0,0.0,0.0,0.0,0.0,0.0,0.0,0.3329,0.327,0.3481,0.3916,0.4507,0.3999,0.3961,0.4537,0.4151,0.4018,0.0,0.0,0.0,0.0,0.0,0.0,0.0,0.0,0.0,0.0,0.0,0.0,0.0,0.0,0.0,0.0,0.0,0.0,0.0,0.0,0.0,0.0,0.0,0.0,0.0,0.0,0.0,0.0,0.0,0.0,0.0,0.0,0.0,0.0,0.0,0.0,0.0,0.0,0.0,0.0,0.0,0.0,0.7356,0.7372,0.0,0.0,0.0,0.5949,0.6163,0.0,0.0,0.0,0.0,0.0,0.0,0.0,0.0,0.0,0.0,0.0,0.0,0.0,0.0,0.0,0.0,0.0,0.0,0.0,0.0,0.0,0.0,0.0,0.0,0.0,0.0,0.0,0.0,0.0,0.0,0.0,0.0,0.0,0.0,0.0,0.0,0.0,0.0,0.0,0.0,0.0,0.0,0.0,0.0,0.0,0.0,0.0,0.0,0.0,0.0,0.0,0.0,0.0,0.0,0.0,0.0,0.0,0.2184,0.2413,0.2757,0.3169,0.2889,0.2853,0.3185,0.2869,0.0,0.0,0.0,0.0,0.0,0.0,0.0,0.0,0.0,0.0,0.0,0.0,0.0,0.0,0.0,0.0,0.0,0.0,0.0,0.0,0.0,0.0,0.0,0.0,0.0,0.0,0.0,0.2896,0.0,0.0,0.0,0.0,0.0,0.0,0.0,0.0,0.0,0.0,0.0,0.0,0.0,0.0,0.6694,0.5642,0.5727,0.5654,0.0,0.0,0.4014,0.423,0.3732,0.3469,0.0,0.0,0.0,0.0,0.0,0.0,0.0,0.0,0.0,0.0,0.0,0.0,0.0,0.0,0.0,0.0,0.0,0.0,0.0,0.0,0.0,0.0,0.0,0.0,0.0,0.0,0.0,0.0,0.0,0.0,0.0,0.0,0.0,0.0,0.0,0.0,0.0,0.0,0.0,0.0,0.0,0.0,0.0,0.0,0.0,0.0,0.0,0.0,0.0,0.0,0.0,0.0,0.0,0.0,0.0741,0.0737,0.0395,0.0859,0.2001,0.0883,0.0844,0.2038,0.125,0.0888,0.0,0.0,0.0,0.0,0.0,0.0,0.0,0.0,0.0,0.0,0.0,0.0,0.0,0.0,0.0,0.0,0.0,0.0,0.0,0.0,0.0,0.0,0.0,0.0,0.0,0.0,0.0,0.0,0.0,0.0,0.0,0.0,0.0,0.0,0.0,0.0,0.0,0.0,0.0,0.0,0.0,0.4373,0.3913,0.3463,0.313,0.0,0.0,0.297,0.2858,0.2782,0.2779,0.2814,0.0,0.0,0.0,0.0,0.0,0.0,0.0,0.0,0.0,0.0,0.0,0.0,0.0,0.0,0.0,0.0,0.0,0.0,0.0,0.0,0.0,0.0,0.0,0.0,0.0,0.0,0.0,0.0,0.0,0.0,0.0,0.0,0.0,0.0,0.0,0.0,0.0,0.0,0.0,0.0,0.0,0.0,0.0,0.0,0.0,0.0,0.0,0.0,0.0,0.0,0.0,0.0,0.0,0.0185,0.0063,0.0,0.0265,0.0712,0.0265,0.026,0.0752,0.0533,0.0342,0.0,0.0,0.0,0.0,0.0,0.0,0.0,0.0,0.0,0.0,0.0,0.0,0.0,0.0,0.0,0.0,0.0,0.0,0.0,0.0,0.0,0.0,0.0,0.0,0.0,0.0,0.0,0.0,-0.0067,-0.0033,0.0537,0.0,0.0,0.0,0.0,0.0,0.0,0.0,0.0,0.0,0.0,0.3293,0.2947,0.2613,0.0,0.0,0.1927,0.1538,0.1372,0.1073,0.0858,0.0857,0.0857,0.0,0.0,0.0,0.0,0.0,0.0,0.0,0.0,0.0,0.0,0.0,0.0,0.0,0.0,0.0,0.0,0.0,0.0,0.0,0.0,0.0,0.0,0.0,0.0,0.0,0.0,0.0,0.0,0.0,0.0,0.0,0.0,0.0,0.0,0.0,0.0,0.0,0.0,0.0,0.0,0.0,0.0,0.0,0.0,0.0,0.0,0.0,0.0,0.0,0.0,0.0,0.0,-0.0786,-0.0925,-0.1015,-0.1074,-0.1074,-0.1074,-0.1077,-0.108,-0.0885,-0.0913,0.0,0.0,0.0,0.0,0.0,0.0,0.0,0.0,0.0,0.0,0.0,0.0,0.0,0.0,0.0,0.0,0.0,0.0,0.0,0.0,0.0,0.0,0.0,0.0,0.0,0.0,0.0,0.0,-0.1561,-0.1391,-0.0504,0.0,0.0,0.0,0.0,0.0,0.0,0.0,0.0,0.0,0.0,0.2144,0.1812,0.1561,0.1341,0.124,0.0705,0.0251,0.005,-0.0332,-0.0648,-0.0746,0.0,0.0,0.0,0.0,0.0,0.0,0.0,0.0,0.0,0.0,0.0,0.0,0.0,0.0,0.0,0.0,0.0,0.0,0.0,0.0,0.0,0.0,0.0,0.0,0.0,0.0,0.0,0.0,0.0,0.0,-0.0975,0.0,0.0,0.0,0.0,0.0,0.0,0.0,0.0,0.0,0.0,0.0,0.0,0.0,0.0,0.0,0.0,0.0,0.0,0.0,0.0,0.0,0.0,-0.2349,-0.2372,-0.3057,-0.3476,-0.3476,-0.3501,-0.3461,-0.3456,-0.3303,-0.3209,-0.3194,0.0,0.0,0.0,0.0,0.0,0.0,0.0,0.0,0.0,0.0,0.0,0.0,0.0,0.0,0.0,0.0,0.0,0.0,0.0,0.0,0.0,0.0,0.0,0.0,0.0,0.0,-0.2937,-0.2432,-0.1879,0.0,0.0,0.0,0.0,0.0,0.0,0.0,0.0,0.0,0.0,0.1042,0.0723,0.0386,0.0,-0.0353,-0.0671,-0.0756,-0.0833,-0.1037,-0.1179,-0.1417,0.0,0.0,0.0,0.0,0.0,0.0,0.0,0.0,0.0,0.0,0.0,0.0,0.0,0.0,0.0,0.0,0.0,0.0,0.0,0.0,0.0,0.0,0.0,0.0,0.0,0.0,0.0,-0.2932,-0.2647,0.0,0.0,0.0,0.0,0.0,0.0,0.0,0.0,0.0,0.0,0.0,-0.4573,-0.4463,0.0,0.0,0.0,0.0,0.0,0.0,0.0,0.0,0.0,0.0,0.0,0.0,-0.3001,-0.3147,-0.3433,-0.3609,-0.3609,-0.3609,-0.3595,-0.3602,-0.3399,-0.3403,-0.3644,0.0,0.0,0.0,0.0,0.0,0.0,0.0,0.0,0.0,0.0,0.0,0.0,0.0,0.0,0.0,0.0,0.0,0.0,0.0,0.0,0.0,0.0,0.0,0.0,0.0,-0.4178,0.0,0.0,0.0,0.0,0.0,0.0,0.0,0.0,0.0,0.0,0.0,0.005,-0.0721,-0.0705,-0.0689,-0.0924,-0.1192,-0.1427,0.0,0.0,0.0,0.0,0.0,0.0,0.0,0.0,0.0,0.0,0.0,0.0,0.0,0.0,-0.2482,-0.1575,-0.1406,-0.1122,-0.0084,0.0,0.0,0.0,0.0,0.0,0.0,0.0,0.0,0.0,0.0,0.0,0.0,0.0,0.0,-0.4122,0.0,-0.3697,0.0,0.0,0.0,0.0,0.0,0.0,0.0,0.0,-0.5208,-0.5534,-0.5753,-0.5632,-0.5648,0.0,-0.5577,-0.4935,0.0,0.0,0.0,0.0,0.0,0.0,0.0,0.0,-0.4265,-0.4437,-0.4681,-0.483,-0.4907,-0.4852,-0.4786,-0.4746,-0.4522,-0.448,-0.4652,-0.4873,-0.4984,0.0,0.0,0.0,0.0,0.0,0.0,0.0,0.0,0.0,0.0,0.0,0.0,0.0,0.0,0.0,0.0,0.0,0.0,0.0,0.0,0.0,0.0,0.0,-0.4936,0.0,0.0,0.0,0.0,0.0,0.0,0.0,0.0,0.0,-0.2186,-0.1592,-0.1441,-0.208,-0.1963,-0.1812,-0.1865,0.0,0.0,0.0,0.0,0.0,0.0,0.0,-0.3121,-0.361,-0.3727,-0.3878,-0.4206,-0.4261,-0.4295,-0.4278,0.0,0.0,-0.2967,-0.2766,-0.2509,-0.1607,-0.1021,-0.0385,0.0403,0.1057,0.1565,0.0,0.0,0.0,0.0,0.0,0.0,0.0,0.0,-0.532,-0.5204,0.0,-0.4696,0.0,0.0,0.0,0.0,0.0,-0.528,0.0,0.0,-0.6726,-0.7081,-0.7015,-0.6992,-0.6907,-0.6736,-0.6584,-0.6408,-0.619,-0.5458,0.0,0.0,0.0,0.0,0.0,0.0,-0.6089,-0.6207,-0.6757,-0.7179,-0.7344,-0.7179,-0.7009,-0.6833,-0.6593,-0.639,-0.6287,-0.6009,-0.5848,-0.5813,-0.5731,0.0,0.0,0.0,0.0,0.0,0.0,0.0,0.0,0.0,0.0,0.0,0.0,0.0,0.0,0.0,0.0,0.0,0.0,0.0,0.0,-0.5246,0.0,0.0,0.0,0.0,0.0,0.0,0.0,0.0,0.0,0.0,-0.3174,-0.2978,-0.2904,-0.2814,0.0,0.0,0.0,0.0,-0.3234,-0.3242,-0.3577,-0.3823,-0.3839,-0.3928,-0.4145,-0.4528,0.0,0.0,-0.507,-0.4944,-0.4817,-0.4811,-0.496,-0.4888,-0.4161,-0.3789,-0.3501,-0.3201,-0.2195,-0.1272,-0.0837,0.0084,0.0864,-0.7516,0.0,0.0,0.0,0.0,-0.6832,-0.6755,-0.6618,-0.6653,-0.6495,-0.6183,-0.6108,0.0,0.0,0.0,0.0,0.0,0.0,-0.6374,-0.6847,-0.7058,-0.7303,-0.756,-0.749,-0.7503,-0.7623,-0.7393,-0.7313,-0.7332,-0.7018,-0.642,-0.5577,0.0,0.0,0.0,0.0,-0.659,-0.6762,-0.723,-0.7489,-0.7529,-0.7387,-0.7129,-0.6776,-0.6681,-0.6539,-0.6306,-0.6076,-0.603,-0.6148,-0.5833,0.0,0.0,0.0,0.0,0.0,0.0,0.0,0.0,0.0,0.0,0.0,0.0,0.0,0.0,0.0,0.0,0.0,0.0,0.0,-0.5594,-0.5641,-0.567,0.0,0.0,0.0,0.0,0.0,0.0,0.0,0.0,0.0,-0.4791,-0.4099,-0.3847,0.0,0.0,-0.3969,-0.39,-0.4074,-0.4239,-0.4328,0.0,0.0,0.0,-0.4645,-0.4661,-0.4921,-0.511,-0.5243,-0.5309,-0.5276,-0.5233,-0.5226,-0.5259,-0.5243,-0.506,-0.4927,-0.4605,-0.3901,-0.2976,-0.2075,-0.1306,-0.0403,0.0,-0.8196,-0.7954,-0.7699,-0.7537,-0.7434,-0.7382,-0.7388,-0.7441,-0.7441,-0.7315,-0.7046,-0.7103,-0.6837,-0.6292,-0.623,0.0,0.0,0.0,-0.6929,-0.7441,-0.7441,-0.7592,-0.7864,-0.7814,-0.7837,-0.8,-0.7837,-0.779,-0.7878,-0.7753,-0.7354,-0.6672,0.0,0.0,-0.6531,-0.6886,-0.7141,-0.7316,-0.7513,-0.7624,-0.7678,-0.7421,-0.7149,-0.6864,-0.6763,-0.6634,-0.6464,-0.6288,-0.6247,-0.6375,-0.6067,-0.5908,0.0,0.0,0.0,0.0,0.0,0.0,0.0,0.0,0.0,0.0,0.0,-0.5637,-0.5566,0.0,0.0,0.0,-0.5589,-0.5671,-0.5874,-0.5895,0.0,0.0,0.0,0.0,0.0,0.0,0.0,-0.5705,-0.5767,-0.5823,-0.5804,-0.5254,-0.4978,-0.5333,-0.5132,-0.4908,-0.4833,0.0,-0.4946,-0.4985,-0.5015,-0.5077,-0.5186,-0.5126,-0.5077,-0.5193,-0.5326,-0.5392,-0.5392,-0.5392,-0.5392,-0.5392,-0.5392,-0.5392,-0.5392,-0.5392,-0.5259,-0.4639,-0.3547,-0.2542,-0.1958,0.0,0.0,-0.8771,-0.8498,-0.7909,-0.774,-0.7834,-0.7719,-0.774,-0.7848,-0.7862,-0.7773,-0.7645,-0.7773,-0.7596,-0.7214,-0.7026,0.0,-0.7251,-0.7251,-0.7447,-0.7828,-0.7841,-0.7923,-0.8033,-0.804,-0.8047,-0.8047,-0.8047,-0.8054,-0.8047,-0.7912,-0.7831,-0.7841,-0.7712,-0.7513,-0.7261,-0.7486,-0.7678,-0.7807,-0.7668,-0.7692,-0.7776,-0.7377,-0.7119,-0.7114,-0.6843,-0.6709,-0.6716,-0.6573,-0.6498,-0.6525,-0.6381,-0.6219,-0.6052,0.0,0.0,0.0,0.0,0.0,0.0,0.0,0.0,0.0,0.0,0.0,0.0,0.0,0.0,0.0,-0.5654,0.0,-0.6005,-0.6025,0.0,0.0,0.0,-0.6313,-0.628,-0.6306,-0.6313,-0.63,0.0,0.0,-0.628,-0.628,-0.6102,-0.5626,-0.5594,-0.5565,-0.5369,-0.5379,-0.5376,-0.5332,-0.5369,-0.5399,-0.5375,-0.5359,-0.5375,-0.5375,-0.5392,-0.5392,-0.5392,-0.5392,-0.5392,-0.5392,-0.5392,-0.5422,-0.5412,-0.5426,-0.5419,-0.5406,-0.4028,-0.2813,-0.2599,-0.1353,0.0,-0.8872,-0.877,-0.8431,-0.826,-0.8192,-0.8267,-0.8253,-0.8174,-0.8275,-0.8155,-0.7912,-0.7921,-0.7793,-0.7503,-0.7456,-0.7516,-0.764,-0.7664,-0.7769,-0.7966,-0.8106,-0.8206,-0.8247,-0.8323,-0.8377,-0.8377,-0.8377,-0.8377,-0.8377,-0.8343,-0.8269,-0.8192,-0.8151,-0.7912,-0.7516,-0.7658,-0.7749,-0.7807,-0.7871,-0.7871,-0.7783,-0.7597,-0.7357,-0.7121,-0.6923,-0.6796,-0.6702,-0.6552,-0.6546,-0.6634,-0.6416,-0.6314,-0.6382,-0.6287,0.0,0.0,0.0,0.0,0.0,0.0,0.0,0.0,0.0,-0.5928,-0.5806,0.0,-0.5944,0.0,-0.6049,-0.6151,-0.6238,-0.6226,0.0,0.0,-0.6463,-0.6396,-0.6313,-0.6375,-0.6403,-0.6313,-0.628,-0.628,-0.628,-0.628,-0.6253,-0.6121,-0.6005,-0.5905,-0.5833,-0.5672,-0.5566,-0.5541,-0.545,-0.5399,-0.5392,-0.5392,-0.5392,-0.5392,-0.5392,-0.5392,-0.5392,-0.5392,-0.5392,-0.5392,-0.5392,-0.5456,-0.5525,-0.5535,-0.5593,-0.5615,-0.4603,-0.3529,-0.2945,-0.1842,-0.077,-0.9068,-0.9015,-0.8784,-0.8601,-0.8492,-0.8505,-0.8539,-0.8567,-0.8581,-0.8486,-0.8304,-0.8243,-0.8147,-0.7991,-0.7929,-0.7943,-0.8011,-0.7918,-0.7932,-0.7995,-0.8201,-0.8294,-0.8301,-0.8444,-0.8505,-0.8505,-0.8505,-0.8505,-0.8505,-0.8505,-0.8438,-0.8389,-0.8389,-0.8267,-0.8029,-0.7912,-0.7891,-0.7891,-0.7973,-0.7973,-0.7885,-0.7682,-0.7516,-0.7323,-0.7114,-0.6965,-0.6877,-0.6756,-0.6715,-0.6769,-0.6532,-0.6402,-0.6396,-0.634,-0.6246,0.0,0.0,0.0,0.0,0.0,0.0,0.0,0.0,0.0,0.0,0.0,-0.6254,-0.6302,-0.6362,-0.6422,-0.6471,-0.6477,-0.6505,-0.6586,-0.6573,-0.6566,-0.6484,-0.6504,-0.6464,-0.6402,-0.634,-0.628,-0.628,-0.628,-0.628,-0.628,-0.6205,-0.6132,-0.6105,-0.5874,-0.5705,-0.5766,-0.562,-0.5467,-0.5405,-0.5392,-0.5392,-0.5392,-0.5392,-0.5392,-0.5392,-0.5392,-0.5392,-0.5399,-0.5453,-0.5505,-0.5586,-0.5644,-0.5619,-0.5189,-0.4625,-0.3841,-0.3049,-0.1743,-0.0538,-0.9362,-0.9226,-0.9055,-0.8892,-0.8757,-0.8655,-0.8716,-0.8872,-0.8764,-0.873,-0.8703,-0.858,-0.8505,-0.8472,-0.8383,-0.8315,-0.8287,-0.8126,-0.8047,-0.8054,-0.8228,-0.8335,-0.8355,-0.8472,-0.8566,-0.854,-0.854,-0.854,-0.854,-0.854,-0.8553,-0.8539,-0.8513,-0.8526,-0.8498,-0.8202,-0.8035,-0.804,-0.8047,-0.8033,-0.7982,-0.7753,-0.7597,-0.7584,-0.7276,-0.7121,-0.7092,-0.6964,-0.6918,-0.6924,-0.6661,-0.6497,-0.6388,-0.6368,-0.6254,0.0,-0.624,0.0,0.0,0.0,0.0,0.0,0.0,0.0,0.0,-0.6518,-0.6566,-0.6682,-0.6586,-0.658,-0.6688,-0.6722,-0.6709,-0.6729,-0.6708,-0.6722,-0.6695,-0.66,-0.6532,-0.6498,-0.6402,-0.632,-0.63,-0.628,-0.628,-0.628,-0.6293,-0.6267,-0.6253,-0.601,-0.5874,-0.5973,-0.5793,-0.5579,-0.544,-0.5412,-0.5426,-0.5422,-0.5419,-0.5426,-0.5433,-0.5453,-0.546,-0.5474,-0.5552,-0.5641,-0.5637,-0.5752,-0.5529,-0.4774,-0.4272,-0.3707,-0.2795,-0.1467,-0.0203,-0.9551,-0.951,-0.9361,-0.9279,-0.9281,-0.9254,-0.9035,-0.8757,-0.8825,-0.8798,-0.8676,-0.8547,-0.8505,-0.8505,-0.8478,-0.8403,-0.8294,-0.8267,-0.8228,-0.8228,-0.8403,-0.8532,-0.8635,-0.8784,-0.8825,-0.8825,-0.8825,-0.8825,-0.8825,-0.8825,-0.8791,-0.8669,-0.8642,-0.8608,-0.8512,0.0,0.0,0.0,-0.8253,-0.8167,-0.8013,-0.7753,-0.7597,-0.759,-0.7276,0.0,-0.7092,-0.6985,-0.6937,-0.706,-0.6817,0.0,0.0,0.0,0.0,0.0,0.0,0.0,0.0,0.0,0.0,0.0,-0.6668,-0.6627,-0.6654,-0.6654,-0.6641,-0.6546,-0.662,-0.6668,-0.6695,-0.6722,-0.6728,-0.6871,-0.6864,-0.6816,-0.6722,-0.6783,-0.6749,-0.6525,-0.6471,-0.6409,-0.6327,-0.628,-0.63,-0.6306,-0.628,-0.628,-0.628,-0.6124,-0.5984,-0.5973,-0.5867,-0.5664,-0.5433,-0.5501,-0.5505,-0.5446,-0.5508,-0.5535,-0.5542,-0.5654,-0.5711,-0.5705,-0.5739,-0.5806,-0.5897,-0.5932,-0.5688,-0.4827,-0.3938,-0.3004,-0.2045,-0.1444,-0.085,-0.9612,0.0,-0.939,-0.9294,0.0,-0.9294,-0.9165,-0.894,-0.9089,-0.9117,-0.9028,-0.8907,-0.8839,-0.8859,-0.8662,-0.8554,-0.8512,-0.8437,-0.8403,-0.841,-0.8526,-0.8635,-0.8689,-0.8838,-0.8912,-0.8912,-0.8912,-0.8912,-0.8912,-0.8912,-0.8872,-0.8798,-0.8798,-0.8757,-0.871,-0.871,-0.856,-0.8301,-0.8194,-0.8094,-0.8006,-0.7797,-0.7682,-0.7675,0.0,0.0,0.0,0.0,0.0,0.0,0.0,0.0,0.0,0.0,0.0,-0.6722,-0.6722,-0.6736,-0.6782,-0.6789,-0.6823,-0.6891,-0.6897,-0.687,-0.6796,-0.6857,-0.6864,-0.6789,-0.685,-0.6897,-0.6897,-0.6897,-0.6924,-0.6984,-0.6991,-0.6979,-0.6918,-0.6876,-0.685,-0.6722,-0.6654,-0.6573,-0.6505,-0.6498,-0.6464,-0.6422,-0.6382,-0.6375,-0.6306,-0.6231,-0.6125,-0.6025,-0.5951,-0.5795,-0.5549,-0.5545,-0.5552,-0.5453,-0.5505,-0.5576,-0.5589,-0.5705,-0.58,-0.5806,-0.5861,-0.5924,-0.5991,-0.6091,-0.5701,-0.4278,-0.3476,-0.254,-0.1214,-0.0737,-0.0541,-0.9616,-0.9625,-0.9403,-0.9281,-0.926,-0.9289,-0.926,-0.9267,0.0,0.0,0.0,-0.9275,-0.9186,-0.9187,-0.8872,-0.8737,-0.8676,-0.8581,-0.8546,-0.8526,-0.8648,-0.8723,-0.873,-0.8852,-0.8912,-0.8912,-0.8912,-0.8912,-0.8912,-0.8912,-0.8912,-0.8912,-0.8912,-0.8912,-0.8912,-0.8885,-0.8716,-0.8383,-0.8194,-0.8081,-0.8054,-0.7878,-0.7814,-0.7814,-0.7672,-0.7566,-0.7437,-0.7437,-0.7353,-0.7202,-0.7066,-0.6985,-0.6979,-0.6865,-0.6776,-0.6755,-0.6803,-0.6871,-0.6972,-0.7007,-0.7019,-0.7114,-0.7121,-0.7038,-0.6918,-0.7018,-0.7121,-0.7121,-0.7121,-0.7092,-0.7121,-0.7121,-0.7121,-0.7121,-0.7121,-0.7092,-0.7107,-0.7019,-0.6938,-0.6897,-0.681,-0.6708,-0.6695,-0.6709,-0.6661,-0.6566,-0.6532,-0.6497,-0.6368,-0.6279,-0.6152,-0.6013,-0.5946,-0.5863,-0.5664,-0.5589,-0.5528,-0.5449,-0.5525,-0.5623,-0.5668,-0.5783,-0.5886,-0.5908,-0.5989,-0.6039,-0.6066,-0.6173,-0.5544,-0.3534,-0.3106,-0.2482,0.0,0.0,0.0,-0.9788,-0.9788,-0.9747,-0.9659,-0.9544,-0.9544,-0.9544,-0.9537,-0.9429,-0.941,-0.9396,-0.9247,-0.9186,-0.9172,-0.8953,-0.8804,-0.871,-0.8689,-0.8676,0.0,-0.8696,-0.875,-0.8879,-0.8871,-0.8912,-0.8912,-0.8912,-0.8912,-0.8912,-0.8912,-0.8912,-0.8912,-0.8912,-0.8912,-0.8899,-0.8777,-0.871,-0.8648,-0.8499,-0.8389,-0.8267,-0.7957,-0.7814,-0.7783,-0.7678,-0.759,-0.7593,-0.757,-0.7556,-0.7536,-0.7416,-0.7328,-0.7305,-0.7134,-0.7038,-0.7066,-0.7204,-0.7308,-0.7305,-0.7328,-0.7258,-0.7105,-0.7121,-0.7038,-0.6924,-0.7011,-0.7121,-0.7121,-0.7121,-0.7121,-0.7121,-0.7121,-0.7121,-0.7121,-0.7121,-0.7121,-0.7121,-0.7078,-0.7018,-0.6931,-0.6891,-0.6823,-0.6749,-0.6722,-0.6715,-0.6675,-0.6654,-0.6634,-0.6471,-0.622,-0.6052,-0.5998,-0.5897,-0.5755,-0.5664,-0.5613,-0.5573,-0.5419,-0.5613,-0.5772,-0.5772,-0.6001,-0.6184,-0.6205,-0.6155,-0.6136,-0.6162,-0.626,-0.5234,-0.3456,-0.2989,-0.2326,0.0,0.0,0.0,-0.9913,-0.9893,-0.9744,-0.9618,-0.9483,-0.9401,-0.9444,-0.949,-0.9503,-0.9551,-0.9598,-0.9462,-0.9383,-0.9294,-0.9152,-0.8974,-0.8804,-0.8804,-0.8811,-0.8811,-0.8913,-0.8988,-0.9055,-0.9137,-0.9184,-0.9178,-0.9089,-0.9055,-0.9049,-0.8953,-0.8912,-0.8912,-0.8912,-0.8912,-0.8906,-0.8838,-0.8811,-0.8832,-0.8601,-0.8478,-0.841,-0.8199,-0.8058,-0.8058,-0.7916,-0.7794,-0.7719,-0.7712,-0.7678,-0.7604,-0.7478,-0.7396,-0.7389,-0.7202,-0.7154,-0.7258,-0.7355,-0.7396,-0.7396,-0.7396,-0.738,-0.7364,-0.7364,-0.7337,-0.7276,-0.7175,-0.7121,-0.7121,-0.7121,-0.7121,-0.7121,-0.7121,-0.7121,-0.7121,-0.7121,-0.7121,-0.7121,-0.7121,-0.7071,-0.7033,-0.6997,-0.6992,-0.6924,-0.6918,-0.6877,-0.6816,-0.6742,-0.6675,-0.662,-0.6437,-0.624,-0.6185,-0.611,-0.5996,-0.5854,-0.5809,-0.5748,-0.5641,-0.5779,-0.589,-0.5917,-0.6118,-0.6253,-0.6241,-0.5867,-0.5473,-0.5415,-0.4904,-0.3928,-0.2817,-0.2289,-0.1605,0.0,0.0,0.0,-1.0069,-1.0042,-0.9825,-0.9673,-0.9523,-0.9396,-0.9403,-0.946,-0.9212,-0.9172,-0.9273,-0.9493,-0.9523,-0.9403,-0.9282,-0.9104,-0.8926,-0.8912,-0.8906,-0.8926,-0.9117,-0.9186,-0.9199,-0.9342,-0.941,-0.9396,-0.9288,-0.9233,-0.922,-0.9096,-0.9014,-0.9007,-0.9001,-0.896,-0.896,-0.8926,-0.8912,-0.8899,-0.8676,-0.8567,-0.8526,-0.8417,-0.8328,-0.8287,-0.8153,-0.8018,-0.7851,-0.7862,-0.779,-0.7682,-0.7584,-0.7525,-0.7468,-0.7353,-0.731,-0.7437,-0.7478,-0.7491,-0.7498,-0.7498,-0.7509,-0.759,-0.7597,-0.7597,-0.7584,-0.7387,-0.7222,-0.72,-0.7235,-0.7229,-0.7235,-0.7229,-0.7208,-0.7175,-0.7168,-0.7154,-0.7105,-0.7121,-0.7121,-0.7121,-0.7121,-0.7114,-0.7121,-0.7121,-0.7045,-0.6958,-0.6823,-0.6742,-0.6736,-0.6641,-0.6498,-0.6396,-0.6301,-0.6192,-0.6084,-0.5978,-0.5897,-0.5813,-0.5903,-0.5978,-0.6025,-0.6171,-0.6112,-0.5906,-0.5273,-0.4705,-0.4375,-0.3768,-0.2872,-0.1957,-0.1724,-0.1313,0.0,0.0,0.0,-1.0288,-1.0256,-1.0215,-1.0127,-0.9834,-0.9687,-0.959,-0.9429,-0.8229,-0.7626,-0.7712,-0.9001,-0.9442,-0.9403,-0.9232,-0.9089,-0.8843,-0.8912,-0.8836,-0.8801,-0.9089,-0.9186,-0.9036,-0.9256,-0.9381,-0.9301,-0.9223,-0.9122,-0.9238,-0.9334,-0.9334,-0.9356,-0.9233,-0.9158,-0.9145,-0.9008,-0.8912,-0.8912,-0.8885,-0.8804,-0.8689,-0.854,-0.843,-0.8301,-0.8281,-0.8174,-0.7993,-0.7993,-0.7961,-0.7973,-0.7946,-0.7885,-0.7756,-0.7729,-0.7692,-0.7614,-0.7692,-0.7743,-0.7767,-0.7749,-0.7712,-0.7611,-0.7617,-0.7617,-0.7611,-0.7577,-0.7556,-0.7556,-0.7533,-0.7536,-0.7533,-0.7543,-0.7475,-0.7382,-0.7353,-0.7299,-0.7168,-0.7121,-0.7121,-0.7121,-0.7148,-0.7121,-0.7134,-0.7105,-0.7114,-0.708,-0.6972,-0.6884,-0.6856,-0.6649,-0.6529,-0.6498,-0.629,-0.609,-0.616,-0.6015,-0.5908,-0.5836,-0.588,-0.59,-0.5877,-0.5911,-0.6002,-0.4943,-0.4632,-0.4122,-0.3554,-0.3086,-0.2638,-0.1664,-0.1333,-0.1215,0.0,0.0,0.0,-1.0405,-1.0399,-1.0349,-0.9583,-0.8423,-0.719,-0.6659,-0.6598,-0.6086,-0.5814,-0.5879,-0.6531,-0.727,-0.8078,-0.9004,-0.8842,-0.7732,-0.7704,-0.7184,-0.6388,-0.6483,-0.653,-0.6544,-0.6668,-0.675,-0.6741,-0.6659,-0.7098,-0.8042,-0.8949,-0.941,-0.9403,-0.9342,-0.9274,-0.9186,-0.9124,-0.9022,-0.8912,-0.8912,-0.8879,-0.8811,-0.8696,-0.8547,-0.843,-0.8342,-0.8194,-0.8008,-0.7988,-0.7988,-0.7982,-0.7925,-0.7851,-0.7814,-0.7733,-0.7699,-0.7695,-0.778,-0.7824,-0.7894,-0.7862,-0.7804,-0.7831,-0.7837,-0.7837,-0.7837,-0.7837,-0.7837,-0.7817,-0.7706,-0.7597,-0.7604,-0.7597,-0.7593,-0.7516,-0.7532,-0.7475,-0.7421,-0.7384,-0.7414,-0.7384,-0.7333,-0.7278,-0.7265,-0.7175,-0.7098,-0.7092,-0.7038,-0.6967,-0.696,-0.6409,-0.5967,-0.5803,-0.5105,-0.5112,-0.5973,-0.6314,-0.6147,-0.601,-0.5601,-0.5256,-0.5179,-0.4645,-0.4219,-0.3807,-0.3386,-0.2917,-0.2328,-0.1625,-0.1077,0.0,0.0,-0.0491,-0.0059,0.0,0.0,-0.9089,-0.9077,-0.8994,-0.8166,-0.6742,-0.5284,-0.4649,-0.4586,-0.4271,-0.4111,-0.4114,-0.4193,-0.4825,-0.5983,-0.7549,-0.7498,-0.6365,-0.6239,-0.5622,-0.4581,-0.4647,-0.4711,-0.4721,-0.4852,-0.492,-0.4909,-0.4858,-0.5377,-0.6515,-0.756,-0.8166,-0.8154,-0.8125,-0.8043,-0.7978,-0.7943,-0.7855,-0.7721,-0.8044,-0.8106,-0.7781,-0.7999,-0.8265,-0.8501,-0.8445,-0.8316,-0.8142,-0.816,-0.8115,-0.8074,-0.7991,-0.7916,-0.7868,-0.7749,-0.7743,-0.7813,-0.7479,-0.7524,-0.7932,-0.7561,-0.7524,-0.7925,-0.7988,-0.7988,-0.7988,-0.7988,-0.7988,-0.7943,-0.7501,-0.7217,-0.7695,-0.7719,-0.7706,-0.7672,-0.7658,-0.7645,-0.7597,-0.7597,-0.759,-0.759,-0.7489,-0.7457,-0.7368,-0.6999,-0.6625,-0.6618,-0.6626,-0.6461,-0.6159,-0.5396,-0.4905,-0.4861,-0.4003,-0.4064,-0.5358,-0.5392,-0.5523,-0.5351,-0.4614,-0.4267,-0.4257,-0.3526,-0.2842,-0.2848,-0.2029,-0.1456,-0.1215,-0.047,0.0,0.0,0.0,0.0,0.0,0.0,0.0,-0.5621,-0.5689,-0.5621,-0.5614,-0.5443,-0.5042,-0.4946,-0.459,-0.3275,-0.2582,-0.2582,-0.2587,-0.2647,-0.2889,-0.431,-0.4826,-0.4614,-0.461,-0.447,-0.4239,-0.4416,-0.4624,-0.4687,-0.4852,-0.4794,-0.4456,-0.4419,-0.4658,-0.4967,-0.5178,-0.5089,-0.5201,-0.5245,-0.5046,-0.5115,-0.5109,-0.48,-0.5138,-0.62,-0.6177,-0.515,-0.6135,-0.7347,-0.8305,-0.8609,-0.8355,-0.8334,-0.8406,-0.8313,-0.8211,-0.8056,-0.8047,-0.7914,-0.7869,-0.7788,-0.7733,-0.6725,-0.6625,-0.749,-0.6694,-0.6545,-0.7609,-0.7658,-0.7864,-0.7609,-0.7609,-0.7609,-0.7882,-0.6653,-0.6487,-0.7458,-0.7439,-0.753,-0.75,-0.7632,-0.7507,-0.7466,-0.7212,-0.7557,-0.7429,-0.7251,-0.7101,-0.7319,-0.6461,-0.5743,-0.5629,-0.5647,-0.5311,-0.4356,-0.3871,-0.3697,-0.3645,-0.3498,-0.3537,-0.3549,-0.3936,-0.3688,-0.3539,-0.3662,-0.3187,-0.3163,-0.3008,-0.2435,0.0,-0.1562,-0.1019,-0.0355,0.0,0.0,0.0,0.0,0.0,0.0,0.0,0.0,-0.5404,-0.527,-0.416,-0.3695,-0.3527,-0.2375,-0.1859,-0.1793,-0.118,-0.09,-0.0906,0.0,-0.0912,-0.092,-0.1451,-0.2264,-0.3149,-0.3235,-0.2663,-0.1758,-0.1675,-0.168,-0.1681,-0.1752,-0.1756,-0.1756,-0.1787,-0.2339,-0.3444,-0.4364,-0.492,-0.4913,-0.4865,-0.4781,-0.4707,-0.4644,-0.4603,-0.4552,-0.5078,-0.5023,-0.4533,-0.5027,-0.5539,-0.595,-0.5886,-0.5746,-0.562,-0.562,-0.5596,-0.5553,-0.5548,-0.5528,-0.5466,-0.5431,-0.5444,-0.5421,-0.4988,-0.4929,-0.5306,-0.5002,-0.4893,-0.5347,-0.5447,-0.5522,-0.5418,-0.5443,-0.5443,-0.5347,-0.5093,-0.5018,-0.5243,-0.5443,-0.5433,-0.5372,-0.5387,-0.5447,-0.5301,-0.5288,-0.5288,-0.5303,-0.5237,-0.5125,-0.5151,-0.4624,-0.434,-0.4313,-0.4313,-0.404,-0.3628,-0.2977,-0.244,-0.2297,-0.1806,-0.1274,-0.1222,-0.2606,-0.3228,-0.2953,-0.2747,-0.2313,-0.2133,-0.1575,-0.097,0.0,0.0,0.0,0.0,0.0,0.0,0.0,0.0,0.0,0.0,0.0,0.0,-0.3656,-0.3453,-0.2326,-0.183,-0.1692,-0.0539,0.0,0.0,0.0,0.0,0.0,0.0,0.0,0.0,0.0,-0.0573,-0.1626,-0.1681,-0.1056,0.0,0.0,0.0,0.0,0.0,0.0,0.0,0.0,0.0,-0.1663,-0.277,-0.329,-0.3292,-0.3337,-0.3282,-0.3189,-0.3185,-0.3135,-0.3083,-0.3509,-0.3571,-0.3197,-0.3522,-0.3494,-0.3126,-0.2902,-0.3335,-0.4075,-0.4159,-0.4136,-0.4073,-0.406,-0.404,-0.3997,-0.4008,-0.4005,-0.3962,-0.3598,-0.3563,-0.3863,-0.3603,-0.355,-0.3976,-0.4001,-0.4001,-0.4001,-0.4001,-0.3991,-0.3949,-0.3516,-0.3341,-0.3265,-0.299,-0.3065,-0.3742,-0.3989,-0.3989,-0.3989,-0.4039,-0.4061,-0.405,-0.3623,-0.3433,-0.3591,-0.3316,-0.3125,-0.3071,-0.3082,-0.2996,-0.2415,-0.1817,-0.1213,-0.1165,-0.0648,0.0,0.0,0.0,0.0,0.0,0.0,0.0,0.0,0.0,0.0,0.0,0.0,0.0,0.0,0.0,0.0,0.0,0.0,0.0,0.0,0.0,0.0,0.0,0.0,0.0,0.0,0.0,0.0,0.0,0.0,0.0,0.0,0.0,0.0,0.0,0.0,0.0,0.0,0.0,0.0,0.0,0.0,0.0,0.0,0.0,0.0,0.0,0.0,0.0,0.0,0.0,0.0,0.0,0.0,0.0,0.0,0.0,0.0,0.0,0.0,-0.1635,-0.1563,-0.0394,-0.1543,-0.1627,0.0,0.0,-0.1507,-0.4095,-0.4173,-0.397,-0.3911,-0.3898,-0.4034,-0.3654,-0.3633,-0.3795,-0.3454,-0.2643,-0.2669,-0.3457,-0.2625,-0.2524,-0.3261,-0.3766,-0.3537,-0.3434,-0.3537,-0.3568,-0.3349,-0.2629,-0.1996,-0.1792,-0.1062,-0.1237,-0.3366,-0.3516,-0.3491,-0.3667,-0.3842,-0.3892,-0.3538,-0.2659,-0.2613,-0.3213,-0.2673,-0.1972,-0.1917,-0.1925,-0.1615,0.0,0.0,0.0,0.0,0.0,0.0,0.0,0.0,0.0,0.0,0.0,0.0,0.0,0.0,0.0,0.0,0.0,0.0,0.0,0.0,0.0,0.0,0.0,0.0,0.0,0.0,0.0,0.0,0.0,0.0,0.0,0.0,0.0,0.0,0.0,0.0,0.0,0.0,0.0,0.0,0.0,0.0,0.0,0.0,0.0,0.0,0.0,0.0,0.0,0.0,0.0,0.0,0.0,0.0,0.0,0.0,0.0,0.0,0.0,0.0,0.0,0.0,0.0,0.0,0.0,-0.0447,-0.0414,-0.0029,0.0,0.0,0.0,0.0,-0.0532,-0.1316,-0.142,-0.1351,0.0,-0.1301,-0.1274,0.0,-0.1246,-0.1252,-0.1208,-0.0896,-0.0722,0.0,0.0,0.0,0.0,0.0,-0.124,-0.1241,0.0,0.0,0.0,0.0,-0.06,-0.0516,-0.0283,0.0,0.0,-0.1234,0.0,0.0,0.0,-0.1234,-0.1234,-0.0857,-0.0857,0.0,0.0,0.0,0.0,0.0,0.0,0.0,0.0,0.0,0.0,0.0,0.0,0.0,0.0,0.0,0.0,0.0,0.0,0.0,0.0,0.0,0.0,0.0,0.0,0.0,0.0,0.0,0.0,0.0,0.0,0.0,0.0527,0.1168,0.0,0.0,0.0,0.0,0.0,0.0,0.0,0.0,0.0,0.0,0.0,0.0,0.0,0.0,0.0,0.0,0.0,0.0,0.0,0.0,0.0,0.0,0.0,0.0,0.0,0.0,0.0,0.0,0.0,0.0,0.0,0.0,0.0,0.0,0.0,0.0,0.0,0.0,0.0,0.0,0.0,0.0,0.0,0.0,0.0,0.0,0.0,0.0,0.0,0.0,0.0,0.0,0.0,0.0,0.0,0.0,0.0,0.0,0.0,0.0,0.0,0.0,0.0,0.0,0.0,0.0,0.0,0.0,0.0,0.0,0.0,0.0,0.0,0.0,0.0,0.0,0.0,0.0,0.0,0.0,0.0,0.0,0.0,0.0,0.0,0.0,0.0,0.0,0.0,0.0,0.0,0.0,0.0,0.0,0.0,0.0,0.0,0.0,0.0,0.0,0.0,0.0,0.0,0.0,0.0,0.0,0.0,0.0,0.0,0.0,0.0,0.0,0.0567,0.1117,0.1847,0.0,0.0,0.0,0.0,0.0,0.0,0.0,0.0,0.0,0.0,0.0,0.0,0.0,0.0,0.0,0.0,0.0,0.0,0.0,0.0,0.0,0.0,0.0,0.0,0.0,0.0,0.0,0.0,0.0,0.0,0.0,0.0,0.0,0.0,0.0,0.0,0.0,0.0,0.0,0.0,0.0,0.0,0.0,0.0,0.0,0.0,0.0,0.0,0.0,0.0,0.0,0.0,0.0,0.0,0.0,0.0,0.0,0.0,0.0,0.0,0.0,0.0,0.0,0.0,0.0,0.0,0.0,0.0,0.0,0.0,0.0,0.0,0.0,0.0,0.0,0.0,0.0,0.0,0.0,0.0,0.0,0.0,0.0,0.0,0.0,0.0,0.0,0.0,0.0,0.0,0.0,0.0,0.0,0.0,0.0,0.0,0.0,0.0,0.0,0.0,0.0,0.0,0.0,0.0,0.0,0.0,0.0,0.0,0.0,0.0,0.0,0.0,0.1222,0.1748,0.2731,0.0,0.0,0.0,0.0,0.0,0.0,0.0,0.0,0.0,0.0,0.0,0.0,0.0,0.0,0.0,0.0,0.0,0.0,0.0,0.0,0.0,0.0,0.0,0.0,0.0,0.0,0.0,0.0,0.0,0.0,0.0,0.0,0.0,0.0,0.0,0.0,0.0,0.0,0.0,0.0,0.0,0.0,0.0,0.0,0.0,0.0,0.0,0.0,0.0,0.0,0.0,0.0,0.0,0.0,0.0,0.0,0.0,0.0,0.0,0.0,0.0,0.0,0.0,0.0,0.0,0.0,0.0,0.0,0.0,0.0,0.0,0.0,0.0,0.0,0.0,0.0,0.0,0.0,0.0,0.0,0.0,0.0,0.0,0.0,0.0,0.0,0.0,0.0,0.0,0.0,0.0,0.0,0.0,0.0,0.0,0.0,0.0,0.0,0.0,0.0,0.0,0.0,0.0,0.0,0.0,0.0,0.0,0.0,0.0,0.0,0.0,0.0,0.0,0.2414,0.36,0.0,0.0,0.0,0.0,0.0,0.0,0.0,0.0,0.0,0.0,0.0,0.0,0.0,0.0,0.0,0.0,0.0,0.0,0.0,0.0,0.0,0.0,0.0,0.0,0.0,0.0,0.0,0.0,0.0,0.0,0.0,0.0,0.0,0.0,0.0,0.0,0.0,0.0,0.0,0.0,0.0,0.0,0.0,0.0,0.0,0.0,0.0,0.0,0.0,0.0,0.0,0.0,0.0,0.0,0.0,0.0,0.0,0.0,0.0,0.0,0.0,0.0,0.0,0.0,0.0,0.0,0.0,0.0,0.0,0.0,0.0,0.0,0.0,0.0,0.0,0.0,0.0,0.0,0.0,0.0,0.0,0.0,0.0,0.0,0.0,0.0,0.0,0.0,0.0,0.0,0.0,0.0,0.0,0.0,0.0,0.0,0.0,0.0,0.0,0.0,0.0,0.0,0.0,0.0,0.0,0.0,0.0,0.0,0.0,0.0,0.0,0.0,0.0,0.3059,0.4283,0.0,0.0,0.0,0.0,0.0,0.0,0.0,0.0,0.0,0.0,0.0,0.0,0.0,0.0,0.0,0.0,0.0,0.0,0.0,0.0,0.0,0.0,0.0,0.0,0.0,0.0,0.0,0.0,0.0,0.0,0.0,0.0,0.0,0.0,0.0,0.0,0.0,0.0,0.0,0.0,0.0,0.0,0.0,0.0,0.0,0.0,0.0,0.0,0.0,0.0,0.0,0.0,0.0,0.0,0.0,0.0,0.0,0.0,0.0,0.0,0.0,0.0,0.0,0.0,0.0,0.0,0.0,0.0,0.0,0.0,0.0,0.0,0.0,0.0,0.0,0.0,0.0,0.0,0.0,0.0,0.0,0.0,0.0,0.0,0.0,0.0,0.0,0.0,0.0,0.0,0.0,0.0,0.0,0.0,0.0,0.0,0.0,0.0,0.0,0.0,0.0,0.0,0.0,0.0,0.0,0.0,0.0,0.0,0.0,0.0,0.0,0.0,0.3107,0.3731,0.4732,0.0,0.0,0.0,0.0,0.0,0.0,0.0,0.0,0.0,0.0,0.0,0.0,0.0,0.0,0.0,0.0,0.0,0.0,0.0,0.0,0.0,0.0,0.0,0.0,0.0,0.0,0.0,0.0,0.0,0.0,0.0,0.0,0.0,0.0,0.0,0.0,0.0,0.0,0.0,0.0,0.0,0.0,0.0,0.0,0.0,0.0,0.0,0.0,0.0,0.0,0.0,0.0,0.0,0.0,0.0,0.0,0.0,0.0,0.0,0.0,0.0,0.0,0.0,0.0,0.0,0.0,0.0,0.0,0.0,0.0,0.0,0.0,0.0,0.0,0.0,0.0,0.0,0.0,0.0,0.0,0.0,0.0,0.0,0.0,0.0,0.0,0.0,0.0,0.0,0.0,0.0,0.0,0.0,0.0,0.0,0.0,0.0,0.0,0.0,0.0,0.0,0.0,0.0,0.0,0.0,0.0,0.0,0.0,0.0,0.0,0.1536,0.2774,0.3863,0.4473,0.5132,0.0,0.0,0.0,0.0,0.0,0.0,0.0,0.0,0.0,0.0,0.0,0.0,0.0,0.0,0.0,0.0,0.0,0.0,0.0,0.0,0.0,0.0,0.0,0.0,0.0,0.0,0.0,0.0,0.0,0.0,0.0,0.0,0.0,0.0,0.0,0.0,0.0,0.0,0.0,0.0,0.0,0.0,0.0,0.0,0.0,0.0,0.0,0.0,0.0,0.0,0.0,0.0,0.0,0.0,0.0,0.0,0.0,0.0,0.0,0.0,0.0,0.0,0.0,0.0,0.0,0.0,0.0,0.0,0.0,0.0,0.0,0.0,0.0,0.0,0.0,0.0,0.0,0.0,0.0,0.0,0.0,0.0,0.0,0.0,0.0,0.0,0.0,0.0,0.0,0.0,0.0,0.0,0.0,0.0,0.0,0.0,0.0,0.0,0.0,0.0,0.0,0.0,0.0,0.0,0.0,0.0,0.0,0.0,0.1318,0.2291,0.317,0.397,0.4603,0.5158,0.5801,0.0,0.0,0.0,0.0,0.0,0.0,0.0,0.0,0.0,0.0,0.0,0.0,0.0,0.0,0.0,0.0,0.0,0.0,0.0,0.0,0.0,0.0,0.0,0.0,0.0,0.0,0.0,0.0,0.0,0.0,0.0,0.0,0.0,0.0,0.0,0.0,0.0,0.0,0.0,0.0,0.0,0.0,0.0,0.0,0.0,0.0,0.0,0.0,0.0,0.0,0.0,0.0,0.0,0.0,0.0,0.0,0.0,0.0,0.0,0.0,0.0,0.0,0.0,0.0,0.0,0.0,0.0,0.0,0.0,0.0,0.0,0.0,0.0,0.0,0.0,0.0,0.0,0.0,0.0,0.0,0.0,0.0,0.0,0.0,0.0,0.0,0.0,0.0,0.0,0.0,0.0,0.0,0.0,0.0,0.0,0.0,0.0,0.0,0.0,0.0,0.2107,0.2154,0.2025,0.143,0.0,0.1562,0.1901,0.2189,0.2872,0.3909,0.4514,0.4979,0.5404,0.5816,0.6457,0.0,0.0,0.0,0.0,0.0,0.0,0.0,0.0,0.0,0.0,0.0,0.0,0.0,0.0,0.0,0.0,0.0,0.0,0.0,0.0,0.0,0.0,0.0,0.0,0.0,0.0,0.0,0.0,0.0,0.0,0.0,0.0,0.0,0.0,0.0,0.0,0.0,0.0,0.0,0.0,0.0,0.0,0.0,0.0,0.0,0.0,0.0,0.0,0.0,0.0,0.0,0.0,0.0,0.0,0.0,0.0,0.0,0.0,0.0,0.0,0.0,0.0,0.0,0.0,0.0,0.0,0.0,0.0,0.0,0.0,0.0,0.0,0.0,0.0,0.0,0.0,0.0,0.0,0.0,0.0,0.0,0.0,0.0,0.0,0.0,0.0,0.0,0.0,0.0,0.0,0.0,0.0,0.0,0.0,0.0,0.0,0.0,0.0,0.0,0.0,0.3463,0.3588,0.3391,0.3341,0.309,0.3152,0.3418,0.3614,0.4326,0.529,0.5625,0.5869,0.6324,0.6772,0.6896,0.0,0.0,0.0,0.0,0.0,0.0,0.0,0.0,0.0,0.0,0.0,0.0,0.0,0.0,0.0,0.0,0.0,0.0,0.0,0.0,0.0,0.0,0.0,0.0,0.0,0.0,0.0,0.0,0.0,0.0,0.0,0.0,0.0,0.0,0.0,0.0,0.0,0.0,0.0,0.0,0.0,0.0,0.0,0.0,0.0,0.0,0.0,0.0,0.0,0.0,0.0,0.0,0.0,0.0,0.0,0.0,0.0,0.0,0.0,0.0,0.0,0.0,0.0,0.0,0.0,0.0,0.0,0.0,0.0,0.0,0.0,0.0,0.0,0.0,0.0,0.0,0.0,0.0,0.0,0.0,0.0,0.0,0.0,0.0,0.0,0.0,0.0,0.0,0.0,0.0,0.0,0.0,0.0,0.0,0.0,0.0,0.2217,0.2565,0.3291,0.4193,0.4843,0.4993,0.5597,0.6002,0.5672,0.4718,0.4868,0.5051,0.5852,0.6528,0.6776,0.7027,0.7382,0.7661,0.7624,0.0,0.0,0.0,0.0,0.0,0.0,0.0,0.0,0.0,0.0,0.0,0.0,0.0,0.0,0.0,0.0,0.0,0.0,0.0,0.0,0.0,0.0,0.0,0.0,0.0,0.0,0.0,0.0,0.0,0.0,0.0,0.0,0.0,0.0,0.0,0.0,0.0,0.0,0.0,0.0,0.0,0.0,0.0,0.0,0.0,0.0,0.0,0.0,0.0,0.0,0.0,0.0,0.0,0.0,0.0,0.0,0.0,0.0,0.0,0.0,0.0,0.0,0.0,0.0,0.0,0.0,0.0,0.0,0.0,0.0,0.0,0.0,0.0,0.0,0.0,0.0,0.0,0.0,0.0,0.0,0.0,0.0,0.0,0.0,0.0,0.0,0.0,0.0,0.0,0.0,0.0,0.0,0.0,0.0,0.0,0.0,0.2205,0.2992,0.4021,0.5147,0.5852,0.6376,0.698,0.731,0.6681,0.5872,0.6151,0.6406,0.6857,0.7347,0.7801,0.7948,0.7871,0.7817,0.777,0.0,0.0,0.0,0.0,0.0,0.0,0.0,0.0,0.0,0.0,0.0,0.0,0.0,0.0,0.0,0.0,0.0,0.0,0.0,0.0,0.0,0.0,0.0,0.0,0.0,0.0,0.0,0.0,0.0,0.0,0.0,0.0,0.0,0.0,0.0,0.0,0.0,0.0,0.0,0.0,0.0,0.0,0.0,0.0,0.0,0.0,0.0,0.0,0.0,0.0,0.0,0.0,0.0,0.0,0.0,0.0,0.0,0.0,0.0,0.0,0.0,0.0,0.0,0.0,0.0,0.0,0.0,0.0,0.0,0.0,0.0,0.0,0.0,0.0,0.0,0.0,0.0,0.0,0.0,0.0,0.0,0.0,0.0,0.0,0.0,0.0,0.0,0.0,0.0,0.0,0.0,0.0,0.0,0.0,0.0,0.0,0.2974,0.3745,0.488,0.6117,0.6709,0.7297,0.7509,0.7633,0.7104,0.6955,0.7129,0.7409,0.7764,0.7864,0.7963,0.7988,0.7975,0.7934,0.7905,0.0,0.0,0.0,0.0,0.0,0.0,0.0,0.0,0.0,0.0,0.0,0.0,0.0,0.0,0.0,0.0,0.0,0.0,0.0,0.0,0.0,0.0,0.0,0.0,0.0,0.0,0.0,0.0,0.0,0.0,0.0,0.0,0.0,0.0,0.0,0.0,0.0,0.0,0.0,0.0,0.0,0.0,0.0,0.0,0.0,0.0,0.0,0.0,0.0,0.0,0.0,0.0,0.0,0.0,0.0,0.0,0.0,0.0,0.0,0.0,0.0,0.0,0.0,0.0,0.0,0.0,0.0,0.0,0.0,0.0,0.0,0.0,0.0,0.0,0.0,0.0,0.0,0.0,0.0,0.0,0.0,0.0,0.0,0.0,0.0,0.0,0.0,0.0,0.0,0.0,0.0,0.0,0.0,0.0,0.0,0.4096,0.4646,0.5385,0.6113,0.7165,0.7629,0.8057,0.8088,0.804,0.769,0.7715,0.7988,0.7963,0.7914,0.7939,0.7988,0.7988,0.7988,0.7982,0.7939,0.0,0.0,0.0,0.0,0.0,0.0,0.0,0.0,0.0,0.0,0.0,0.0,0.0,0.0,0.0,0.0,0.0,0.0,0.0,0.0,0.0,0.0,0.0,0.0,0.0,0.131,0.0,0.0,0.0,0.0,0.0,0.0,0.0,0.0,0.0,0.0,0.0,0.0,0.0,0.0,0.0,0.0,0.0,0.0,0.0,0.1361,0.1357,0.0,0.0,0.0,0.0,0.0,0.0,0.0,0.0,0.0,0.0,0.0,0.0,0.0,0.0,0.0493,0.052,0.0,0.0,0.0,0.0,0.0,0.0,0.0,0.0,0.0,0.0,0.0,0.0,0.0,0.0,0.0,0.0,0.0,0.0,0.0,0.0,0.0,0.0,0.0,0.0,0.0924,0.1482,0.2097,0.2457,0.2811,0.3243,0.3972,0.432,0.5094,0.591,0.6667,0.7393,0.789,0.8166,0.823,0.8214,0.8135,0.8067,0.8033,0.804,0.8002,0.7988,0.7988,0.7988,0.7988,0.7988,0.7988,0.7968,0.0,0.0,0.0,0.0,0.0,0.0,0.0,0.0,0.0,0.0,0.0,0.0,0.0,0.0,0.0,0.0,0.0,0.0,0.0,0.0,0.0,0.0,0.2129,0.2764,0.3227,0.4372,0.4227,0.4359,0.476,0.4057,0.2618,0.0,0.0,0.0,0.0,0.0,0.1516,0.2509,0.3568,0.4359,0.4426,0.4481,0.4548,0.4633,0.4822,0.5011,0.4942,0.4386,0.3689,0.2586,0.3329,0.3387,0.2525,0.2341,0.2299,0.2132,0.1368,0.0,0.0,0.0,0.0,0.1718,0.1942,0.1257,0.0,0.0,0.0,0.0,0.0,0.0,0.0,0.0,0.0,0.0,0.0,0.0,0.0,0.0,0.0,0.0,0.0914,0.1843,0.256,0.2973,0.2433,0.179,0.2265,0.2768,0.3271,0.3798,0.4108,0.438,0.4495,0.4733,0.4698,0.5441,0.6482,0.6966,0.7479,0.7962,0.8314,0.8326,0.8323,0.8255,0.8187,0.8133,0.8054,0.8008,0.7988,0.7988,0.7988,0.7988,0.7988,0.7988,0.7988,0.0,0.0,0.1238,0.1093,0.0,0.0,0.0,0.0,0.0,0.076,0.184,0.298,0.3582,0.3502,0.3546,0.3572,0.3568,0.0,0.3431,0.3564,0.0,0.4038,0.4531,0.4607,0.4876,0.5559,0.5561,0.5399,0.5265,0.5767,0.4964,0.3591,0.3323,0.0,0.0,0.3056,0.3692,0.4151,0.5009,0.5429,0.5399,0.5399,0.5399,0.5392,0.5412,0.5388,0.5304,0.5284,0.4798,0.4576,0.4862,0.4592,0.4186,0.4027,0.3982,0.396,0.3076,0.278,0.2327,0.1281,0.0384,0.0617,0.0938,0.1148,0.1328,0.1472,0.2158,0.0,0.2681,0.2359,0.0,0.0,0.0,0.0,0.1933,0.2051,0.2044,0.2063,0.2316,0.2348,0.2888,0.368,0.433,0.4946,0.4145,0.3438,0.4052,0.4609,0.5083,0.5445,0.5723,0.6033,0.6172,0.6533,0.6568,0.6882,0.7224,0.7421,0.7689,0.8095,0.8514,0.8466,0.8444,0.8369,0.8287,0.8187,0.8094,0.804,0.7988,0.7988,0.7988,0.7988,0.7988,0.7988,0.7988,0.0,0.0,0.1493,0.1602,0.0947,0.1494,0.1712,0.171,0.0,0.2423,0.3866,0.5252,0.5812,0.5791,0.5725,0.5623,0.5434,0.5473,0.5626,0.5556,0.5453,0.6095,0.6407,0.6676,0.6837,0.6945,0.7087,0.7248,0.7369,0.7069,0.7069,0.7069,0.6894,0.6543,0.53,0.5973,0.6165,0.6212,0.6789,0.6931,0.7102,0.7136,0.7169,0.7236,0.7327,0.7327,0.7393,0.7374,0.6785,0.6441,0.6351,0.6261,0.5898,0.5621,0.5651,0.5498,0.5215,0.5011,0.4322,0.3701,0.193,0.2236,0.2685,0.2717,0.2442,0.2501,0.2586,0.2629,0.3421,0.4313,0.4487,0.4013,0.4099,0.3448,0.3694,0.378,0.3656,0.3643,0.4039,0.4333,0.4943,0.5433,0.5904,0.6516,0.6499,0.5656,0.5445,0.6061,0.67,0.7038,0.726,0.7593,0.787,0.8318,0.8788,0.8372,0.7992,0.8129,0.833,0.8446,0.8689,0.8615,0.8532,0.8444,0.8355,0.8235,0.8147,0.8033,0.7988,0.7988,0.7988,0.7988,0.7988,0.7988,0.7988,0.0,0.0,0.0365,0.1457,0.3127,0.483,0.5337,0.5078,0.5353,0.5541,0.5766,0.6177,0.6315,0.6351,0.6769,0.6797,0.6725,0.6505,0.6497,0.6705,0.7016,0.7317,0.7974,0.8579,0.8876,1.037,1.0099,0.9716,1.0087,0.9682,0.9915,0.9981,0.9437,0.8657,0.5948,0.715,0.79,0.8182,0.9561,0.9869,0.9881,0.9782,0.9742,0.9709,0.9643,0.9543,0.948,0.9446,0.8794,0.806,0.8698,0.8471,0.7531,0.7393,0.7352,0.7332,0.6018,0.5341,0.5089,0.6318,0.5832,0.444,0.4434,0.4865,0.3305,0.2729,0.3056,0.3819,0.3429,0.3495,0.3597,0.4242,0.5008,0.5161,0.5406,0.5529,0.5395,0.5697,0.6198,0.6434,0.6727,0.7114,0.7555,0.799,0.8464,0.8109,0.7304,0.7399,0.7986,0.818,0.8269,0.838,0.8629,0.8712,0.8912,0.8912,0.8782,0.8899,0.8885,0.8838,0.8811,0.8784,0.8662,0.8539,0.8403,0.8262,0.8121,0.7988,0.7988,0.7988,0.7988,0.7988,0.7988,0.7988,0.7988,0.3974,0.4084,0.5369,0.6217,0.646,0.4573,0.4576,0.5913,0.7041,0.7711,0.8043,0.8951,0.9651,0.9657,0.9435,0.9363,0.9471,0.9651,0.9657,0.9507,0.9363,0.9922,1.0387,1.024,1.0534,1.0851,1.0934,1.0779,1.0552,1.0738,1.0724,1.0684,1.0651,1.0094,0.9323,0.9641,0.9812,0.9852,1.0399,1.0651,1.0717,1.0717,1.0717,1.0717,1.0717,1.0717,1.0717,1.0643,1.0123,0.9477,1.0183,0.9785,0.9082,0.8971,0.8965,0.8964,0.8136,0.8197,0.8191,0.8575,0.7539,0.6315,0.559,0.6137,0.5525,0.5708,0.5861,0.6014,0.5892,0.6503,0.7764,0.7856,0.8069,0.7179,0.7149,0.7332,0.7449,0.8063,0.8557,0.8612,0.881,0.8551,0.8728,0.8652,0.9025,0.9123,0.8283,0.81,0.8525,0.8629,0.8685,0.8712,0.8823,0.885,0.8912,0.8912,0.8912,0.8906,0.8906,0.8892,0.8872,0.8858,0.873,0.8566,0.8437,0.8282,0.8128,0.8002,0.7988,0.7988,0.7995,0.8054,0.8088,0.806,0.7988,0.5916,0.6063,0.7275,0.8188,0.8343,0.6673,0.6713,0.7946,0.9141,0.9718,0.9975,1.1067,1.1476,1.1512,1.1584,1.1584,1.1584,1.1584,1.1548,1.1584,1.1548,1.139,1.1346,1.1382,1.1147,1.12,1.1016,1.0867,1.0786,1.0772,1.0738,1.0731,1.0724,1.0545,1.0472,1.0505,1.0571,1.0538,1.0717,1.0717,1.0717,1.0717,1.0717,1.0717,1.0717,1.0717,1.0717,1.0697,1.0656,1.0548,1.046,1.0378,1.017,1.0082,1.0049,1.0005,0.9893,0.9767,0.9653,0.9603,0.852,0.7271,0.663,0.6813,0.7332,0.6991,0.7027,0.7515,0.8775,0.8927,0.8958,0.9207,0.942,0.8465,0.8495,0.8653,0.8775,0.9329,0.9451,0.9654,0.9687,0.9595,0.953,0.939,0.9339,0.9279,0.9141,0.9054,0.8953,0.8946,0.8953,0.8953,0.894,0.894,0.8926,0.8912,0.8912,0.8912,0.8912,0.8912,0.8899,0.8872,0.873,0.8587,0.8472,0.8343,0.8128,0.8015,0.8088,0.8081,0.8047,0.8094,0.818,0.8126,0.7995,0.6032,0.5956,0.5993,0.7263,0.8925,1.0305,1.1181,1.144,1.1476,1.1476,1.1548,1.1469,1.1584,1.1584,1.1584,1.1584,1.1584,1.1584,1.1584,1.1584,1.1584,1.1584,1.1565,1.145,1.1362,1.1349,1.1199,1.1016,1.0928,1.0921,1.088,1.0799,1.0812,1.0812,1.0806,1.0806,1.0778,1.0744,1.0725,1.0711,1.0698,1.0717,1.0717,1.0717,1.0717,1.0717,1.0717,1.0711,1.0643,1.0568,1.0507,1.0419,1.0337,1.0322,1.0315,1.0229,1.0082,0.9974,0.9886,0.9903,0.9764,0.894,0.9214,0.8745,0.816,0.7881,0.782,0.7545,0.7947,0.7911,0.7911,0.8867,0.9761,0.9511,0.9542,0.9572,0.9603,0.9731,0.9731,0.9778,0.9778,0.9717,0.9713,0.9639,0.9483,0.9435,0.9347,0.9218,0.9095,0.9041,0.9076,0.9034,0.9014,0.8973,0.8967,0.9015,0.9001,0.9022,0.8926,0.8906,0.8899,0.8872,0.8737,0.8642,0.8554,0.8418,0.8269,0.8228,0.8281,0.8214,0.814,0.814,0.8201,0.8088,0.7988,1.0073,1.0073,1.0073,1.0353,1.0822,1.1368,1.1584,1.1584,1.1584,1.1584,1.1584,1.1584,1.1647,1.1584,1.1584,1.1584,1.1584,1.1584,1.1584,1.1584,1.1597,1.159,1.1565,1.1484,1.1416,1.1348,1.1295,1.1193,1.1111,1.1097,1.1118,1.1084,1.0995,1.1002,1.1009,1.1063,1.0894,1.0772,1.0792,1.0759,1.0711,1.0717,1.0717,1.0717,1.0717,1.0717,1.0717,1.0717,1.067,1.0656,1.0649,1.0582,1.0453,1.0426,1.0405,1.029,1.0229,1.0188,1.0134,1.0046,0.9954,0.9927,0.9873,0.97,0.9207,0.8879,0.8629,0.8343,0.8221,0.8526,0.8647,0.9299,0.9792,0.9792,0.9792,0.9792,0.9792,0.9792,0.9792,0.9792,0.9792,0.9785,0.9765,0.972,0.9585,0.9564,0.9503,0.9381,0.9279,0.9225,0.9178,0.9171,0.9178,0.9157,0.9157,0.9206,0.9158,0.9117,0.9008,0.8912,0.8892,0.8845,0.8757,0.8703,0.8621,0.8526,0.8444,0.8417,0.8389,0.8315,0.8247,0.8214,0.8187,0.8074,0.7988,1.1712,1.1719,1.1773,1.1809,1.1789,1.1728,1.1665,1.1665,1.1665,1.1701,1.1678,1.1775,1.1762,1.1714,1.1671,1.1644,1.1584,1.1584,1.1584,1.159,1.1638,1.166,1.1599,1.1531,1.1504,1.143,1.1348,1.1302,1.1274,1.1213,1.1186,1.1179,1.12,1.12,1.1179,1.1152,1.1016,1.0887,1.084,1.0806,1.0745,1.0717,1.0717,1.0717,1.0717,1.0717,1.0717,1.0717,1.0717,1.0717,1.0717,1.0683,1.0588,1.0575,1.0514,1.0405,1.0365,1.0317,1.0256,1.0188,1.0123,1.0089,1.0021,1.0001,0.9889,0.9617,0.9557,0.9451,0.9603,0.9731,0.9761,0.9792,0.9792,0.9792,0.9792,0.9792,0.9792,0.9792,0.9792,0.9792,0.9792,0.9792,0.9758,0.972,0.9693,0.9693,0.968,0.9632,0.9503,0.9395,0.9334,0.93,0.932,0.9327,0.9362,0.9328,0.924,0.9152,0.9008,0.8926,0.8899,0.8858,0.8804,0.8743,0.8703,0.8615,0.8533,0.8498,0.8457,0.8376,0.8267,0.8167,0.8101,0.806,0.802,1.1597,1.1624,1.1753,1.1932,1.2064,1.1884,1.1786,1.1793,1.1786,1.1793,1.1813,1.1986,1.1965,1.1864,1.185,1.1796,1.1748,1.1728,1.1701,1.1611,1.1712,1.1742,1.1647,1.1577,1.1543,1.1552,1.1504,1.1409,1.1375,1.1328,1.1308,1.1234,1.1268,1.1295,1.1308,1.1261,1.1131,1.0975,1.0901,1.0846,1.0765,1.0717,1.0717,1.0717,1.0717,1.0717,1.0717,1.0717,1.0717,1.0717,1.0717,1.0684,1.0704,1.069,1.0609,1.0568,1.0514,1.0466,1.0399,1.0331,1.0304,1.029,1.0315,1.0261,1.0127,0.9961,0.9879,0.9839,0.9839,0.9846,0.9846,0.9819,0.9798,0.9812,0.9825,0.9812,0.9792,0.9792,0.9792,0.9792,0.9792,0.9792,0.9785,0.9731,0.9724,0.9758,0.9758,0.9737,0.9707,0.9564,0.951,0.9456,0.9496,0.9517,0.9469,0.9415,0.9301,0.9192,0.9062,0.894,0.8912,0.8885,0.8858,0.8811,0.877,0.8703,0.8655,0.8601,0.8506,0.8389,0.8248,0.8088,0.8033,0.8027,0.802,1.1681,1.1789,1.1945,1.207,1.2077,1.1898,1.18,1.1793,1.1793,1.1807,1.1864,1.1986,1.2084,1.203,1.1986,1.1945,1.1911,1.185,1.1864,1.1816,1.18,1.1766,1.1624,1.1667,1.1604,1.1577,1.1579,1.1586,1.1572,1.1531,1.1504,1.1504,1.1491,1.1484,1.145,1.1389,1.124,1.1118,1.0975,1.0874,1.0792,1.0738,1.0717,1.0717,1.0717,1.0717,1.0717,1.0717,1.0717,1.0717,1.0717,1.0717,1.0717,1.0717,1.0671,1.0637,1.0643,1.0609,1.0568,1.0493,1.0446,1.0405,1.0371,1.0342,1.0247,1.0042,0.9961,0.9927,0.9913,0.992,0.9913,0.9866,0.9876,0.9866,0.9879,0.9846,0.9812,0.9805,0.9798,0.9792,0.9792,0.9792,0.9792,0.9792,0.9792,0.9785,0.9785,0.9778,0.9771,0.969,0.97,0.9666,0.9707,0.9707,0.9646,0.9544,0.9437,0.9328,0.9205,0.9089,0.894,0.8899,0.8879,0.8865,0.8831,0.8798,0.8743,0.8696,0.8615,0.8464,0.8342,0.8194,0.8067,0.8033,0.8002,1.1665,1.182,1.2074,1.2203,1.2223,1.2101,1.2033,1.204,1.2033,1.2033,1.204,1.2152,1.2166,1.2111,1.2098,1.1986,1.1945,1.1932,1.1877,1.1813,1.1938,1.1854,1.1786,1.1769,1.1762,1.1748,1.1803,1.1823,1.1782,1.1809,1.1803,1.1692,1.1671,1.1651,1.159,1.1477,1.1362,1.1267,1.1118,1.0995,1.0873,1.0812,1.0731,1.0717,1.0724,1.0731,1.0717,1.0717,1.0717,1.0717,1.0717,1.0717,1.0717,1.0717,1.0717,1.0711,1.0711,1.0717,1.0671,1.0656,1.0595,1.0555,1.0534,1.0507,1.0487,1.0326,1.0215,1.0175,1.0127,1.0127,1.0127,1.01,1.01,1.0114,1.01,1.0066,0.9967,0.992,0.9866,0.9792,0.9792,0.9792,0.9792,0.9792,0.9792,0.9792,0.9792,0.9792,0.9792,0.9792,0.9792,0.9792,0.9792,0.9785,0.9724,0.9659,0.9551,0.9449,0.9369,0.924,0.9089,0.896,0.8906,0.8906,0.8906,0.8892,0.8845,0.877,0.8662,0.8486,0.841,0.8303,0.8169,0.8081,0.8108,1.1714,1.1854,1.2189,1.2386,1.2467,1.2345,1.2277,1.2271,1.2257,1.2257,1.2264,1.2271,1.221,1.2155,1.2145,1.1932,1.1884,1.2047,1.1949,1.1999,1.2162,1.2047,1.1979,1.2002,1.1925,1.1904,1.1925,1.1952,1.1945,1.1965,1.1938,1.1857,1.1786,1.1766,1.166,1.1525,1.1423,1.1369,1.1267,1.12,1.1077,1.0928,1.0846,1.0799,1.0772,1.0745,1.0778,1.0778,1.0785,1.0799,1.0826,1.0833,1.0833,1.0846,1.0833,1.0839,1.0846,1.0839,1.0806,1.0752,1.0725,1.0711,1.0738,1.0704,1.067,1.0588,1.0446,1.041,1.0363,1.0315,1.0322,1.0308,1.0308,1.0322,1.027,1.0229,1.0116,0.9997,0.9934,0.9832,0.9812,0.9812,0.9798,0.9798,0.9792,0.9792,0.9792,0.9792,0.9792,0.9792,0.9792,0.9792,0.9792,0.9785,0.9785,0.9724,0.9652,0.9564,0.9456,0.9356,0.9226,0.9117,0.8994,0.8912,0.8912,0.8912,0.8858,0.8777,0.8662,0.854,0.8478,0.8403,0.8316,0.8255,0.8308,1.1775,1.2084,1.2338,1.2474,1.2481,1.2352,1.2291,1.2271,1.2207,1.2207,1.2277,1.2305,1.2318,1.2413,1.242,1.2298,1.2162,1.2244,1.225,1.2264,1.2277,1.2169,1.2081,1.2111,1.2084,1.2064,1.1986,1.1898,1.2013,1.2091,1.1986,1.1807,1.1972,1.1972,1.1932,1.1769,1.1592,1.1538,1.1382,1.1281,1.124,1.1159,1.1138,1.1111,1.1111,1.1111,1.1118,1.1111,1.1111,1.1111,1.1091,1.1077,1.1063,1.1057,1.1016,1.1002,1.1009,1.1016,1.0989,1.0914,1.0846,1.0826,1.0786,1.0717,1.0697,1.0697,1.0595,1.0568,1.0507,1.0412,1.0392,1.0344,1.0337,1.0385,1.0392,1.0324,1.0256,1.013,1.0028,0.994,0.9879,0.9852,0.9819,0.9812,0.9792,0.9792,0.9792,0.9792,0.9792,0.9792,0.9792,0.9792,0.9792,0.9792,0.9792,0.9785,0.9734,0.9659,0.9557,0.9444,0.9315,0.9206,0.9111,0.8946,0.8912,0.8912,0.8845,0.8804,0.8743,0.8635,0.856,0.8478,0.8404,0.8404,0.8431]},{"header":{"parameterUnit":"m.s-1","parameterCategory":1,"la1":31.0,"la2":29.5877,"lo1":-88.7671,"lo2":-86.6584,"dy":0.0162,"dx":0.0185,"nx":115,"ny":88,"refTime":"2023-04-22T00:00:00:Z","depth":0,"parameterNumber":3,"parameterNumberName":"V-component_of_WINDS"},"data":[0.0,0.0,0.0,0.0,0.0,0.0,0.0,0.0,0.0,0.0,0.0,0.0,0.0,0.0,0.0,0.0,0.0,0.0,0.0,0.0,0.0,0.0,0.0,0.0,0.0,0.0,0.0,0.0,0.0,0.0,0.0,0.0,0.0,0.0,0.0,0.0,0.0,0.0,0.0,0.0,0.0,0.0,0.0,0.0,0.0,0.0,0.0,0.0,0.0,0.0,0.0,0.0,0.0,0.0,0.0,0.0,0.0,0.0,0.0,0.0,0.0,0.0,0.0,0.0,0.0,0.0,0.0,0.0,0.0,0.0,0.0,0.0,0.0,0.0,0.0,0.0,0.0,0.0,0.0,0.0,0.0,0.0,0.0,0.0,0.0,0.0,0.0,0.0,0.0,0.0,0.0,0.0,0.0,0.0,0.0,0.0,0.0,0.0,0.0,0.0,0.0,0.0,0.0,0.0,0.0,0.0,0.0,0.0,0.0,0.0,0.0,0.0,0.0,0.0,0.0,0.0,0.0,0.0,0.0,0.0,0.0,0.0,0.0,0.0,0.0,0.0,0.0,0.0,0.0,0.0,0.0,0.0,0.0,0.0,0.0,0.0,0.0,0.0,0.0,0.0,0.0,0.0,0.0,0.0,0.0,0.0,0.0,0.0,0.0,0.0,0.0,0.0,0.0,0.0,0.0,0.0,0.0,0.0,0.0,0.0,0.0,0.0,0.0,0.0,0.0,0.0,0.0,0.0,0.0,0.0,0.0,0.0,0.0,0.0,0.0,0.0,0.0,0.0,0.0,0.0,0.0,0.0,0.0,0.0,0.0,0.0,0.0,0.0,0.0,0.0,0.0,0.0,0.0,0.0,0.0,0.0,0.0,0.0,0.0,0.0,0.0,0.0,0.0,0.0,0.0,0.0,0.0,0.0,0.0,0.0,0.0,0.0,0.0,0.0,0.0,0.0,0.0,0.0,0.0,0.0,0.0,0.0,0.0,0.0,0.0,0.0,0.0,0.0,0.0,0.0,0.0,0.0,0.0,0.0,0.0,0.0,0.0,0.0,0.0,0.0,0.0,0.0,0.0,0.0,0.0,0.0,0.0,0.0,0.0,0.0,0.0,0.0,0.0,0.0,0.0,0.0,0.0,0.0,0.0,0.0,0.0,0.0,0.0,0.0,0.0,0.0,0.0,0.0,0.0,0.0,0.0,0.0,0.0,0.0,0.0,0.0,0.0,0.0,0.0,0.0,0.0,0.0,0.0,0.0,0.0,0.0,0.0,0.0,0.0,0.0,0.0,0.0,0.0,0.0,0.0,0.0,0.0,0.0,0.0,0.0,0.0,0.0,0.0,0.0,0.0,0.0,0.0,0.0,0.0,0.0,0.0,0.0,0.0,0.0,0.0,0.0,0.0,0.0,0.0,0.0,0.0,0.0,0.0,0.0,0.0,0.0,0.0,0.0,0.0,0.0,0.0,0.0,0.0,0.0,0.0,0.0,0.0,0.0,0.0,0.0,0.0,0.0,0.0,0.0,0.0,0.0,0.0,0.0,0.0,0.0,0.0,0.0,0.0,0.0,0.0,0.0,0.0,0.0,0.0,0.0,0.0,0.0,0.0,0.0,0.0,0.0,0.0,0.0,0.0,0.0,0.0,0.0,0.0,0.0,0.0,0.0,0.0,0.0,0.0,0.0,0.0,0.0,0.0,0.0,0.0,0.0,0.0,0.0,0.0,0.0,0.0,0.0,0.0,0.0,0.0,0.0,0.0,0.0,0.0,0.0,0.0,0.0,0.0,0.0,0.0,0.0,0.0,0.0,0.0,0.0,0.0,0.0,0.0,0.0,0.0,0.0,0.0,0.0,0.0,0.0,0.0,0.0,0.0,0.0,0.0,0.0,0.0,0.0,0.0,0.0,0.0,0.0,0.0,0.0,0.0,0.0,0.0,0.0,0.0,0.0,0.0,0.0,0.0,0.0,0.0,0.0,0.0,0.0,0.0,0.0,0.0,0.0,0.0,0.0,0.0,0.0,0.0,0.0,0.0,0.0,0.0,0.0,0.0,0.0,0.0,0.0,0.0,0.0,0.0,0.0,0.0,0.0,0.0,0.0,0.0,0.0,0.0,0.0,0.0,0.0,0.0,0.0,0.0,0.0,0.0,0.0,0.0,0.0,0.0,0.0,0.0,0.0,0.0,0.0,0.0,0.0,0.0,0.0,0.0,0.0,0.0,0.0,0.0,0.0,0.0,0.0,0.0,0.0,0.0,0.0,0.0,0.0,0.0,0.0,0.0,0.0,0.0,0.0,0.0,0.0,0.0,0.0,0.0,0.0,0.0,0.0,0.0,0.0,0.0,0.0,0.0,0.0,0.0,0.0,0.0,0.0,0.0,0.0,0.0,0.0,0.0,0.0,0.0,0.0,0.0,0.0,0.0,0.0,0.0,0.0,0.0,0.0,0.0,0.0,0.0,0.0,0.0,0.0,0.0,0.0,0.0,0.0,0.0,0.0,0.0,0.0,0.0,0.0,0.0,0.0,0.0,0.0,0.0,0.0,0.0,0.0,0.0,0.0,0.0,0.0,0.0,0.0,0.0,0.0,0.0,0.0,0.0,0.0,0.0,0.0,0.0,0.0,0.0,0.0,0.0,0.0,0.0,0.0,0.0,0.0,0.0,0.0,0.0,0.0,0.0,0.0,0.0,0.0,0.0,0.0,0.0,0.0,0.0,0.0,0.0,0.0,0.0,0.0,0.0,0.0,0.0,0.0,0.0,0.0,0.0,0.0,0.0,0.0,0.0,0.0,0.0,0.0,0.0,0.0,0.0,0.0,0.0,0.0,0.0,0.0,0.0,0.0,0.0,0.0,0.0,0.0,0.0,0.0,0.0,0.0,0.0,0.0,0.0,0.0,0.0,0.0,0.0,0.0,0.0,0.0,0.0,0.0,0.0,0.0,0.0,0.0,0.0,0.0,0.0,0.0,0.0,0.0,0.0,0.0,0.0,0.0,0.0,0.0,0.0,0.0,0.0,0.0,0.0,0.0,0.0,0.0,0.0,0.0,0.0,0.0,0.0,0.0,0.0,0.0,0.0,0.0,0.0,0.0,0.0,0.0,0.0,0.0,0.0,0.0,0.0,0.0,0.0,0.0,0.0,0.0,0.0,0.0,0.0,0.0,0.0,0.0,0.0,0.0,0.0,0.0,0.0,0.0,0.0,0.0,0.0,0.0,0.0,0.0,0.0,0.0,0.0,0.0,0.0,0.0,0.0,0.0,0.0,0.0,0.0,0.0,0.0,0.0,0.0,0.0,0.0,0.0,0.0,0.0,0.0,0.0,0.0,0.0,0.0,0.0,0.0,0.0,0.0,0.0,0.0,0.0,0.0,0.0,0.0,0.0,0.0,0.0,0.0,0.0,0.0,0.0,0.0,0.0,0.0,0.0,0.0,0.0,0.0,0.0,0.0,0.0,0.0,0.0,0.0,0.0,0.0,0.0,0.0,0.0,0.0,0.0,0.0,0.0,0.0,0.0,0.0,0.0,0.0,0.0,0.0,0.0,0.0,0.0,0.0,0.0,0.0,0.0,0.0,0.0,0.0,0.0,0.0,0.0,0.0,0.0,0.0,0.0,0.0,0.0,0.0,0.0,0.0,0.0,0.0,0.0,0.0,0.0,0.0,0.0,0.0,0.0,0.0,0.0,0.0,0.0,0.0,0.0,0.0,0.0,0.0,0.0,0.0,0.0,0.0,0.0,0.0,0.0,0.0,0.0,0.0,0.0,0.0,0.0,0.0,0.0,0.0,0.0,0.0,0.0,0.0,0.0,0.0,0.0,0.0,0.0,0.0,0.0,0.0,0.0,0.0,0.0,0.0,0.0,0.0,0.0,0.0,0.0,0.0,0.0,0.0,0.0,0.0,0.0,0.0,0.0,0.0,0.0,0.0,0.0,0.0,0.0,0.0,0.0,0.0,0.0,0.0,0.0,0.0,0.0,0.0,0.0,0.0,0.0,0.0,0.0,0.0,0.0,0.0,0.0,0.0,0.0,0.0,0.0,0.0,0.0,0.0,0.0,0.0,0.0,0.0,0.0,0.0,0.0,0.0,0.0,0.0,0.0,0.0,0.0,0.0,0.0,0.0,0.0,0.0,0.0,0.0,0.0,0.0,0.0,0.0,0.0,0.0,0.0,0.0,0.0,0.0,0.0,0.0,0.0,0.0,0.0,0.0,0.0,0.0,0.0,0.0,0.0,0.0,0.0,0.0,0.0,0.0,0.0,0.0,0.0,0.0,0.0,2.1458,0.0,0.0,0.0,0.0,0.0,0.0,0.0,0.0,0.0,0.0,0.0,0.0,0.0,0.0,0.0,0.0,0.0,0.0,0.0,0.0,0.0,0.0,0.0,0.0,0.0,0.0,0.0,0.0,0.0,0.0,0.0,0.0,0.0,0.0,0.0,0.0,0.0,0.0,0.0,0.0,0.0,0.0,0.0,0.0,0.0,0.0,0.0,0.0,0.0,0.0,0.0,0.0,0.0,0.0,0.0,0.0,0.0,0.0,0.0,0.0,0.0,0.0,0.0,0.0,0.0,0.0,0.0,0.0,0.0,0.0,0.0,0.0,0.0,0.0,0.0,0.0,0.0,0.0,0.0,0.0,0.0,0.0,0.0,0.0,0.0,0.0,0.0,0.0,0.0,0.0,0.0,0.0,0.0,0.0,0.0,0.0,0.0,0.0,0.0,0.0,0.0,0.0,0.0,0.0,0.0,0.0,0.0,0.0,0.0,0.0,2.4696,2.4274,2.3178,2.2568,2.2424,0.0,0.0,0.0,0.0,0.0,0.0,0.0,0.0,0.0,0.0,0.0,0.0,0.0,0.0,0.0,0.0,0.0,0.0,0.0,0.0,0.0,0.0,0.0,0.0,0.0,0.0,0.0,0.0,0.0,0.0,0.0,0.0,0.0,0.0,0.0,0.0,0.0,0.0,0.0,0.0,0.0,0.0,0.0,0.0,0.0,0.0,0.0,0.0,0.0,0.0,0.0,0.0,0.0,0.0,0.0,0.0,0.0,0.0,0.0,0.0,0.0,0.0,0.0,0.0,0.0,0.0,0.0,0.0,0.0,0.0,0.0,0.0,0.0,0.0,0.0,0.0,0.0,0.0,0.0,0.0,0.0,0.0,0.0,0.0,0.0,0.0,0.0,0.0,0.0,0.0,0.0,0.0,0.0,0.0,0.0,0.0,0.0,0.0,0.0,0.0,0.0,0.0,0.0,0.0,0.0,0.0,0.0,0.0,0.0,0.0,0.0,0.0,2.4468,2.3674,2.3339,0.0,0.0,0.0,0.0,0.0,0.0,0.0,0.0,0.0,0.0,0.0,0.0,0.0,0.0,0.0,0.0,0.0,0.0,0.0,0.0,0.0,0.0,0.0,0.0,0.0,0.0,0.0,0.0,0.0,0.0,0.0,0.0,0.0,0.0,0.0,0.0,0.0,0.0,0.0,0.0,0.0,0.0,0.0,0.0,0.0,0.0,0.0,0.0,0.0,0.0,0.0,0.0,0.0,0.0,0.0,0.0,0.0,0.0,0.0,0.0,0.0,0.0,0.0,0.0,0.0,0.0,0.0,0.0,0.0,0.0,0.0,0.0,0.0,0.0,0.0,0.0,0.0,0.0,0.0,0.0,0.0,0.0,0.0,0.0,0.0,0.0,0.0,0.0,0.0,0.0,0.0,0.0,0.0,0.0,0.0,0.0,0.0,0.0,0.0,0.0,0.0,0.0,0.0,0.0,0.0,0.0,0.0,0.0,0.0,0.0,2.6159,2.6121,2.5372,0.0,2.4037,0.0,0.0,0.0,0.0,0.0,0.0,0.0,0.0,0.0,0.0,0.0,0.0,0.0,0.0,0.0,0.0,0.0,0.0,0.0,0.0,0.0,0.0,0.0,0.0,0.0,0.0,0.0,0.0,0.0,0.0,0.0,0.0,0.0,0.0,0.0,0.0,0.0,0.0,0.0,0.0,0.0,0.0,0.0,0.0,0.0,0.0,0.0,0.0,0.0,0.0,0.0,0.0,0.0,0.0,0.0,0.0,0.0,0.0,0.0,0.0,0.0,0.0,0.0,0.0,0.0,0.0,0.0,0.0,0.0,0.0,0.0,0.0,0.0,0.0,0.0,0.0,0.0,0.0,0.0,0.0,0.0,0.0,0.0,0.0,0.0,0.0,0.0,0.0,0.0,0.0,0.0,0.0,0.0,0.0,0.0,0.0,0.0,0.0,0.0,0.0,0.0,0.0,0.0,0.0,0.0,0.0,0.0,0.0,0.0,0.0,2.6983,2.6925,2.6149,2.5288,0.0,0.0,0.0,0.0,0.0,0.0,0.0,0.0,0.0,0.0,0.0,0.0,0.0,0.0,0.0,0.0,0.0,0.0,0.0,0.0,0.0,0.0,0.0,0.0,0.0,0.0,0.0,0.0,0.0,0.0,0.0,0.0,0.0,0.0,0.0,0.0,0.0,0.0,0.0,0.0,0.0,0.0,0.0,0.0,0.0,0.0,0.0,0.0,0.0,0.0,0.0,0.0,0.0,0.0,0.0,0.0,0.0,0.0,0.0,0.0,0.0,0.0,0.0,0.0,0.0,0.0,0.0,0.0,0.0,0.0,0.0,0.0,0.0,0.0,0.0,0.0,0.0,0.0,0.0,0.0,0.0,0.0,0.0,0.0,0.0,0.0,0.0,0.0,0.0,0.0,0.0,0.0,0.0,0.0,0.0,0.0,0.0,0.0,0.0,0.0,0.0,0.0,0.0,0.0,0.0,0.0,0.0,0.0,0.0,0.0,2.7585,2.7564,2.742,2.6696,2.5823,2.483,0.0,0.0,0.0,0.0,0.0,0.0,0.0,0.0,0.0,0.0,0.0,0.0,0.0,0.0,0.0,0.0,0.0,0.0,0.0,0.0,0.0,0.0,0.0,0.0,0.0,0.0,0.0,0.0,0.0,0.0,0.0,0.0,0.0,0.0,0.0,0.0,0.0,0.0,0.0,0.0,0.0,0.0,0.0,0.0,0.0,0.0,0.0,0.0,0.0,0.0,0.0,0.0,0.0,0.0,0.0,0.0,0.0,0.0,0.0,0.0,0.0,0.0,0.0,0.0,0.0,0.0,0.0,0.0,0.0,0.0,0.0,0.0,0.0,0.0,0.0,0.0,0.0,0.0,0.0,0.0,0.0,0.0,0.0,0.0,0.0,0.0,0.0,0.0,0.0,0.0,0.0,0.0,0.0,0.0,0.0,0.0,0.0,0.0,0.0,0.0,0.0,0.0,0.0,0.0,0.0,0.0,0.0,0.0,2.7615,2.7585,2.7615,2.7585,2.6931,2.6273,0.0,0.0,0.0,0.0,0.0,0.0,0.0,0.0,0.0,0.0,0.0,0.0,0.0,0.0,0.0,0.0,0.0,0.0,0.0,0.0,0.0,0.0,0.0,0.0,0.0,0.0,0.0,0.0,0.0,0.0,0.0,0.0,0.0,0.0,0.0,0.0,0.0,0.0,0.0,0.0,0.0,0.0,0.0,0.0,0.0,0.0,0.0,0.0,0.0,0.0,0.0,0.0,0.0,0.0,0.0,0.0,0.0,0.0,0.0,0.0,0.0,0.0,0.0,0.0,0.0,0.0,0.0,0.0,0.0,0.0,0.0,0.0,0.0,0.0,0.0,0.0,0.0,0.0,0.0,0.0,0.0,0.0,0.0,0.0,0.0,0.0,0.0,0.0,0.0,0.0,0.0,0.0,0.0,0.0,0.0,0.0,0.0,0.0,0.0,0.0,0.0,0.0,0.0,0.0,0.0,0.0,0.0,0.0,0.0,2.784,2.7853,2.7853,2.7853,2.7537,2.6856,0.0,0.0,0.0,0.0,0.0,0.0,0.0,0.0,0.0,0.0,0.0,0.0,0.0,0.0,0.0,0.0,0.0,0.0,0.0,0.0,0.0,0.0,0.0,0.0,0.0,0.0,0.0,0.0,0.0,0.0,0.0,0.0,0.0,0.0,0.0,0.0,0.0,0.0,0.0,0.0,0.0,0.0,0.0,0.0,0.0,0.0,0.0,0.0,0.0,0.0,0.0,0.0,0.0,0.0,0.0,0.0,0.0,0.0,0.0,0.0,0.0,0.0,0.0,0.0,0.0,0.0,0.0,0.0,0.0,0.0,0.0,0.0,0.0,0.0,0.0,0.0,0.0,0.0,0.0,0.0,0.0,0.0,0.0,0.0,0.0,0.0,0.0,0.0,0.0,0.0,0.0,0.0,0.0,0.0,0.0,0.0,0.0,0.0,0.0,0.0,0.0,0.0,0.0,0.0,0.0,0.0,0.0,0.0,0.0,2.8174,0.0,2.8162,2.8162,2.7801,2.7091,0.0,0.0,0.0,0.0,0.0,0.0,0.0,0.0,0.0,0.0,0.0,0.0,0.0,0.0,0.0,0.0,0.0,0.0,0.0,0.0,0.0,0.0,0.0,0.0,0.0,0.0,0.0,0.0,0.0,0.0,0.0,0.0,0.0,0.0,0.0,0.0,0.0,0.0,0.0,0.0,0.0,0.0,0.0,0.0,0.0,0.0,0.0,0.0,0.0,0.0,0.0,0.0,0.0,0.0,0.0,0.0,0.0,0.0,0.0,0.0,0.0,0.0,0.0,0.0,0.0,0.0,0.0,0.0,0.0,0.0,0.0,0.0,0.0,0.0,0.0,0.0,0.0,0.0,0.0,0.0,0.0,0.0,0.0,0.0,0.0,0.0,0.0,0.0,0.0,0.0,0.0,0.0,0.0,0.0,0.0,0.0,0.0,0.0,0.0,0.0,0.0,0.0,0.0,0.0,0.0,0.0,0.0,0.0,2.8566,2.8542,2.8511,2.8523,2.8499,2.7729,2.6937,0.0,0.0,0.0,0.0,0.0,0.0,0.0,0.0,0.0,0.0,0.0,0.0,0.0,0.0,0.0,0.0,0.0,0.0,0.0,0.0,0.0,0.0,0.0,0.0,0.0,0.0,0.0,0.0,0.0,0.0,0.0,0.0,0.0,0.0,0.0,0.0,0.0,0.0,0.0,0.0,0.0,0.0,0.0,0.0,0.0,0.0,0.0,0.0,0.0,0.0,0.0,0.0,0.0,0.0,0.0,0.0,0.0,0.0,0.0,0.0,0.0,0.0,0.0,0.0,0.0,0.0,0.0,0.0,0.0,0.0,0.0,0.0,0.0,0.0,0.0,0.0,0.0,0.0,0.0,0.0,0.0,0.0,0.0,0.0,0.0,0.0,0.0,0.0,0.0,0.0,0.0,0.0,0.0,0.0,0.0,0.0,0.0,0.0,0.0,0.0,0.0,0.0,0.0,0.0,0.0,0.0,0.0,0.0,0.0,2.922,2.9209,2.9152,2.9059,2.87,2.7916,0.0,0.0,0.0,0.0,0.0,0.0,0.0,0.0,0.0,0.0,0.0,0.0,0.0,0.0,0.0,0.0,0.0,0.0,0.0,0.0,0.0,0.0,0.0,0.0,0.0,0.0,0.0,0.0,0.0,0.0,0.0,0.0,0.0,0.0,0.0,0.0,0.0,0.0,0.0,0.0,0.0,0.0,0.0,0.0,0.0,0.0,0.0,0.0,0.0,0.0,0.0,0.0,0.0,0.0,0.0,0.0,0.0,0.0,0.0,0.0,0.0,0.0,0.0,0.0,0.0,0.0,0.0,0.0,0.0,0.0,0.0,0.0,0.0,0.0,0.0,0.0,0.0,0.0,0.0,0.0,0.0,0.0,0.0,0.0,0.0,0.0,0.0,0.0,0.0,0.0,0.0,0.0,0.0,0.0,0.0,0.0,0.0,0.0,0.0,0.0,0.0,0.0,0.0,0.0,0.0,0.0,0.0,0.0,0.0,3.1351,3.0889,3.0495,3.0124,2.9655,2.871,2.7286,0.0,0.0,0.0,0.0,0.0,0.0,0.0,0.0,0.0,0.0,0.0,0.0,0.0,0.0,0.0,0.0,0.0,0.0,0.0,0.0,0.0,0.0,0.0,0.0,0.0,0.0,0.0,0.0,0.0,0.0,0.0,0.0,0.0,0.0,0.0,0.0,0.0,0.0,0.0,0.0,0.0,0.0,0.0,0.0,0.0,0.0,0.0,0.0,0.0,0.0,0.0,0.0,0.0,0.0,0.0,0.0,0.0,0.0,0.0,0.0,0.0,0.0,0.0,0.0,0.0,0.0,0.0,0.0,0.0,0.0,0.0,0.0,0.0,0.0,0.0,0.0,0.0,0.0,0.0,0.0,0.0,0.0,0.0,0.0,0.0,0.0,0.0,0.0,0.0,0.0,0.0,0.0,0.0,0.0,0.0,0.0,0.0,0.0,0.0,0.0,0.0,0.0,0.0,0.0,0.0,0.0,0.0,0.0,3.4487,3.3439,3.2486,3.1561,3.0566,2.9328,0.0,0.0,0.0,0.0,0.0,0.0,0.0,0.0,0.0,0.0,0.0,0.0,0.0,0.0,0.0,0.0,0.0,0.0,0.0,0.0,0.0,0.0,0.0,0.0,0.0,0.0,0.0,0.0,0.0,0.0,0.0,0.0,0.0,0.0,0.0,0.0,0.0,0.0,0.0,0.0,0.0,0.0,0.0,0.0,0.0,0.0,0.0,0.0,0.0,0.0,0.0,0.0,0.0,0.0,0.0,0.0,0.0,0.0,0.0,0.0,0.0,0.0,0.0,0.0,0.0,0.0,0.0,0.0,0.0,0.0,0.0,0.0,0.0,0.0,0.0,0.0,0.0,0.0,0.0,0.0,0.0,0.0,0.0,0.0,0.0,0.0,0.0,0.0,0.0,0.0,0.0,0.0,0.0,0.0,0.0,0.0,0.0,0.0,0.0,0.0,0.0,0.0,0.0,0.0,0.0,0.0,0.0,0.0,0.0,3.5549,3.6174,3.5225,3.2663,3.181,3.0715,0.0,0.0,0.0,0.0,0.0,0.0,0.0,0.0,0.0,0.0,0.0,0.0,0.0,0.0,0.0,0.0,0.0,0.0,0.0,0.0,0.0,0.0,0.0,0.0,0.0,0.0,0.0,0.0,0.0,0.0,0.0,0.0,0.0,0.0,0.0,0.0,0.0,0.0,0.0,0.0,0.0,0.0,0.0,0.0,0.0,0.0,0.0,0.0,0.0,0.0,0.0,0.0,0.0,0.0,0.0,0.0,0.0,0.0,0.0,0.0,0.0,0.0,0.0,0.0,0.0,0.0,0.0,0.0,0.0,0.0,0.0,0.0,0.0,0.0,0.0,0.0,0.0,0.0,0.0,0.0,0.0,0.0,0.0,0.0,0.0,0.0,0.0,0.0,0.0,0.0,0.0,0.0,0.0,0.0,0.0,0.0,0.0,0.0,0.0,0.0,0.0,0.0,0.0,0.0,0.0,0.0,0.0,0.0,3.6339,3.7457,3.8531,3.8019,3.5778,3.4066,3.2215,0.0,0.0,0.0,0.0,0.0,0.0,0.0,0.0,0.0,0.0,0.0,0.0,0.0,0.0,0.0,0.0,0.0,0.0,0.0,0.0,0.0,0.0,0.0,0.0,0.0,0.0,0.0,0.0,0.0,0.0,0.0,0.0,0.0,0.0,0.0,0.0,0.0,0.0,0.0,0.0,0.0,0.0,0.0,0.0,0.0,0.0,0.0,0.0,0.0,0.0,0.0,0.0,0.0,0.0,0.0,0.0,0.0,0.0,0.0,0.0,0.0,0.0,0.0,0.0,0.0,0.0,0.0,0.0,0.0,0.0,0.0,0.0,0.0,0.0,0.0,0.0,0.0,0.0,0.0,0.0,0.0,0.0,0.0,0.0,0.0,0.0,0.0,0.0,0.0,0.0,0.0,0.0,0.0,0.0,0.0,0.0,0.0,0.0,0.0,0.0,0.0,0.0,0.0,0.0,0.0,0.0,0.0,0.0,3.808,3.9514,4.0375,4.038,3.9507,3.6539,3.3805,0.0,0.0,0.0,0.0,0.0,0.0,0.0,0.0,0.0,0.0,0.0,0.0,0.0,0.0,0.0,0.0,0.0,0.0,0.0,0.0,0.0,0.0,0.0,0.0,0.0,0.0,0.0,0.0,0.0,0.0,0.0,0.0,0.0,0.0,0.0,0.0,0.0,0.0,0.0,0.0,0.0,0.0,0.0,0.0,0.0,0.0,0.0,0.0,0.0,0.0,0.0,0.0,0.0,0.0,0.0,0.0,0.0,0.0,0.0,0.0,0.0,0.0,0.0,0.0,0.0,0.0,0.0,0.0,0.0,0.0,0.0,0.0,0.0,0.0,0.0,0.0,0.0,0.0,0.0,0.0,0.0,0.0,0.0,0.0,0.0,0.0,0.0,0.0,0.0,0.0,0.0,0.0,0.0,0.0,0.0,0.0,0.0,0.0,0.0,0.0,0.0,0.0,0.0,0.0,0.0,0.0,0.0,0.0,3.8871,3.9727,4.0937,4.0801,3.9148,3.699,3.5246,0.0,0.0,0.0,0.0,0.0,0.0,0.0,0.0,0.0,0.0,0.0,0.0,0.0,0.0,0.0,0.0,0.0,0.0,0.0,0.0,0.0,0.0,0.0,0.0,0.0,0.0,0.0,0.0,0.0,0.0,0.0,0.0,0.0,0.0,0.0,0.0,0.0,0.0,0.0,0.0,0.0,0.0,0.0,0.0,0.0,0.0,0.0,0.0,2.445,0.0,0.0,0.0,0.0,0.0,0.0,0.0,0.0,0.0,0.0,0.0,0.0,0.0,0.0,0.0,0.0,0.0,0.0,0.0,0.0,0.0,0.0,0.0,0.0,0.0,0.0,0.0,0.0,0.0,0.0,0.0,0.0,0.0,0.0,0.0,0.0,0.0,0.0,0.0,0.0,0.0,0.0,0.0,0.0,0.0,0.0,0.0,0.0,0.0,0.0,0.0,0.0,0.0,0.0,0.0,0.0,0.0,0.0,0.0,4.0118,4.1146,4.2268,4.2176,4.0797,3.8523,3.6486,0.0,0.0,0.0,0.0,0.0,0.0,0.0,0.0,0.0,0.0,0.0,0.0,0.0,0.0,0.0,0.0,0.0,0.0,0.0,0.0,0.0,0.0,0.0,0.0,0.0,0.0,0.0,0.0,0.0,0.0,0.0,0.0,0.0,0.0,0.0,0.0,0.0,0.0,0.0,0.0,0.0,0.0,0.0,0.0,0.0,0.0,0.0,0.0,0.0,0.0,0.0,0.0,0.0,0.0,0.0,0.0,0.0,0.0,0.0,0.0,0.0,0.0,0.0,0.0,0.0,0.0,0.0,0.0,0.0,0.0,0.0,0.0,0.0,0.0,0.0,0.0,0.0,0.0,0.0,0.0,0.0,0.0,0.0,0.0,0.0,0.0,0.0,0.0,0.0,0.0,0.0,0.0,0.0,0.0,0.0,0.0,0.0,0.0,0.0,0.0,0.0,0.0,0.0,0.0,0.0,0.0,0.0,3.9566,4.1267,4.2559,4.3453,4.349,4.2683,3.9978,3.7433,3.5147,0.0,0.0,0.0,0.0,0.0,0.0,0.0,0.0,0.0,0.0,0.0,0.0,0.0,0.0,0.0,0.0,0.0,0.0,0.0,0.0,0.0,0.0,0.0,0.0,0.0,0.0,0.0,0.0,0.0,0.0,0.0,0.0,0.0,0.0,0.0,0.0,0.0,0.0,2.6181,2.6236,0.0,0.0,0.0,0.0,0.0,0.0,0.0,0.0,2.6982,0.0,0.0,0.0,0.0,0.0,0.0,0.0,0.0,0.0,0.0,0.0,0.0,0.0,0.0,0.0,0.0,0.0,0.0,0.0,0.0,0.0,0.0,0.0,0.0,0.0,0.0,0.0,0.0,0.0,0.0,0.0,0.0,0.0,0.0,0.0,0.0,0.0,0.0,0.0,0.0,0.0,0.0,0.0,0.0,0.0,0.0,0.0,0.0,0.0,0.0,0.0,0.0,0.0,0.0,0.0,0.0,3.7271,3.9635,4.1286,4.2159,4.298,4.3024,4.2165,3.9633,3.7767,3.6621,0.0,0.0,0.0,0.0,0.0,0.0,0.0,0.0,0.0,0.0,0.0,0.0,0.0,0.0,0.0,0.0,0.0,0.0,0.0,0.0,0.0,0.0,0.0,0.0,0.0,0.0,0.0,0.0,0.0,0.0,0.0,0.0,0.0,0.0,0.0,0.0,0.0,0.0,0.0,2.708,2.7136,0.0,0.0,0.0,0.0,0.0,0.0,0.0,0.0,2.7392,0.0,0.0,0.0,0.0,0.0,0.0,0.0,0.0,0.0,0.0,0.0,0.0,0.0,0.0,0.0,0.0,0.0,0.0,0.0,0.0,0.0,0.0,0.0,0.0,0.0,0.0,0.0,0.0,0.0,0.0,0.0,0.0,0.0,0.0,0.0,0.0,0.0,0.0,0.0,0.0,0.0,0.0,0.0,0.0,0.0,0.0,0.0,0.0,0.0,0.0,0.0,0.0,0.0,0.0,0.0,3.7991,3.9744,4.1184,4.2268,4.268,4.2528,4.1667,3.9475,3.7934,0.0,0.0,0.0,0.0,0.0,0.0,0.0,0.0,0.0,0.0,0.0,0.0,0.0,0.0,0.0,0.0,0.0,0.0,0.0,0.0,0.0,0.0,0.0,0.0,0.0,0.0,0.0,0.0,0.0,0.0,0.0,0.0,0.0,0.0,0.0,0.0,0.0,0.0,0.0,0.0,2.7695,2.777,2.7921,0.0,0.0,0.0,0.0,0.0,0.0,2.8281,2.8341,0.0,0.0,0.0,0.0,0.0,0.0,0.0,0.0,0.0,0.0,0.0,0.0,0.0,0.0,0.0,0.0,0.0,0.0,0.0,0.0,0.0,0.0,0.0,0.0,0.0,0.0,0.0,0.0,0.0,0.0,0.0,0.0,0.0,0.0,0.0,0.0,0.0,0.0,0.0,0.0,0.0,0.0,0.0,0.0,0.0,0.0,0.0,0.0,0.0,0.0,0.0,0.0,0.0,0.0,0.0,3.8623,3.9841,4.1182,4.2561,4.2483,4.2105,4.1417,3.9261,3.779,0.0,0.0,0.0,0.0,0.0,0.0,0.0,0.0,0.0,0.0,0.0,0.0,0.0,0.0,0.0,0.0,0.0,0.0,0.0,0.0,0.0,0.0,0.0,0.0,0.0,0.0,0.0,0.0,0.0,0.0,0.0,0.0,0.0,0.0,0.0,0.0,0.0,0.0,0.0,0.0,0.0,2.8387,2.8571,2.8579,0.0,0.0,0.0,0.0,2.9206,2.9164,0.0,0.0,0.0,0.0,0.0,0.0,0.0,0.0,0.0,0.0,0.0,0.0,0.0,0.0,0.0,0.0,0.0,0.0,0.0,0.0,0.0,0.0,0.0,0.0,0.0,0.0,0.0,0.0,0.0,0.0,0.0,0.0,0.0,0.0,0.0,0.0,0.0,0.0,0.0,0.0,0.0,0.0,0.0,0.0,0.0,0.0,0.0,0.0,0.0,0.0,0.0,0.0,0.0,0.0,0.0,0.0,3.8324,3.9952,4.1502,4.2969,4.2471,4.2047,4.178,3.8745,3.7005,0.0,0.0,0.0,0.0,0.0,0.0,0.0,0.0,0.0,0.0,0.0,0.0,0.0,0.0,0.0,0.0,0.0,0.0,0.0,0.0,0.0,0.0,0.0,0.0,0.0,0.0,0.0,0.0,0.0,0.0,0.0,0.0,0.0,0.0,0.0,0.0,0.0,0.0,0.0,0.0,0.0,2.9148,2.9332,2.942,2.9476,0.0,0.0,2.9615,2.9624,2.962,0.0,0.0,0.0,0.0,0.0,0.0,0.0,0.0,0.0,0.0,0.0,0.0,0.0,0.0,0.0,0.0,0.0,0.0,0.0,0.0,0.0,0.0,0.0,0.0,0.0,0.0,0.0,0.0,0.0,0.0,0.0,0.0,0.0,0.0,0.0,0.0,0.0,0.0,0.0,0.0,0.0,0.0,0.0,0.0,0.0,0.0,0.0,0.0,0.0,0.0,0.0,0.0,0.0,0.0,0.0,3.7117,3.8337,3.9534,4.0671,4.1789,4.1527,4.1138,4.0607,3.8684,3.7441,0.0,0.0,0.0,0.0,0.0,0.0,0.0,0.0,0.0,0.0,0.0,0.0,0.0,0.0,0.0,0.0,0.0,0.0,0.0,0.0,0.0,0.0,0.0,0.0,0.0,0.0,0.0,0.0,0.0,0.0,0.0,0.0,0.0,0.0,0.0,0.0,0.0,0.0,0.0,0.0,0.0,0.0,2.9849,2.9845,0.0,0.0,0.0,3.0081,3.0038,0.0,0.0,0.0,0.0,0.0,0.0,0.0,0.0,0.0,0.0,0.0,0.0,0.0,0.0,0.0,0.0,0.0,0.0,0.0,0.0,0.0,0.0,0.0,0.0,0.0,0.0,0.0,0.0,0.0,0.0,0.0,0.0,0.0,0.0,0.0,0.0,0.0,0.0,0.0,0.0,0.0,0.0,0.0,0.0,0.0,0.0,0.0,0.0,0.0,0.0,0.0,0.0,0.0,0.0,0.0,0.0,0.0,3.8454,3.9457,4.0375,4.1128,4.0992,4.0485,3.9638,3.8604,0.0,0.0,0.0,0.0,0.0,0.0,0.0,0.0,0.0,0.0,0.0,0.0,0.0,0.0,0.0,0.0,0.0,0.0,0.0,0.0,0.0,0.0,0.0,0.0,0.0,0.0,0.0,3.0605,0.0,0.0,0.0,0.0,0.0,0.0,0.0,0.0,0.0,0.0,0.0,0.0,0.0,0.0,2.9964,3.026,3.0164,3.0138,0.0,0.0,3.0361,3.0095,3.0121,3.0153,0.0,0.0,0.0,0.0,0.0,0.0,0.0,0.0,0.0,0.0,0.0,0.0,0.0,0.0,0.0,0.0,0.0,0.0,0.0,0.0,0.0,0.0,0.0,0.0,0.0,0.0,0.0,0.0,0.0,0.0,0.0,0.0,0.0,0.0,0.0,0.0,0.0,0.0,0.0,0.0,0.0,0.0,0.0,0.0,0.0,0.0,0.0,0.0,0.0,0.0,0.0,0.0,0.0,0.0,3.7727,3.8587,4.0232,4.1436,4.214,4.1514,4.0694,3.9713,3.8183,3.6981,0.0,0.0,0.0,0.0,0.0,0.0,0.0,0.0,0.0,0.0,0.0,0.0,0.0,0.0,0.0,0.0,0.0,0.0,0.0,0.0,0.0,0.0,0.0,0.0,0.0,0.0,0.0,0.0,0.0,0.0,0.0,0.0,0.0,0.0,0.0,0.0,0.0,0.0,0.0,0.0,0.0,3.039,3.0492,3.0546,3.0582,0.0,0.0,3.0324,2.951,2.94,2.9361,2.9397,0.0,0.0,0.0,0.0,0.0,0.0,0.0,0.0,0.0,0.0,0.0,0.0,0.0,0.0,0.0,0.0,0.0,0.0,0.0,0.0,0.0,0.0,0.0,0.0,0.0,0.0,0.0,0.0,0.0,0.0,0.0,0.0,0.0,0.0,0.0,0.0,0.0,0.0,0.0,0.0,0.0,0.0,0.0,0.0,0.0,0.0,0.0,0.0,0.0,0.0,0.0,0.0,0.0,3.7734,3.8594,3.9766,4.0546,4.0814,4.0546,3.9726,3.8274,3.7613,3.6912,0.0,0.0,0.0,0.0,0.0,0.0,0.0,0.0,0.0,0.0,0.0,0.0,0.0,0.0,0.0,0.0,0.0,0.0,0.0,0.0,0.0,0.0,0.0,0.0,0.0,0.0,0.0,0.0,3.0742,3.0703,3.0776,0.0,0.0,0.0,0.0,0.0,0.0,0.0,0.0,0.0,0.0,3.0526,3.0601,3.0631,0.0,0.0,3.0682,3.0625,3.0281,3.0254,3.0261,3.0222,3.0222,0.0,0.0,0.0,0.0,0.0,0.0,0.0,0.0,0.0,0.0,0.0,0.0,0.0,0.0,0.0,0.0,0.0,0.0,0.0,0.0,0.0,0.0,0.0,0.0,0.0,0.0,0.0,0.0,0.0,0.0,0.0,0.0,0.0,0.0,0.0,0.0,0.0,0.0,0.0,0.0,0.0,0.0,0.0,0.0,0.0,0.0,0.0,0.0,0.0,0.0,0.0,0.0,3.7921,3.8543,3.9596,4.0181,4.0181,4.0181,3.9477,3.8071,3.7724,3.7176,0.0,0.0,0.0,0.0,0.0,0.0,0.0,0.0,0.0,0.0,0.0,0.0,0.0,0.0,0.0,0.0,0.0,0.0,0.0,0.0,0.0,0.0,0.0,0.0,0.0,0.0,0.0,0.0,3.0742,3.0711,3.0777,0.0,0.0,0.0,0.0,0.0,0.0,0.0,0.0,0.0,0.0,3.0667,3.0728,3.0742,3.0713,3.0717,3.0773,3.0702,3.0469,3.0467,3.0462,3.0381,0.0,0.0,0.0,0.0,0.0,0.0,0.0,0.0,0.0,0.0,0.0,0.0,0.0,0.0,0.0,0.0,0.0,0.0,0.0,0.0,0.0,0.0,0.0,0.0,0.0,0.0,0.0,0.0,0.0,0.0,3.7253,0.0,0.0,0.0,0.0,0.0,0.0,0.0,0.0,0.0,0.0,0.0,0.0,0.0,0.0,0.0,0.0,0.0,0.0,0.0,0.0,0.0,0.0,3.8405,3.8442,3.9961,4.075,4.075,4.0787,4.032,3.9497,3.8726,3.7872,3.6972,0.0,0.0,0.0,0.0,0.0,0.0,0.0,0.0,0.0,0.0,0.0,0.0,0.0,0.0,0.0,0.0,0.0,0.0,0.0,0.0,0.0,0.0,0.0,0.0,0.0,0.0,3.068,3.0685,3.0724,0.0,0.0,0.0,0.0,0.0,0.0,0.0,0.0,0.0,0.0,3.0803,3.0812,3.0779,3.0781,3.0779,3.0774,3.0811,3.0535,2.9708,2.9586,2.9497,0.0,0.0,0.0,0.0,0.0,0.0,0.0,0.0,0.0,0.0,0.0,0.0,0.0,0.0,0.0,0.0,0.0,0.0,0.0,0.0,0.0,0.0,0.0,0.0,0.0,0.0,0.0,3.7777,3.7563,0.0,0.0,0.0,0.0,0.0,0.0,0.0,0.0,0.0,0.0,0.0,3.8636,3.8059,0.0,0.0,0.0,0.0,0.0,0.0,0.0,0.0,0.0,0.0,0.0,0.0,3.8673,3.9171,3.9735,3.9994,3.9994,3.9994,3.9603,3.8739,3.7895,3.7031,3.6184,0.0,0.0,0.0,0.0,0.0,0.0,0.0,0.0,0.0,0.0,0.0,0.0,0.0,0.0,0.0,0.0,0.0,0.0,0.0,0.0,0.0,0.0,0.0,0.0,0.0,3.0575,0.0,0.0,0.0,0.0,0.0,0.0,0.0,0.0,0.0,0.0,0.0,3.0781,3.0734,3.0773,3.0813,3.0806,3.0758,3.0748,0.0,0.0,0.0,0.0,0.0,0.0,0.0,0.0,0.0,0.0,0.0,0.0,0.0,0.0,3.0681,3.0702,3.0671,3.0683,3.0703,0.0,0.0,0.0,0.0,0.0,0.0,0.0,0.0,0.0,0.0,0.0,0.0,0.0,0.0,3.8412,0.0,3.8181,0.0,0.0,0.0,0.0,0.0,0.0,0.0,0.0,3.9226,3.9536,4.0294,3.9759,4.0349,0.0,4.1147,4.056,0.0,0.0,0.0,0.0,0.0,0.0,0.0,0.0,3.9143,3.991,3.9922,4.0061,4.0327,4.0059,3.9516,3.8655,3.7502,3.6484,3.5635,3.5093,3.4643,0.0,0.0,0.0,0.0,0.0,0.0,0.0,0.0,0.0,0.0,0.0,0.0,0.0,0.0,0.0,0.0,0.0,0.0,0.0,0.0,0.0,0.0,0.0,3.1055,0.0,0.0,0.0,0.0,0.0,0.0,0.0,0.0,0.0,3.0782,3.0701,3.0708,3.0711,3.0719,3.0728,3.0764,0.0,0.0,0.0,0.0,0.0,0.0,0.0,3.0662,3.0647,3.0633,3.0615,3.0532,3.0564,3.0559,3.0561,0.0,0.0,3.0638,3.0657,3.06,3.0661,3.0686,3.0701,3.0779,3.0763,3.082,0.0,0.0,0.0,0.0,0.0,0.0,0.0,0.0,3.8935,3.8714,0.0,3.8071,0.0,0.0,0.0,0.0,0.0,4.0792,0.0,0.0,4.1015,4.1074,4.1917,4.1921,4.1975,4.2081,4.2777,4.3199,4.3191,4.1636,0.0,0.0,0.0,0.0,0.0,0.0,3.985,4.0622,4.0653,4.0977,4.1781,4.0977,4.0135,3.9253,3.763,3.6357,3.5542,3.5432,3.5062,3.4276,3.4132,0.0,0.0,0.0,0.0,0.0,0.0,0.0,0.0,0.0,0.0,0.0,0.0,0.0,0.0,0.0,0.0,0.0,0.0,0.0,0.0,3.1242,0.0,0.0,0.0,0.0,0.0,0.0,0.0,0.0,0.0,0.0,3.101,3.0754,3.0683,3.0809,0.0,0.0,0.0,0.0,3.0611,3.0688,3.0651,3.0582,3.058,3.0608,3.058,3.0525,0.0,0.0,3.04,3.0461,3.0521,3.0482,3.0458,3.043,3.0577,3.0586,3.0581,3.0614,3.0664,3.0677,3.0692,3.0742,3.1043,4.3179,0.0,0.0,0.0,0.0,4.1947,4.1762,4.1349,4.1857,4.1447,4.0468,4.0716,0.0,0.0,0.0,0.0,0.0,0.0,4.2019,4.2776,4.2464,4.2779,4.3568,4.3025,4.3379,4.4508,4.3596,4.3412,4.3963,4.2946,4.217,4.1659,0.0,0.0,0.0,0.0,4.1314,4.1523,4.2079,4.247,4.2701,4.1893,4.0431,3.843,3.7892,3.6965,3.5538,3.4905,3.4754,3.509,3.3401,0.0,0.0,0.0,0.0,0.0,0.0,0.0,0.0,0.0,0.0,0.0,0.0,0.0,0.0,0.0,0.0,0.0,0.0,0.0,3.2134,3.2403,3.2676,0.0,0.0,0.0,0.0,0.0,0.0,0.0,0.0,0.0,3.2421,3.2359,3.235,0.0,0.0,3.1469,3.1478,3.0944,3.0527,3.0554,0.0,0.0,0.0,3.0508,3.0505,3.0425,3.0433,3.0411,3.0399,3.0405,3.0452,3.0414,3.0408,3.0411,3.0442,3.0463,3.0474,3.0533,3.0558,3.0633,3.0675,3.0779,3.0937,4.6629,4.4966,4.3662,4.3294,4.355,4.3242,4.328,4.3588,4.3588,4.3134,4.2387,4.2734,4.2421,4.1637,4.1685,0.0,0.0,0.0,4.2842,4.3588,4.3588,4.4038,4.4744,4.4316,4.459,4.5513,4.459,4.4321,4.4821,4.397,4.3365,4.2882,0.0,0.0,4.1679,4.2136,4.253,4.2856,4.3021,4.3239,4.3547,4.2085,4.0546,3.905,3.8354,3.7504,3.6542,3.5661,3.543,3.5923,3.4192,3.3506,0.0,0.0,0.0,0.0,0.0,0.0,0.0,0.0,0.0,0.0,0.0,3.1968,3.1465,0.0,0.0,0.0,3.1698,3.216,3.3314,3.343,0.0,0.0,0.0,0.0,0.0,0.0,0.0,3.3977,3.4007,3.3997,3.4,3.4011,3.3815,3.3088,3.229,3.189,3.2218,0.0,3.0579,3.0929,3.0687,3.0439,3.0381,3.0431,3.0439,3.0419,3.0396,3.0385,3.0385,3.0385,3.0385,3.0385,3.0385,3.0385,3.0385,3.0385,3.0408,3.0469,3.0537,3.0598,3.0641,3.0781,3.1055,4.974,4.8043,4.4855,4.3893,4.4432,4.3778,4.3893,4.4509,4.4586,4.4085,4.3355,4.4085,4.3918,4.3111,4.3142,0.0,4.3184,4.3184,4.3627,4.4393,4.447,4.4932,4.5706,4.5744,4.5782,4.5782,4.5782,4.5821,4.5782,4.5013,4.4551,4.447,4.3739,4.3298,4.3103,4.3144,4.3547,4.4278,4.3628,4.3624,4.4244,4.1974,4.0631,4.0473,3.8934,3.8046,3.7965,3.7157,3.6734,3.6769,3.5962,3.5157,3.4433,0.0,0.0,0.0,0.0,0.0,0.0,0.0,0.0,0.0,0.0,0.0,0.0,0.0,0.0,0.0,3.1965,0.0,3.4164,3.4279,0.0,0.0,0.0,3.5577,3.5503,3.5538,3.5577,3.55,0.0,0.0,3.5503,3.5503,3.494,3.3397,3.2451,3.2178,3.2964,3.1616,3.0784,3.1545,3.0944,3.0423,3.0388,3.039,3.0388,3.0388,3.0385,3.0385,3.0385,3.0385,3.0385,3.0385,3.0385,3.0459,3.05,3.0577,3.0538,3.066,3.0595,3.0613,3.0867,3.0986,3.1484,5.0476,4.9899,4.7817,4.6697,4.6312,4.6735,4.6658,4.6355,4.6932,4.6398,4.5013,4.521,4.4479,4.3102,4.311,4.3456,4.4029,4.4025,4.4483,4.5321,4.597,4.6389,4.662,4.7201,4.7509,4.7509,4.7509,4.7509,4.7509,4.7317,4.6894,4.6312,4.6081,4.5013,4.3179,4.3709,4.409,4.4278,4.4782,4.4782,4.4282,4.3085,4.1858,4.0512,3.9515,3.8665,3.8007,3.7161,3.7004,3.7623,3.6273,3.5696,3.608,3.5542,0.0,0.0,0.0,0.0,0.0,0.0,0.0,0.0,0.0,3.3622,3.2929,0.0,3.3817,0.0,3.4196,3.4773,3.5154,3.5196,0.0,0.0,3.6423,3.6157,3.5577,3.6042,3.6196,3.5577,3.5503,3.5503,3.5503,3.5503,3.535,3.4937,3.4164,3.3705,3.3837,3.2477,3.1465,3.1628,3.1009,3.0423,3.0385,3.0385,3.0385,3.0385,3.0385,3.0385,3.0385,3.0385,3.0385,3.0385,3.0385,3.0651,3.1234,3.1391,3.1618,3.2051,3.1383,3.0971,3.2249,3.2135,3.2061,5.1592,5.1125,4.9817,4.8779,4.8005,4.8082,4.8274,4.8586,4.8663,4.8125,4.7244,4.6898,4.6201,4.5316,4.497,4.5047,4.5432,4.5051,4.5128,4.5633,4.6509,4.6889,4.6928,4.7735,4.8082,4.8082,4.8082,4.8082,4.8082,4.8082,4.7855,4.7428,4.7428,4.6735,4.5389,4.5013,4.4898,4.4898,4.5359,4.5359,4.4859,4.3705,4.2624,4.1666,4.0473,3.9627,3.9127,3.8315,3.8084,3.8511,3.6927,3.6077,3.6157,3.5731,3.5311,0.0,0.0,0.0,0.0,0.0,0.0,0.0,0.0,0.0,0.0,0.0,3.5468,3.5857,3.5965,3.6192,3.658,3.6619,3.6773,3.7234,3.7276,3.7119,3.6657,3.6654,3.6542,3.6077,3.5731,3.5503,3.5503,3.5503,3.5503,3.5503,3.508,3.4776,3.4622,3.3314,3.2352,3.2699,3.1772,3.0808,3.0462,3.0385,3.0385,3.0385,3.0385,3.0385,3.0385,3.0385,3.0385,3.0423,3.0731,3.1118,3.158,3.2006,3.2486,3.3111,3.2524,3.2154,3.2984,3.2923,3.2886,5.2928,5.2159,5.1356,5.0592,4.9822,4.9086,4.9433,5.0476,4.9861,4.951,4.9356,4.8505,4.8082,4.8048,4.7389,4.7005,4.6851,4.6086,4.5782,4.5821,4.6663,4.712,4.7235,4.8048,4.8428,4.8432,4.8432,4.8432,4.8432,4.8432,4.8351,4.8274,4.8279,4.8197,4.8043,4.6667,4.5864,4.5744,4.5782,4.5706,4.5556,4.397,4.3085,4.3008,4.1397,4.0512,4.0477,3.9746,3.9358,3.9396,3.7777,3.6615,3.6,3.5885,3.5468,0.0,3.5391,0.0,0.0,0.0,0.0,0.0,0.0,0.0,0.0,3.685,3.7119,3.7773,3.7234,3.7196,3.793,3.8004,3.8046,3.8161,3.8165,3.8123,3.7969,3.743,3.6927,3.6734,3.6077,3.5615,3.55,3.5503,3.5503,3.5503,3.5462,3.5427,3.535,3.4083,3.3314,3.409,3.2852,3.1542,3.0654,3.05,3.0577,3.0459,3.0538,3.0577,3.0615,3.0731,3.0769,3.0846,3.1388,3.1888,3.1968,3.2622,3.3373,3.4239,3.3872,3.3506,3.3634,3.3601,3.3827,5.4164,5.3933,5.3087,5.2626,5.2467,5.2313,5.1241,4.9663,5.0207,5.0053,4.936,4.8471,4.8082,4.8082,4.7928,4.7505,4.6889,4.6735,4.6663,4.6663,4.7505,4.8235,4.8971,4.9817,5.0207,5.0207,5.0207,5.0207,5.0207,5.0207,4.9856,4.9163,4.9168,4.8817,4.812,0.0,0.0,0.0,4.6658,4.6317,4.559,4.397,4.3085,4.3047,4.1397,0.0,4.0477,3.9742,3.9592,4.0165,3.8661,0.0,0.0,0.0,0.0,0.0,0.0,0.0,0.0,0.0,0.0,0.0,3.7696,3.7584,3.7738,3.7738,3.7542,3.7004,3.7427,3.7815,3.7969,3.8004,3.828,3.8969,3.905,3.878,3.8123,3.8469,3.8277,3.6888,3.658,3.6234,3.5654,3.5503,3.55,3.5538,3.5503,3.5503,3.5503,3.4619,3.4048,3.409,3.3276,3.2122,3.0615,3.1,3.1118,3.0692,3.1038,3.1391,3.1429,3.1965,3.2391,3.2352,3.2545,3.2929,3.3548,3.3859,3.4218,3.5178,3.5249,3.5224,3.5331,3.4814,3.4638,5.4511,0.0,5.3082,5.2544,0.0,5.2544,5.1813,5.0702,5.1548,5.1702,5.1202,5.0351,4.9966,4.9923,4.9125,4.8509,4.812,4.7697,4.7505,4.7543,4.8355,4.8971,4.9437,5.0284,5.0707,5.0707,5.0707,5.0707,5.0707,5.0707,5.0476,5.0053,5.0053,4.9822,4.9394,4.9394,4.8548,4.6928,4.6471,4.6052,4.5552,4.4359,4.3705,4.3666,0.0,0.0,0.0,0.0,0.0,0.0,0.0,0.0,0.0,0.0,0.0,3.8004,3.8004,3.82,3.8588,3.8627,3.8819,3.9204,3.9242,3.9088,3.8665,3.9011,3.905,3.8627,3.8973,3.9242,3.9242,3.9242,3.9396,3.9861,3.99,3.9704,3.9358,3.9246,3.8973,3.8123,3.7619,3.7157,3.6773,3.6734,3.6542,3.6192,3.608,3.5923,3.5538,3.5115,3.4737,3.4279,3.3856,3.2971,3.1468,3.1349,3.1388,3.0731,3.1118,3.1621,3.1698,3.2352,3.2891,3.2929,3.3237,3.3702,3.4087,3.4545,3.5007,3.5485,3.569,3.5769,3.5878,3.5578,3.5425,5.4708,5.4587,5.3159,5.2467,5.2351,5.2346,5.2351,5.239,0.0,0.0,0.0,5.2269,5.1928,5.1769,5.0317,4.9548,4.936,4.8663,4.8312,4.8355,4.9048,4.9471,4.9668,5.0361,5.0707,5.0707,5.0707,5.0707,5.0707,5.0707,5.0707,5.0707,5.0707,5.0707,5.0707,5.0553,4.9433,4.7389,4.6471,4.5975,4.5821,4.4821,4.4316,4.4316,4.3508,4.2773,4.2043,4.2043,4.17,4.0973,4.0204,3.9742,3.9704,3.8931,3.843,3.8434,3.8584,3.8969,3.9665,3.9738,3.9935,4.0473,4.0512,4.0169,3.9358,4.0054,4.0512,4.0512,4.0512,4.0477,4.0512,4.0512,4.0512,4.0512,4.0512,4.0477,4.0435,3.9935,3.9473,3.9242,3.8623,3.8165,3.7969,3.7927,3.7777,3.7119,3.6927,3.6615,3.5885,3.5385,3.4891,3.4321,3.3936,3.3356,3.2122,3.1698,3.1352,3.0612,3.1234,3.1891,3.2042,3.2695,3.3272,3.3506,3.3968,3.4356,3.451,3.5007,3.5507,3.5685,3.5725,3.5773,3.5937,3.6016,3.5976,5.5511,5.5511,5.528,5.478,5.4126,5.4126,5.4126,5.4087,5.3472,5.3197,5.3121,5.2274,5.1928,5.1851,5.0938,5.0091,4.9394,4.9279,4.9202,0.0,4.9317,4.9784,5.0515,5.0635,5.0707,5.0707,5.0707,5.0707,5.0707,5.0707,5.0707,5.0707,5.0707,5.0707,5.063,4.9938,4.9394,4.9048,4.8202,4.7428,4.6735,4.5124,4.4316,4.4282,4.3547,4.3047,4.2927,4.2931,4.2854,4.2739,4.1927,4.1427,4.1431,4.0589,4.0169,4.0204,4.0854,4.1312,4.1431,4.1427,4.1162,4.0554,4.0512,4.0169,3.9396,4.0015,4.0512,4.0512,4.0512,4.0512,4.0512,4.0512,4.0512,4.0512,4.0512,4.0512,4.0512,4.04,4.0054,3.9434,3.9204,3.8819,3.8277,3.8123,3.8084,3.7853,3.7738,3.7504,3.658,3.5276,3.4433,3.4125,3.3548,3.274,3.2122,3.1734,3.1503,3.0538,3.1734,3.2737,3.2737,3.3926,3.4846,3.508,3.5129,3.5251,3.5286,3.5388,3.5554,3.5692,3.5735,3.5784,3.5976,3.6016,3.6016,5.6401,5.6285,5.5439,5.4549,5.378,5.3318,5.339,5.3818,5.3895,5.4164,5.4434,5.3664,5.3044,5.2544,5.1736,5.0894,5.0091,5.0091,5.013,5.013,5.0548,5.0971,5.1356,5.1818,5.2087,5.2049,5.1548,5.1356,5.1318,5.0938,5.0707,5.0707,5.0707,5.0707,5.0668,5.0284,5.013,5.0087,4.8779,4.7928,4.7543,4.6351,4.5701,4.5701,4.4893,4.4201,4.3778,4.3739,4.3547,4.3124,4.2273,4.1812,4.1773,4.0973,4.0704,4.1162,4.1581,4.1812,4.1812,4.1812,4.1854,4.1897,4.1897,4.1743,4.1397,4.0819,4.0512,4.0512,4.0512,4.0512,4.0512,4.0512,4.0512,4.0512,4.0512,4.0512,4.0512,4.0512,4.0362,4.0012,3.9938,3.9781,3.9396,3.9358,3.9127,3.878,3.8357,3.7853,3.7427,3.6388,3.5391,3.4965,3.4542,3.4007,3.3199,3.3048,3.2702,3.1888,3.2776,3.351,3.3664,3.4699,3.535,3.551,3.5534,3.5558,3.5567,3.5601,3.5683,3.5788,3.5825,3.5862,3.5976,3.6016,3.6016,5.7286,5.7132,5.5901,5.4857,5.401,5.3121,5.3159,5.3823,5.45,5.518,5.5599,5.4888,5.401,5.3159,5.2308,5.1467,5.0784,5.0707,5.0668,5.0784,5.1543,5.1928,5.2005,5.2813,5.3197,5.3121,5.2505,5.2197,5.212,5.1587,5.1284,5.1246,5.1048,5.0976,5.0976,5.0784,5.0707,5.063,4.936,4.8586,4.8355,4.7582,4.7081,4.6851,4.624,4.547,4.4667,4.4586,4.4321,4.3705,4.3008,4.2543,4.2354,4.17,4.1589,4.2043,4.2273,4.235,4.2389,4.2389,4.2585,4.3047,4.3085,4.3085,4.3008,4.1893,4.1089,4.1093,4.1166,4.1127,4.1166,4.1127,4.1012,4.0819,4.0781,4.0704,4.0554,4.0512,4.0512,4.0512,4.0512,4.0473,4.0512,4.0512,4.0208,3.9588,3.8819,3.8357,3.82,3.7542,3.6734,3.6157,3.5619,3.5003,3.4507,3.401,3.3548,3.2968,3.3587,3.401,3.4279,3.4888,3.5454,3.5528,3.5548,3.5589,3.5631,3.5661,3.5744,3.5845,3.5896,3.5913,3.5976,3.6016,3.6016,5.8159,5.8165,5.7934,5.7434,5.6494,5.5647,5.5268,5.5414,5.5684,5.5809,5.5758,5.4892,5.4064,5.3159,5.2356,5.1548,5.0798,5.0707,5.076,5.0885,5.1548,5.1928,5.2073,5.2828,5.3203,5.3256,5.3151,5.3089,5.3069,5.2933,5.2933,5.289,5.2197,5.1774,5.1697,5.1087,5.0707,5.0707,5.0553,5.0091,4.9279,4.8432,4.7658,4.6928,4.6812,4.6355,4.5475,4.5475,4.5441,4.5359,4.5205,4.4859,4.4128,4.3974,4.3624,4.3043,4.3624,4.4051,4.4047,4.409,4.3739,4.3162,4.3201,4.3201,4.3162,4.297,4.2854,4.2854,4.2859,4.2739,4.2859,4.2777,4.2393,4.1735,4.17,4.1393,4.0781,4.0512,4.0512,4.0512,4.0666,4.0512,4.0589,4.0554,4.0473,4.0281,3.9665,3.9165,3.913,3.8572,3.7998,3.7448,3.6017,3.4982,3.5049,3.4003,3.3506,3.3202,3.367,3.4222,3.4543,3.4973,3.5512,3.5596,3.5638,3.5661,3.5683,3.5726,3.5762,3.586,3.5913,3.5917,3.5976,3.6016,3.6016,5.9011,5.8973,5.8506,5.7844,5.6998,5.5788,5.5225,5.5232,5.5291,5.532,5.5353,5.5437,5.499,5.4048,5.3624,5.3018,5.2322,5.2326,5.2361,5.2503,5.3279,5.3667,5.3783,5.4555,5.4978,5.49,5.4477,5.4146,5.4014,5.3475,5.3197,5.3159,5.2813,5.2428,5.1928,5.1582,5.1164,5.0707,5.0707,5.0515,5.013,4.9317,4.8471,4.7658,4.7158,4.6471,4.571,4.5594,4.5594,4.5556,4.509,4.4667,4.4316,4.3855,4.3662,4.3782,4.4124,4.4513,4.5056,4.4586,4.4397,4.4551,4.459,4.459,4.459,4.459,4.459,4.4474,4.3701,4.3085,4.3124,4.3085,4.2927,4.2624,4.2581,4.2393,4.2085,4.2012,4.2047,4.2012,4.1585,4.1277,4.12,4.0819,4.0516,4.0477,4.0169,4.0023,3.9985,3.976,3.9631,3.9419,3.8294,3.711,3.6427,3.5696,3.4972,3.4639,3.4747,3.5038,3.5049,3.5281,3.565,3.5657,3.5778,3.5819,3.5823,3.5862,3.5882,3.5976,3.5937,3.5973,3.6015,3.6016,3.6016,5.9268,5.9191,5.865,5.8101,5.7497,5.6158,5.5587,5.5553,5.5422,5.5316,5.5355,5.6015,5.5847,5.5184,5.4795,5.421,5.3529,5.3465,5.3494,5.3711,5.449,5.4876,5.4993,5.5805,5.623,5.6114,5.553,5.5207,5.5045,5.4438,5.4035,5.3958,5.3567,5.3026,5.2404,5.2172,5.1593,5.0902,5.0971,5.1,5.0735,5.0147,4.9391,4.8519,4.7894,4.7163,4.6321,4.6278,4.6167,4.5936,4.5316,4.4893,4.4624,4.409,4.4051,4.4594,4.4691,4.4961,4.5565,4.5034,4.4961,4.5526,4.5594,4.5594,4.5594,4.5594,4.5594,4.5483,4.4529,4.3863,4.3782,4.3778,4.3701,4.3508,4.3431,4.3355,4.3085,4.3085,4.3047,4.3047,4.247,4.2158,4.2055,4.1682,4.1387,4.1349,4.111,4.0938,4.0906,4.0817,4.0682,4.0687,4.0192,3.9282,3.7825,3.7189,3.6815,3.6208,3.5955,3.588,3.5802,3.5803,3.5864,3.5942,3.6076,3.6064,3.5917,3.5934,3.6133,3.625,3.6172,3.6133,3.6445,3.6211,3.6016,5.8716,5.8748,5.8716,5.8638,5.8536,5.7631,5.7248,5.712,5.6585,5.6308,5.6308,5.6425,5.6383,5.6293,5.5536,5.4474,5.3748,5.3709,5.3799,5.3857,5.4587,5.4923,5.4957,5.5805,5.6202,5.623,5.6154,5.6057,5.6069,5.6011,5.6058,5.593,5.4474,5.363,5.3427,5.2761,5.1927,5.1306,5.166,5.1703,5.1147,5.0881,5.0286,4.9464,4.9293,4.8782,4.8032,4.798,4.76,4.6864,4.6732,4.6377,4.5607,4.5496,4.5471,4.5599,4.5679,4.5694,4.5679,4.5644,4.5666,4.562,4.5611,4.5616,4.562,4.562,4.562,4.5573,4.5532,4.5438,4.5328,4.5212,4.4999,4.4371,4.4269,4.3973,4.3306,4.3389,4.3132,4.3233,4.3184,4.3011,4.3015,4.3073,4.2898,4.2756,4.2359,4.1931,4.1883,4.1382,4.0966,4.0892,4.0748,4.0431,3.9568,3.8667,3.7868,3.7176,3.6771,3.6659,3.6386,3.6203,3.6246,3.6328,3.6685,3.6626,3.617,3.6133,3.6367,3.6406,3.6211,3.625,3.6484,3.6289,3.6094,5.9521,5.9493,5.9033,5.8829,5.8722,5.8037,5.7743,5.7667,5.6902,5.6868,5.7297,5.7344,5.7649,5.8157,5.7833,5.683,5.5457,5.5374,5.5444,5.5558,5.5834,5.599,5.6029,5.634,5.6457,5.6457,5.6456,5.6397,5.6301,5.6237,5.623,5.6153,5.5608,5.4988,5.4484,5.4098,5.3278,5.2028,5.2136,5.1867,5.1167,5.1042,5.0832,5.051,4.9967,4.9236,4.8386,4.8386,4.7956,4.7135,4.7096,4.6705,4.5965,4.6323,4.6872,4.7347,4.6962,4.6654,4.6574,4.6136,4.5833,4.5822,4.581,4.5801,4.5774,4.5771,4.5771,4.5822,4.5811,4.582,4.5794,4.5771,4.5694,4.5386,4.5306,4.518,4.5001,4.4885,4.4885,4.4804,4.4458,4.3921,4.3524,4.3308,4.3338,4.3301,4.3066,4.2935,4.2815,4.2239,4.1765,4.1655,4.1367,4.0957,4.0724,3.9758,3.885,3.805,3.7517,3.7155,3.6852,3.6998,3.7058,3.7031,3.7305,3.7344,3.6914,3.6523,3.6719,3.6641,3.6445,3.6601,3.6367,3.6484,3.6289,5.9771,5.9666,5.9212,5.8839,5.853,5.8083,5.7734,5.7422,5.6836,5.6914,5.7422,5.75,5.7969,5.8672,5.8789,5.8356,5.7321,5.7045,5.6943,5.6953,5.6719,5.6601,5.6601,5.6601,5.6601,5.6601,5.6601,5.6562,5.646,5.6377,5.631,5.6349,5.6073,5.5645,5.5103,5.5025,5.4167,5.2761,5.2657,5.23,5.1346,5.1168,5.117,5.1115,5.062,5.0045,4.9363,4.9082,4.8496,4.7756,4.7601,4.7367,4.6861,4.7291,4.788,4.8314,4.7716,4.7249,4.7107,4.6423,4.6074,4.6314,4.6312,4.6312,4.6312,4.6312,4.6195,4.6003,4.5959,4.5972,4.5978,4.5997,4.5992,4.5942,4.5882,4.5882,4.5882,4.5877,4.5836,4.5719,4.5402,4.4869,4.4386,4.429,4.4343,4.4268,4.4072,4.3882,4.3801,4.3243,4.2756,4.2718,4.2417,4.1836,4.1289,4.0469,3.9492,3.8672,3.8047,3.7695,3.75,3.7695,3.7891,3.7812,3.7812,3.7891,3.7656,3.7187,3.7031,3.7031,3.7266,3.75,3.7226,3.6914,3.6758,5.9219,5.9297,5.9219,5.875,5.8125,5.7969,5.7422,5.6836,5.668,5.6719,5.6953,5.6797,5.7539,5.8008,5.8476,5.8515,5.8984,5.8398,5.789,5.7734,5.7031,5.668,5.6601,5.6601,5.6601,5.6601,5.6601,5.6601,5.6601,5.6562,5.6562,5.6445,5.582,5.5547,5.5351,5.5312,5.4531,5.3359,5.353,5.3063,5.1639,5.1422,5.1419,5.1445,5.1367,5.115,5.0968,5.0217,4.9411,4.8671,4.8515,4.8544,4.8456,4.8536,4.8563,4.8627,4.7935,4.7464,4.7217,4.6684,4.669,4.6996,4.7194,4.725,4.7258,4.725,4.6974,4.6442,4.6293,4.6285,4.6254,4.6355,4.6272,4.5971,4.5959,4.5961,4.5948,4.5933,4.5929,4.5918,4.5939,4.602,4.5942,4.5742,4.5739,4.5624,4.5232,4.4854,4.4844,4.4219,4.375,4.3672,4.3359,4.2773,4.1953,4.1094,4.0156,3.9258,3.8711,3.8281,3.8164,3.8242,3.875,3.8789,3.8906,3.8945,3.8281,3.793,3.8281,3.8359,3.8476,3.832,3.8125,3.7773,3.7422,5.9531,5.9922,5.9414,5.9062,5.8711,5.8164,5.7734,5.7422,5.6875,5.6914,5.75,5.8125,5.8828,5.9609,6.0234,6.0625,6.0859,6.0,5.9023,5.8008,5.7617,5.7148,5.668,5.6601,5.6601,5.6601,5.6601,5.6601,5.664,5.664,5.6601,5.6523,5.6328,5.6211,5.6172,5.6133,5.5586,5.4687,5.4686,5.4256,5.3242,5.2539,5.2266,5.2226,5.1719,5.1364,5.1311,5.1035,5.0529,4.9687,4.967,4.9671,4.9648,4.9672,4.9906,5.0337,4.9757,4.9018,4.8437,4.8125,4.7773,4.7695,4.8008,4.8343,4.8382,4.8359,4.8242,4.793,4.8008,4.7848,4.7302,4.7147,4.6914,4.625,4.6155,4.6172,4.6172,4.6172,4.6155,4.6155,4.6203,4.6203,4.6172,4.6211,4.6211,4.6211,4.5937,4.582,4.5742,4.5117,4.4609,4.457,4.4141,4.3672,4.2851,4.2148,4.1406,4.0351,3.957,3.9141,3.8984,3.9023,3.9492,3.9766,3.9883,3.9687,3.9062,3.8906,3.9219,3.9101,3.8828,3.8789,3.8867,3.8629,3.8224,6.043,6.0781,6.0351,5.9922,5.9609,5.9023,5.8633,5.832,5.7812,5.7734,5.8047,5.8789,5.9492,6.0078,6.082,6.1367,6.1601,6.1094,5.9961,5.8515,5.8008,5.7422,5.6719,5.6601,5.7031,5.7422,5.7265,5.707,5.707,5.707,5.6914,5.668,5.6601,5.6601,5.6601,5.6601,5.6172,5.543,5.5273,5.4883,5.4023,5.3164,5.2695,5.2578,5.1836,5.1445,5.1406,5.1406,5.1016,5.0351,5.0195,5.0312,5.0586,5.0664,5.0859,5.1094,5.0664,4.9922,4.9453,4.9023,4.8867,4.8672,4.9062,4.9375,4.9375,4.9375,4.9297,4.8945,4.8828,4.8672,4.8203,4.8086,4.7695,4.6875,4.6484,4.6328,4.6289,4.6289,4.6289,4.6289,4.6289,4.6289,4.6289,4.6289,4.6289,4.6289,4.6289,4.6289,4.6211,4.582,4.5586,4.5391,4.5195,4.457,4.375,4.3164,4.2617,4.1562,4.0508,4.0195,3.9961,4.0117,4.0469,4.0469,4.0586,4.0547,4.0039,3.9922,4.0039,3.9609,3.9414,3.9766,3.9957,3.9359,3.8901,6.168,6.1719,6.168,6.1172,6.0508,6.0312,5.9844,5.9297,5.9101,5.8672,5.832,5.8984,5.9375,5.9531,6.039,6.1133,6.1562,6.164,6.0742,5.9414,5.8555,5.7734,5.6719,5.6601,5.7344,5.8476,5.8125,5.7851,5.7773,5.789,5.7539,5.6836,5.6914,5.6758,5.6836,5.6719,5.6328,5.5625,5.5469,5.5039,5.4297,5.3437,5.2969,5.2969,5.2109,5.1562,5.1601,5.1484,5.1055,5.0391,5.0391,5.0664,5.1211,5.1406,5.1328,5.1367,5.0664,5.0312,5.0039,4.9687,4.9453,4.9883,5.0078,5.0273,5.0273,5.0234,5.0,4.9414,4.9297,4.9141,4.9023,4.8828,4.8359,4.7578,4.668,4.6328,4.6289,4.6289,4.6289,4.6289,4.6289,4.6289,4.6289,4.6289,4.6289,4.6289,4.6289,4.6289,4.6289,4.6172,4.625,4.6094,4.5859,4.5508,4.4687,4.4531,4.4023,4.3476,4.2226,4.1406,4.1016,4.1133,4.125,4.125,4.1172,4.1172,4.1016,4.0742,4.0703,4.0586,4.0664,4.1055,4.0724,4.004,3.9672,6.1719,6.1719,6.1719,6.1562,6.125,6.0703,6.0312,6.0,5.9453,5.914,5.9062,5.9726,6.0078,6.0195,6.0937,6.1523,6.168,6.1719,6.1172,6.0195,5.9883,5.8476,5.6953,5.664,5.7265,5.8203,5.8242,5.789,5.7969,5.8515,5.8359,5.7617,5.8047,5.8086,5.7656,5.75,5.7109,5.6367,5.625,5.6133,5.5781,5.5,5.4648,5.4492,5.3125,5.2422,5.2266,5.1719,5.1328,5.1133,5.1094,5.1172,5.1367,5.1406,5.1406,5.1328,5.1211,5.0781,5.0391,5.0508,5.0586,5.0273,5.0742,5.1094,5.1094,5.1094,5.0976,5.0742,5.0742,5.043,4.9922,4.9258,4.8281,4.6914,4.6562,4.6367,4.6289,4.6289,4.6289,4.6289,4.6289,4.6289,4.6289,4.6289,4.6289,4.6289,4.6289,4.6289,4.6289,4.6289,4.6289,4.6289,4.6133,4.6016,4.582,4.5742,4.5508,4.5234,4.4141,4.2773,4.2305,4.1992,4.207,4.207,4.1758,4.168,4.1367,4.1055,4.1211,4.1289,4.1172,4.1133,4.1016,4.0553,4.0387,6.1719,6.1719,6.1719,6.1719,6.164,6.1172,6.0937,6.0859,6.0469,6.0,5.9961,6.0586,6.0742,6.0508,6.1289,6.168,6.1719,6.1719,6.1211,6.043,6.0,5.9219,5.832,5.793,5.832,5.9336,5.9101,5.8984,5.8984,5.918,5.8711,5.8086,5.8398,5.8359,5.789,5.789,5.7695,5.7148,5.6836,5.6601,5.6523,5.5742,5.5351,5.5039,5.3945,5.3125,5.2656,5.1836,5.1406,5.1367,5.1406,5.1406,5.1406,5.1406,5.1406,5.1406,5.1406,5.1172,5.0898,5.1172,5.1172,5.0859,5.1211,5.1328,5.1367,5.1406,5.1406,5.1328,5.1406,5.1172,5.0625,4.9609,4.8516,4.7695,4.707,4.6719,4.6367,4.6289,4.6289,4.6289,4.6289,4.6289,4.6289,4.6289,4.6289,4.6289,4.6289,4.6289,4.6289,4.6289,4.6289,4.6289,4.6289,4.6172,4.6133,4.6055,4.5898,4.5742,4.5547,4.418,4.3242,4.2812,4.293,4.2851,4.2461,4.2148,4.1875,4.1641,4.1523,4.1523,4.1328,4.1133,4.0976,4.0862,4.0752,6.1719,6.1719,6.1719,6.1758,6.1836,6.1836,6.1953,6.1992,6.1836,6.1367,6.0976,6.1406,6.1211,6.0586,6.1406,6.1719,6.1719,6.1719,6.125,6.0625,6.0156,5.9844,6.0195,5.9219,5.9726,6.0781,6.0625,6.0312,6.0078,5.9687,5.9101,5.8711,5.8515,5.8242,5.8242,5.8125,5.7969,5.75,5.6914,5.664,5.6523,5.5937,5.5625,5.5469,5.4687,5.3594,5.2812,5.1992,5.1562,5.1406,5.1406,5.1406,5.1406,5.1406,5.1406,5.1406,5.1406,5.1367,5.1367,5.1328,5.1406,5.1328,5.1328,5.1406,5.1406,5.1406,5.1406,5.1406,5.1406,5.1289,5.0898,4.9844,4.9101,4.8594,4.8047,4.7422,4.6797,4.6562,4.6562,4.6523,4.6562,4.6445,4.6406,4.6328,4.6289,4.6289,4.6289,4.6289,4.6289,4.6289,4.6289,4.6289,4.6289,4.6289,4.6289,4.625,4.6055,4.5898,4.6055,4.5273,4.3945,4.3516,4.3711,4.3672,4.3242,4.293,4.2656,4.2383,4.2148,4.1797,4.168,4.1289,4.0898,4.0846,4.0742,6.1719,6.1719,6.1719,6.2109,6.2656,6.2734,6.3086,6.3633,6.3008,6.2578,6.2344,6.1953,6.1601,6.1406,6.1601,6.1719,6.1719,6.1719,6.1562,6.1445,6.1289,6.1211,6.1094,6.0,5.9844,6.0547,6.0547,6.043,6.043,6.0703,6.0703,5.9922,6.0078,6.0195,5.9062,5.8867,5.8164,5.7148,5.6758,5.6719,5.668,5.6523,5.6289,5.6172,5.539,5.4219,5.3008,5.25,5.207,5.1601,5.1445,5.1484,5.1406,5.1406,5.1406,5.1406,5.1406,5.1406,5.1406,5.1406,5.1406,5.1406,5.1406,5.1406,5.1406,5.1406,5.1406,5.1406,5.1367,5.1172,5.0664,5.0234,4.9609,4.9101,4.8789,4.8555,4.8359,4.8281,4.8164,4.8086,4.7656,4.7305,4.7305,4.668,4.6484,4.6367,4.6328,4.6328,4.6367,4.6445,4.6562,4.668,4.6562,4.6562,4.6289,4.6289,4.6133,4.6055,4.6172,4.6172,4.4844,4.4336,4.4609,4.4414,4.4023,4.375,4.3516,4.3359,4.3164,4.2578,4.2003,4.1626,4.1304,4.1046,4.0693,6.2305,6.2344,6.2734,6.3164,6.3555,6.3633,6.3867,6.418,6.3828,6.3359,6.2969,6.2461,6.2109,6.1719,6.1719,6.1719,6.1719,6.1719,6.168,6.168,6.168,6.168,6.1601,6.0937,6.0625,6.0976,6.1015,6.1015,6.1094,6.1015,6.0742,6.043,6.0898,6.0508,5.9922,5.9726,5.9336,5.8633,5.7969,5.7656,5.7265,5.7226,5.6914,5.6523,5.5781,5.4765,5.4062,5.3476,5.3086,5.2656,5.2226,5.1797,5.1484,5.1406,5.1406,5.1406,5.1406,5.1406,5.1406,5.1406,5.1406,5.1406,5.1406,5.1406,5.1406,5.1406,5.1406,5.1406,5.1367,5.1172,5.0781,5.0312,4.9922,4.9687,4.9492,4.9492,4.9453,4.918,4.8906,4.8828,4.8437,4.8242,4.793,4.7383,4.707,4.707,4.707,4.707,4.7266,4.7344,4.7305,4.7305,4.707,4.6836,4.6445,4.625,4.6172,4.6133,4.6211,4.6172,4.5547,4.543,4.5508,4.5195,4.4844,4.4648,4.4453,4.4297,4.3925,4.326,4.2656,4.2196,4.1818,4.1635,4.1116,6.3203,6.3242,6.3984,6.4375,6.4492,6.4492,6.4609,6.4726,6.4531,6.414,6.3398,6.3164,6.2539,6.2031,6.1758,6.1719,6.1719,6.1719,6.1719,6.1719,6.1719,6.1719,6.164,6.1562,6.1484,6.168,6.1601,6.1601,6.1406,6.0898,6.0664,6.0547,6.043,6.043,6.039,6.039,6.0078,5.9648,5.914,5.8711,5.8125,5.793,5.7383,5.6601,5.6015,5.543,5.5,5.4531,5.4101,5.3984,5.3281,5.2578,5.1992,5.1445,5.1406,5.1406,5.1406,5.1406,5.1406,5.1406,5.1406,5.1406,5.1406,5.1406,5.1406,5.1406,5.1406,5.1406,5.1367,5.1367,5.1328,5.0898,5.0508,5.0391,5.0391,5.0391,5.0273,4.9687,4.9531,4.9414,4.9297,4.9101,4.8828,4.8359,4.8047,4.7773,4.7773,4.7851,4.8047,4.8164,4.8125,4.7851,4.7578,4.6953,4.6484,4.6211,4.6133,4.6133,4.6211,4.6094,4.5967,4.5887,4.5815,4.5993,4.5781,4.5442,4.5233,4.5064,4.4556,4.3849,4.3399,4.3072,4.2667,4.2218,4.1651,6.4101,6.4101,6.4219,6.4726,6.5312,6.539,6.5781,6.6289,6.5664,6.5312,6.4922,6.3672,6.2969,6.2617,6.1953,6.1719,6.1719,6.1719,6.1719,6.1719,6.1719,6.1719,6.1719,6.1719,6.1719,6.1719,6.1719,6.1719,6.1523,6.0898,6.0859,6.1172,6.0742,6.043,6.0469,6.039,6.0156,5.9961,5.9609,5.9297,5.8945,5.8242,5.7578,5.6758,5.6406,5.5976,5.5508,5.5195,5.4765,5.4062,5.3867,5.3711,5.3281,5.2266,5.168,5.1641,5.168,5.1719,5.168,5.1562,5.1445,5.1406,5.1484,5.1406,5.1406,5.1406,5.1406,5.1406,5.1406,5.1406,5.1406,5.1172,5.1172,5.1172,5.1133,5.1133,5.1094,5.0937,5.0742,5.0586,5.0273,4.9922,4.9648,4.9297,4.8867,4.8672,4.8672,4.8672,4.8789,4.8867,4.8867,4.8476,4.8008,4.7226,4.6445,4.625,4.6133,4.6094,4.6094,4.6016,4.5924,4.5915,4.5969,4.5972,4.599,4.579,4.5653,4.5599,4.5184,4.4491,4.4214,4.4024,4.3448,4.2906,4.2491,6.4961,6.5,6.5469,6.5898,6.6211,6.6289,6.6523,6.6797,6.6445,6.6015,6.5312,6.4258,6.3398,6.289,6.207,6.1719,6.1719,6.1719,6.1719,6.1719,6.1719,6.1719,6.1719,6.1719,6.1719,6.1719,6.1719,6.1719,6.168,6.1328,6.1289,6.1367,6.0859,6.0625,6.0859,6.0625,6.0508,6.0312,6.043,6.0195,5.9726,5.8633,5.7695,5.7344,5.6836,5.6367,5.6133,5.5976,5.5781,5.539,5.4922,5.4726,5.4297,5.3633,5.2734,5.2734,5.2695,5.2695,5.2695,5.2734,5.2617,5.2148,5.2031,5.1797,5.1523,5.1406,5.1406,5.1406,5.1406,5.1406,5.1406,5.1406,5.1406,5.1406,5.1406,5.1406,5.1406,5.1406,5.1406,5.1406,5.1016,5.0703,5.0664,5.0273,4.9726,4.957,4.957,4.957,4.957,4.9687,4.9766,4.9141,4.8633,4.7734,4.6914,4.6523,4.6158,4.6061,4.5976,4.5903,4.5839,4.5822,4.5792,4.578,4.5783,4.5852,4.5836,4.5659,4.5406,4.5195,4.5,4.4685,4.4113,4.359,4.3239,6.5859,6.5937,6.6601,6.6914,6.6914,6.6875,6.6875,6.6914,6.6875,6.6367,6.5547,6.4648,6.3789,6.2969,6.2187,6.1719,6.1719,6.1719,6.1719,6.1719,6.1719,6.1719,6.1719,6.1719,6.1719,6.1719,6.1719,6.1719,6.164,6.1328,6.1484,6.1445,6.0859,6.0859,6.1328,6.1055,6.125,6.1445,6.168,6.125,6.0273,5.918,5.8281,5.8086,5.7305,5.6914,5.6875,5.6601,5.6523,5.625,5.5937,5.5586,5.543,5.4922,5.4453,5.4297,5.4101,5.3945,5.3672,5.3555,5.2969,5.2226,5.2383,5.1992,5.1641,5.1406,5.1406,5.1406,5.1406,5.1406,5.1406,5.1406,5.1406,5.1406,5.1406,5.1406,5.1406,5.1406,5.1406,5.1406,5.1406,5.1289,5.1133,5.1016,5.0469,5.0391,5.043,5.043,5.0469,5.0742,5.0664,4.9922,4.9219,4.832,4.7539,4.6875,4.6432,4.6036,4.5957,4.5845,4.5799,4.5729,4.5681,4.5669,4.5725,4.5757,4.576,4.5765,4.5541,4.5425,4.5548,4.5364,4.4782,4.4474,4.4205,6.6758,6.6758,6.6836,6.6914,6.6914,6.6914,6.6914,6.6914,6.6914,6.6406,6.5664,6.4726,6.3906,6.3047,6.2187,6.1797,6.1758,6.1719,6.1719,6.1719,6.1719,6.1719,6.1719,6.1719,6.1719,6.1719,6.1719,6.1719,6.1601,6.1055,6.1094,6.1367,6.0976,6.082,6.1367,6.125,6.1601,6.168,6.168,6.1289,6.0586,6.0156,5.9609,5.8984,5.8281,5.7773,5.7656,5.7187,5.6758,5.668,5.6523,5.6445,5.6406,5.6406,5.5859,5.5195,5.4453,5.3672,5.3203,5.3164,5.2812,5.2109,5.1797,5.1523,5.1445,5.1406,5.1406,5.1406,5.1445,5.1601,5.1719,5.1562,5.1445,5.1601,5.1797,5.168,5.1601,5.1758,5.1719,5.1523,5.1601,5.1445,5.1289,5.1289,5.125,5.125,5.125,5.1172,5.1172,5.1289,5.1289,5.0508,4.9805,4.8945,4.8125,4.7461,4.6937,4.6294,4.5952,4.5883,4.5919,4.5908,4.5636,4.5616,4.5661,4.5684,4.5658,4.5653,4.5633,4.5616,4.5599,4.5594,4.5518,4.5287,4.4975,6.6914,6.6914,6.6914,6.6914,6.6914,6.6914,6.6914,6.6914,6.6875,6.6719,6.6211,6.543,6.457,6.3633,6.2812,6.2461,6.2344,6.1992,6.1719,6.1797,6.1797,6.1758,6.1719,6.1719,6.1719,6.168,6.1719,6.1719,6.1523,6.1406,6.1406,6.1484,6.0898,6.0508,6.1015,6.0976,6.0937,6.1094,6.1367,6.1484,6.1094,6.0664,6.0234,5.9883,5.9062,5.8672,5.8398,5.7812,5.7383,5.7226,5.6953,5.6601,5.6601,5.6562,5.6367,5.6094,5.5742,5.4883,5.375,5.3476,5.293,5.2383,5.207,5.1992,5.1601,5.1484,5.1719,5.2109,5.2148,5.2305,5.2695,5.2891,5.2891,5.2851,5.2578,5.2656,5.2539,5.2226,5.2187,5.1953,5.1758,5.1562,5.1406,5.1328,5.1328,5.1328,5.1289,5.125,5.125,5.1289,5.1172,5.0937,5.0273,4.957,4.875,4.8029,4.7704,4.7036,4.6041,4.6047,4.621,4.6138,4.6013,4.5744,4.5646,4.5642,4.5594,4.5599,4.5607,4.5603,4.5594,4.5594,4.5594,4.5556,4.5167,6.6914,6.6914,6.6914,6.6914,6.6914,6.6914,6.6914,6.6875,6.664,6.6562,6.6367,6.5625,6.4844,6.4336,6.3633,6.332,6.3281,6.2656,6.2422,6.2344,6.2305,6.2265,6.2148,6.2031,6.1875,6.1587,6.1562,6.1562,6.1562,6.1562,6.1523,6.168,6.1172,6.0703,6.0469,6.0469,6.0508,6.0508,6.1211,6.1484,6.1406,6.0937,6.0703,6.0351,5.9883,5.9398,5.9242,5.8242,5.7734,5.7617,5.6914,5.6484,5.6523,5.6523,5.6289,5.6094,5.5859,5.5312,5.4453,5.4023,5.3672,5.3123,5.2927,5.2773,5.2344,5.207,5.2226,5.3008,5.3047,5.3398,5.3789,5.3906,5.375,5.3711,5.375,5.3906,5.3906,5.3359,5.2734,5.2344,5.207,5.1641,5.1484,5.1367,5.1328,5.1367,5.1367,5.132,5.1268,5.1246,5.1152,5.0977,5.0756,5.0116,4.9382,4.8719,4.8351,4.7819,4.6842,4.6523,4.6912,4.6821,4.6586,4.6283,4.5898,4.5706,4.5744,4.5671,4.5594,4.5594,4.5594,4.5594,4.5594,4.5594,4.5479,6.6914,6.6914,6.6914,6.6875,6.6914,6.6914,6.6914,6.6836,6.6094,6.5859,6.582,6.4922,6.4648,6.4375,6.4336,6.418,6.418,6.414,6.3867,6.3867,6.4023,6.3359,6.2933,6.2517,6.2221,6.1564,6.1417,6.1369,6.1339,6.1389,6.1507,6.1601,6.1406,6.1015,6.0625,6.0312,6.0411,6.0495,6.1068,6.1369,6.1364,6.1203,6.1198,6.0996,6.0433,5.9908,5.9874,5.8586,5.7734,5.7794,5.6973,5.6383,5.6428,5.6436,5.6164,5.5819,5.5725,5.5195,5.4531,5.4453,5.4101,5.3371,5.3128,5.3579,5.332,5.3633,5.3867,5.3828,5.3828,5.3984,5.4101,5.4023,5.4375,5.4453,5.4609,5.457,5.4492,5.4141,5.3555,5.2891,5.2375,5.1959,5.1538,5.1359,5.1231,5.1258,5.1239,5.1214,5.1185,5.1109,5.1124,5.1023,5.1052,5.0599,4.9936,4.9428,4.9026,4.8605,4.7896,4.7739,4.7917,4.7677,4.7201,4.6817,4.6432,4.6124,4.5821,4.571,4.5594,4.5594,4.5594,4.5594,4.5594,4.5594,4.5594,6.6914,6.6875,6.6746,6.6788,6.6914,6.6914,6.6914,6.6836,6.6562,6.6324,6.6146,6.5792,6.5605,6.5453,6.4942,6.4784,6.4706,6.418,6.4127,6.4002,6.3867,6.3739,6.3314,6.2917,6.2388,6.1978,6.1624,6.1325,6.1337,6.1292,6.1362,6.1458,6.1473,6.0898,6.043,6.0196,6.0356,6.0796,6.1084,6.1283,6.1325,6.1325,6.1325,6.1247,6.1089,6.0816,6.0628,5.9649,5.8906,5.814,5.7372,5.6768,5.6329,5.6262,5.607,5.5758,5.5775,5.536,5.4677,5.4594,5.41,5.3864,5.3742,5.3972,5.4085,5.3964,5.4176,5.4336,5.4582,5.4715,5.5273,5.5351,5.5469,5.543,5.5357,5.5274,5.5079,5.4805,5.4404,5.3777,5.289,5.2214,5.1772,5.1364,5.1239,5.1174,5.1129,5.1081,5.1036,5.0999,5.0969,5.0972,5.0956,5.0911,5.0315,4.9958,4.9633,4.9288,4.8891,4.8865,4.8754,4.8168,4.7735,4.7312,4.6851,4.6432,4.6052,4.5744,4.5594,4.5594,4.5594,4.5594,4.5594,4.5594,4.5594,6.6914,6.6875,6.6741,6.6738,6.679,6.678,6.6775,6.6697,6.6445,6.6284,6.6176,6.6276,6.6426,6.6192,6.5845,6.5501,6.5399,6.5004,6.4717,6.4723,6.4771,6.44,6.3977,6.3517,6.3068,6.2467,6.19,6.1528,6.112,6.1155,6.1155,6.1155,6.1097,6.0664,6.0197,5.9977,6.0232,6.0698,6.1069,6.1132,6.1151,6.1147,6.1143,6.1136,6.1046,6.1046,6.0763,6.0057,5.9261,5.8514,5.7698,5.6883,5.6411,5.6125,5.6122,5.6138,5.6086,5.5869,5.53,5.464,5.4419,5.4642,5.4661,5.4698,5.4555,5.4552,5.5095,5.5367,5.5441,5.5575,5.6227,5.6067,5.5983,5.587,5.5894,5.5809,5.5779,5.5584,5.5165,5.4672,5.3797,5.3082,5.2324,5.1897,5.1309,5.1133,5.0999,5.0969,5.0889,5.0883,5.0851,5.0803,5.0761,5.0729,5.0649,5.0364,5.0109,5.0087,4.9776,4.9638,4.9437,4.8856,4.8235,4.7735,4.7235,4.6701,4.6201,4.5706,4.5594,4.5594,4.5594,4.5594,4.5594,4.5594,4.5594,6.6914,6.6914,6.6913,6.6781,6.6606,6.6465,6.6426,6.6368,6.572,6.539,6.5489,6.604,6.6341,6.6337,6.6139,6.6057,6.6065,6.6047,6.597,6.587,6.572,6.5491,6.4942,6.4352,6.3405,6.2386,6.1797,6.1345,6.0889,6.0915,6.0877,6.0867,6.0874,6.0635,6.0058,5.9848,5.9753,5.9873,6.0578,6.0806,6.0883,6.0899,6.0866,6.0871,6.0882,6.0897,6.071,6.028,5.951,5.8746,5.7984,5.7109,5.6256,5.6156,5.6082,5.5928,5.6084,5.6113,5.6058,5.5186,5.52,5.5643,5.5565,5.5608,5.6035,5.6184,5.5971,5.5924,5.6067,5.6141,5.6291,5.6246,5.6183,5.6169,5.6146,5.6135,5.603,5.5961,5.5475,5.5134,5.4784,5.4262,5.3335,5.2481,5.1615,5.1198,5.0963,5.0831,5.0782,5.0751,5.0776,5.0758,5.0716,5.0702,5.0707,5.0707,5.0611,5.063,5.0553,5.0284,5.013,4.9817,4.9125,4.8274,4.7505,4.6855,4.6206,4.5594,4.5594,4.5594,4.5594,4.5594,4.5594,4.5594,4.5594,6.7383,6.7376,6.7286,6.686,6.6327,6.6444,6.6483,6.6338,6.5953,6.576,6.5799,6.6037,6.6056,6.6095,6.6088,6.6098,6.6082,6.6056,6.6095,6.6077,6.6098,6.5898,6.5351,6.4426,6.3586,6.274,6.2012,6.1325,6.081,6.0896,6.0819,6.0787,6.0793,6.0729,6.0576,6.0447,6.0459,6.0492,6.0717,6.0793,6.0781,6.0781,6.0781,6.0781,6.0781,6.0781,6.0781,6.0358,5.9893,5.9207,5.8495,5.789,5.6936,5.6638,5.6401,5.6006,5.5895,5.5886,5.5848,5.5513,5.5624,5.5973,5.6128,5.6032,5.6096,5.6077,5.6061,5.6045,5.6058,5.5991,5.5909,5.5896,5.5865,5.5947,5.5951,5.5928,5.5873,5.5827,5.5595,5.535,5.5041,5.4371,5.3591,5.3128,5.2353,5.1741,5.1565,5.0962,5.0774,5.0716,5.0707,5.0702,5.0683,5.0678,5.0707,5.0707,5.0707,5.0668,5.0668,5.0592,5.0476,5.0399,4.951,4.8428,4.7697,4.6971,4.6244,4.5671,4.5594,4.5594,4.5633,4.5821,4.6013,4.5859,4.5594,6.7201,6.7188,6.7107,6.6687,6.6156,6.6266,6.6302,6.6204,6.6089,6.6007,6.6008,6.5913,6.5923,6.5916,6.5904,6.5904,6.5904,6.5904,6.591,6.5904,6.591,6.5858,6.539,6.4551,6.4037,6.3314,6.2474,6.1627,6.1364,6.1287,6.1095,6.0858,6.0819,6.0771,6.0744,6.0739,6.0727,6.0733,6.0781,6.0781,6.0781,6.0781,6.0781,6.0781,6.0781,6.0781,6.0781,6.0666,6.0435,5.9819,5.9319,5.8858,5.7863,5.7363,5.717,5.6742,5.6285,5.6109,5.5812,5.5702,5.5759,5.5936,5.6015,5.5993,5.5928,5.5932,5.5967,5.5903,5.5798,5.5774,5.5769,5.5768,5.5733,5.5807,5.5802,5.5817,5.5798,5.5748,5.5728,5.5455,5.5291,5.4593,5.4049,5.3598,5.3131,5.2626,5.2174,5.1515,5.0938,5.0899,5.0938,5.0938,5.0861,5.0861,5.0784,5.0707,5.0707,5.0707,5.0707,5.0707,5.063,5.0476,4.951,4.8702,4.8048,4.7317,4.6244,4.5748,4.6013,4.5975,4.5782,4.6052,4.6394,4.6086,4.5633,6.6445,6.6413,6.641,6.6322,6.6119,6.5997,6.5933,6.5929,6.5923,6.5923,6.591,6.5884,6.5904,6.5904,6.5904,6.5904,6.5904,6.5904,6.5904,6.5904,6.5904,6.5904,6.559,6.4936,6.4436,6.416,6.3512,6.2474,6.2172,6.2133,6.1704,6.1243,6.132,6.132,6.1281,6.1281,6.1127,6.0935,6.1018,6.0941,6.0864,6.0781,6.0781,6.0781,6.0781,6.0781,6.0781,6.0742,6.0358,5.9935,5.9588,5.9088,5.8627,5.8352,5.8313,5.8011,5.7363,5.6747,5.6247,5.6165,5.5911,5.6049,5.5807,5.5803,5.5852,5.5853,5.5861,5.5899,5.5883,5.5849,5.5849,5.5784,5.5714,5.5717,5.5712,5.5707,5.5702,5.5719,5.5719,5.5631,5.5631,5.5285,5.5088,5.4664,5.378,5.351,5.301,5.2279,5.1746,5.1438,5.1471,5.1399,5.1284,5.1053,5.1015,5.1125,5.1048,5.1164,5.0784,5.0668,5.063,5.0476,4.9707,4.9009,4.8509,4.774,4.6894,4.6663,4.6812,4.6586,4.6163,4.6163,4.6509,4.6013,4.5594,6.6902,6.6902,6.6902,6.6543,6.5993,6.5941,6.5904,6.5904,6.5904,6.5904,6.5904,6.5904,6.6051,6.5904,6.5904,6.5904,6.5904,6.5904,6.5904,6.5904,6.5981,6.5942,6.559,6.5128,6.4743,6.4359,6.3852,6.3275,6.3012,6.2935,6.2852,6.266,6.2358,6.2397,6.2435,6.2545,6.1781,6.1287,6.1402,6.121,6.0941,6.0781,6.0781,6.0781,6.0781,6.0781,6.0781,6.0781,6.0512,6.0435,6.0396,6.0012,5.9281,5.9127,5.9011,5.8357,5.8011,5.778,5.7473,5.6973,5.6632,5.6478,5.617,5.5724,5.5768,5.5861,5.5861,5.5825,5.5843,5.5798,5.5779,5.5753,5.5708,5.5708,5.5708,5.5708,5.5708,5.5708,5.5708,5.5708,5.5708,5.567,5.5555,5.5126,5.4357,5.4241,5.3895,5.3203,5.2626,5.2318,5.2049,5.201,5.2049,5.1933,5.1933,5.2043,5.1774,5.1543,5.1087,5.0707,5.0592,5.0322,4.9822,4.9356,4.8894,4.8355,4.7735,4.7582,4.7428,4.7005,4.662,4.6586,4.6432,4.5936,4.5594,6.6635,6.6673,6.6981,6.6974,6.6859,6.6513,6.6365,6.6365,6.6365,6.6359,6.6442,6.6782,6.6705,6.6436,6.6404,6.625,6.5904,6.5904,6.5904,6.5942,6.6211,6.6128,6.5782,6.5397,6.5243,6.482,6.4359,6.3891,6.3737,6.3391,6.3237,6.3198,6.3314,6.3314,6.3198,6.3045,6.2474,6.1941,6.1672,6.1479,6.1133,6.0781,6.0781,6.0781,6.0781,6.0781,6.0781,6.0781,6.0781,6.0781,6.0781,6.0589,6.005,5.9973,5.9627,5.9011,5.8781,5.8511,5.8165,5.778,5.7594,5.7401,5.7016,5.6901,5.6445,5.6333,5.5987,5.5728,5.5702,5.5719,5.5714,5.5708,5.5708,5.5708,5.5708,5.5708,5.5708,5.5708,5.5708,5.5708,5.5708,5.5708,5.5516,5.5126,5.4972,5.4972,5.4895,5.4626,5.3895,5.328,5.2933,5.2741,5.2856,5.2895,5.2928,5.2736,5.2236,5.1736,5.1087,5.0784,5.063,5.0399,5.0091,4.9745,4.9356,4.8856,4.8394,4.8043,4.7812,4.7351,4.6735,4.6317,4.609,4.5859,4.5629,6.5981,6.6134,6.6865,6.7667,6.8199,6.7398,6.7058,6.7096,6.7058,6.7096,6.7212,6.7975,6.7859,6.7282,6.7205,6.6898,6.6628,6.6513,6.6359,6.6058,6.6635,6.659,6.6051,6.5865,6.5673,6.5513,6.5243,6.4705,6.4512,6.4243,6.3929,6.3506,6.3698,6.3852,6.3929,6.366,6.3128,6.2441,6.2018,6.171,6.105,6.0781,6.0781,6.0781,6.0781,6.0781,6.0781,6.0781,6.0781,6.0781,6.0781,6.0787,6.0704,6.0627,6.0165,5.9935,5.9627,5.9358,5.8973,5.8588,5.8434,5.8357,5.8313,5.8006,5.7434,5.667,5.6209,5.5978,5.5978,5.6016,5.6016,5.5862,5.5747,5.5824,5.5901,5.5824,5.5708,5.5708,5.5708,5.5708,5.5708,5.5708,5.567,5.5362,5.5324,5.5516,5.5516,5.5401,5.5049,5.4241,5.3933,5.3626,5.3857,5.3972,5.3703,5.3395,5.2582,5.1967,5.1395,5.0861,5.0707,5.0553,5.0399,5.013,4.9899,4.9514,4.9086,4.8779,4.824,4.7428,4.6778,4.6013,4.5706,4.5667,4.5629,6.6244,6.6859,6.7744,6.8237,6.8276,6.7475,6.7135,6.7096,6.7096,6.7173,6.7282,6.7975,6.8314,6.8007,6.7975,6.7744,6.7552,6.7205,6.7282,6.7013,6.7135,6.6942,6.6134,6.6167,6.6019,6.5865,6.5667,6.5705,6.5628,6.5397,6.5243,6.5243,6.5166,6.5128,6.4936,6.4589,6.3743,6.3051,6.2441,6.1864,6.1204,6.0896,6.0781,6.0781,6.0781,6.0781,6.0781,6.0781,6.0781,6.0781,6.0781,6.0781,6.0781,6.0781,6.071,6.0517,6.0358,6.0165,5.9935,5.9511,5.9242,5.9011,5.8819,5.8467,5.7929,5.7132,5.667,5.6478,5.6401,5.6439,5.6401,5.6132,5.6011,5.6132,5.6209,5.6016,5.5824,5.5785,5.5747,5.5708,5.5708,5.5708,5.5708,5.5708,5.5708,5.567,5.567,5.5631,5.5593,5.5131,5.5011,5.4818,5.5049,5.5049,5.4703,5.4126,5.3351,5.2736,5.2202,5.1548,5.0861,5.063,5.0515,5.0596,5.0404,5.0053,4.9745,4.9476,4.8856,4.7851,4.7158,4.6471,4.5898,4.5706,4.5671,6.6365,6.725,6.8475,6.9206,6.9321,6.8629,6.8244,6.8282,6.8244,6.8244,6.8282,6.8699,6.8776,6.8468,6.8391,6.7975,6.7744,6.7667,6.7359,6.7212,6.7705,6.7443,6.7058,6.6744,6.6705,6.6628,6.6936,6.7051,6.6821,6.6974,6.6936,6.6519,6.6404,6.6288,6.5942,6.5089,6.4436,6.3897,6.3051,6.2358,6.1666,6.132,6.0858,6.0781,6.0819,6.0858,6.0781,6.0781,6.0781,6.0781,6.0781,6.0781,6.0781,6.0781,6.0781,6.0742,6.0742,6.0781,6.071,6.0435,6.0089,5.9858,5.9742,5.9588,5.9473,5.8748,5.7934,5.7703,5.7434,5.7434,5.7434,5.728,5.728,5.7357,5.728,5.7088,5.6709,5.6439,5.6132,5.5708,5.5708,5.5708,5.5708,5.5708,5.5708,5.5708,5.5708,5.5708,5.5708,5.5708,5.5708,5.5708,5.5708,5.567,5.5324,5.478,5.4164,5.3587,5.2967,5.2236,5.1548,5.0976,5.0668,5.0668,5.0668,5.0592,5.0322,4.9899,4.9125,4.8125,4.7543,4.7086,4.6475,4.5975,4.6129,6.6436,6.7443,6.9129,7.0244,7.0706,7.0014,6.9629,6.959,6.9513,6.9513,6.9552,6.959,6.9244,6.8936,6.866,6.7667,6.7398,6.8321,6.7981,6.8052,6.8975,6.8321,6.7936,6.7853,6.7628,6.7513,6.7628,6.7782,6.7744,6.7859,6.7705,6.7244,6.7058,6.6942,6.6128,6.5359,6.4782,6.4474,6.3897,6.3314,6.2621,6.1973,6.1512,6.1243,6.1089,6.1133,6.1127,6.1127,6.1166,6.1243,6.1396,6.1435,6.1435,6.1512,6.1435,6.1473,6.1512,6.1473,6.1281,6.1172,6.1018,6.0941,6.0896,6.0704,6.0512,6.005,5.9242,5.8852,5.8583,5.8313,5.8352,5.8275,5.8275,5.8352,5.8242,5.8011,5.7555,5.706,5.6516,5.5939,5.5824,5.5824,5.5747,5.5747,5.5708,5.5708,5.5708,5.5708,5.5708,5.5708,5.5708,5.5708,5.5708,5.567,5.567,5.5324,5.4741,5.4241,5.3626,5.289,5.2159,5.1543,5.101,5.0707,5.0707,5.0707,5.0399,4.9938,4.9125,4.8432,4.7928,4.7505,4.7163,4.6817,4.6966,6.6782,6.8314,6.9975,7.0744,7.0783,7.0052,6.9706,6.959,6.9007,6.9007,6.9629,6.9783,6.986,7.0398,7.0437,6.9744,6.8975,6.9436,6.9475,6.9552,6.9629,6.9013,6.8513,6.8468,6.8314,6.8199,6.7975,6.7475,6.8129,6.8353,6.7975,6.7173,6.7898,6.7898,6.7667,6.6744,6.5743,6.5436,6.4551,6.3775,6.3545,6.3083,6.2968,6.2814,6.2814,6.2814,6.2852,6.2814,6.2814,6.2814,6.2698,6.2621,6.2545,6.2506,6.2474,6.2397,6.2435,6.2474,6.232,6.1897,6.171,6.1595,6.1364,6.0781,6.0666,6.0666,6.0089,5.9935,5.9588,5.905,5.8934,5.8665,5.8627,5.8896,5.8934,5.855,5.8165,5.7632,5.7055,5.6555,5.6209,5.6055,5.5862,5.5824,5.5708,5.5708,5.5708,5.5708,5.5708,5.5708,5.5708,5.5708,5.5708,5.5708,5.5708,5.567,5.5203,5.478,5.4203,5.339,5.2659,5.2043,5.1505,5.0899,5.0707,5.0707,5.0322,5.0091,4.9586,4.8971,4.8389,4.7928,4.7663,4.7663,4.7817]}]]